GFSSGP_250_spd_000.txt.gz
Wind_Speed
74 76 75 74 76 74 73 75 74 77 77 80 78 80 78 81 85 88 92 94 95 94 101 109 109 112 115 115 119 124 125 115 104 103 90 93 81 78 75 72 66 66 68 67 67 68 69 70 64
80 76 76 79 80 82 80 80 82 79 80 80 82 88 86 90 92 94 96 95 97 96 105 111 111 113 113 117 114 111 107 102 94 86 75 71 71 67 62 57 54 55 55 54 54 55 55 54 53
84 83 80 79 83 84 83 84 86 87 84 83 89 93 91 93 95 96 100 101 101 107 109 110 107 106 110 107 101 99 94 77 67 66 62 54 48 43 41 42 43 43 43 44 42 42 43 46 47
85 86 85 83 85 86 83 83 86 88 89 88 93 94 92 95 96 99 101 106 108 111 117 106 104 102 97 90 92 85 57 55 43 37 34 30 26 26 27 28 29 30 31 31 31 31 30 30 31
89 87 85 83 83 87 86 86 89 89 91 95 94 93 95 98 103 104 100 101 105 106 105 97 99 95 87 80 63 45 33 28 24 25 24 24 21 23 24 23 24 26 27 26 25 23 22 23 23
88 88 88 88 86 89 90 92 92 92 94 93 94 95 98 102 101 102 105 97 91 90 92 94 94 83 64 43 34 30 24 23 23 23 25 27 27 30 29 26 24 24 25 25 24 23 20 16 17
89 87 89 91 94 94 94 93 96 95 97 99 101 102 106 106 109 105 90 88 87 88 88 83 58 39 33 26 23 22 21 21 22 23 23 25 25 28 28 26 26 26 27 26 25 23 24 21 16
90 89 90 92 95 97 96 97 95 97 98 97 98 102 109 106 93 92 88 82 76 70 56 46 41 25 17 17 20 21 21 20 23 23 23 23 23 20 22 22 21 23 24 24 25 24 22 23 22
90 95 98 91 95 95 97 95 94 98 99 103 104 95 87 87 86 83 77 72 54 40 35 29 20 15 14 15 18 20 21 21 22 21 22 22 21 20 20 20 21 23 22 21 20 21 20 22 21
101 97 100 102 93 99 97 99 100 100 95 93 86 81 76 79 75 68 58 45 28 19 19 16 13 14 17 16 18 19 18 20 20 20 21 23 23 23 23 25 28 28 25 24 23 21 20 19 20
106 104 99 102 105 99 103 101 96 91 84 72 71 73 68 70 62 42 37 25 16 16 15 15 16 19 18 20 20 22 23 24 25 28 29 29 28 31 31 31 32 32 32 30 28 26 25 23 21
104 102 96 99 104 103 101 91 85 84 76 72 64 64 59 45 35 28 25 16 16 13 14 14 17 21 22 24 25 26 27 28 30 31 32 34 35 36 36 36 35 35 35 35 34 32 29 27 27
96 93 91 100 93 87 84 81 86 74 57 69 51 43 34 25 20 21 19 19 17 17 20 21 24 26 27 30 32 33 35 36 38 38 39 39 39 39 39 38 37 36 37 37 36 35 35 34 31
91 94 86 84 73 71 76 70 64 50 52 44 33 25 21 20 19 19 19 20 20 23 27 28 32 36 38 38 40 41 42 42 41 40 40 41 42 42 40 39 40 38 37 36 36 38 40 40 40
66 66 68 66 70 64 55 51 46 33 29 31 23 18 20 22 22 22 23 23 26 30 32 34 35 37 39 40 42 43 44 43 43 42 43 44 42 45 48 47 46 46 47 48 46 45 45 45 46
47 52 54 57 46 32 37 37 32 25 27 22 20 22 24 24 27 28 29 29 30 31 33 36 40 42 43 45 43 44 46 45 45 46 45 46 49 49 50 50 51 52 53 53 52 52 53 55 56
27 29 28 26 32 29 28 22 22 21 24 23 24 26 27 30 35 36 37 35 35 37 38 40 40 43 46 46 46 46 46 46 47 48 50 53 55 56 57 58 59 59 60 61 59 58 58 61 63
19 19 16 17 19 19 19 18 21 21 24 26 27 28 31 34 34 33 34 36 38 38 38 36 40 44 44 44 43 45 48 50 53 55 57 58 59 61 64 67 69 69 70 68 67 69 70 68 63
15 15 15 16 17 16 18 21 23 26 29 32 34 37 39 36 34 34 35 38 39 37 37 39 43 47 45 45 49 52 54 56 58 61 62 64 67 70 71 69 69 70 72 74 74 74 74 74 78
15 13 13 14 16 20 22 26 30 30 31 29 30 30 31 32 33 35 38 41 42 42 44 46 46 45 47 50 54 57 59 61 63 65 68 70 71 71 70 70 73 76 77 76 82 84 86 84 86
13 10 11 14 18 21 23 23 21 23 25 29 27 28 29 32 34 39 43 46 48 48 44 44 48 52 53 55 57 59 62 66 68 69 71 71 71 73 74 77 82 83 84 87 89 91 94 94 95
17 16 15 16 19 19 22 23 24 26 28 27 27 27 29 33 41 44 47 47 43 44 47 50 53 53 54 57 60 63 65 67 69 69 73 75 77 80 81 84 87 87 88 90 94 94 97 100 99
17 18 19 20 20 22 24 27 29 29 26 27 28 29 35 43 44 44 40 43 47 49 52 52 53 56 58 60 63 66 68 70 73 76 78 82 85 87 90 92 95 99 100 103 105 107 108 108 107
20 21 22 23 24 24 25 27 26 29 28 29 29 36 43 44 42 41 48 49 51 51 53 56 58 62 66 67 72 74 75 79 84 87 91 94 96 96 100 104 106 111 114 116 115 116 111 110 107
26 24 24 25 26 27 28 30 28 30 30 33 38 43 42 40 44 49 51 52 52 55 59 63 66 70 70 76 80 82 86 89 92 95 99 103 104 107 109 114 119 121 121 123 124 117 110 107 106
25 26 26 27 27 29 32 31 29 32 33 36 39 41 41 45 50 50 51 54 57 61 62 64 68 70 74 79 84 87 92 95 98 101 106 109 113 117 121 123 125 126 129 128 121 109 104 101 97
21 24 27 29 29 29 30 31 34 36 36 38 39 41 46 52 54 55 57 60 61 61 63 69 73 76 81 86 90 95 99 103 107 111 113 117 121 126 127 131 132 130 125 115 107 102 97 94 89
16 20 24 28 27 27 35 35 37 36 34 37 42 47 50 52 55 57 59 61 61 63 69 74 78 82 87 93 99 102 106 111 113 115 119 124 128 130 133 131 131 124 112 105 99 94 92 92 90
11 12 16 20 23 27 31 38 33 31 37 41 46 49 52 54 57 58 63 61 64 71 78 83 86 90 96 101 104 108 112 117 120 125 128 132 133 132 130 126 115 108 103 99 96 93 90 85 82
18 19 19 20 25 31 33 40 38 35 41 45 48 51 55 60 64 65 66 70 75 81 86 90 94 99 104 107 111 115 119 125 129 131 134 134 131 124 115 109 105 101 99 98 93 88 82 77 74

GFSSGP_250_spd_003.txt.gz
Wind_Speed
75 78 78 78 73 76 78 77 76 76 78 77 75 77 77 81 87 90 93 96 100 96 100 99 101 103 108 112 111 110 109 107 106 108 112 111 96 84 72 71 74 73 67 66 65 60 59 58 55
82 80 81 79 79 80 78 76 79 78 79 80 80 80 81 86 89 91 91 96 99 99 102 102 103 105 107 109 104 101 98 100 99 100 95 85 68 58 53 49 46 42 40 39 40 41 41 44 45
85 86 83 82 83 85 82 81 81 80 77 78 80 83 86 92 91 92 95 98 100 102 104 105 107 102 100 101 94 96 100 92 84 72 59 52 40 34 26 21 19 19 22 25 29 30 33 33 33
87 84 87 85 88 85 83 86 88 89 88 87 85 84 87 92 94 95 97 101 102 105 107 107 103 99 92 101 101 88 78 75 60 49 32 26 20 16 17 18 20 20 20 21 21 21 23 24 24
87 89 89 88 88 87 90 90 87 87 87 89 89 93 94 99 97 98 101 101 104 105 105 103 95 88 93 90 86 77 60 44 26 20 21 17 16 19 21 25 26 28 28 27 28 26 21 20 23
85 89 92 92 90 90 91 89 90 91 90 90 91 94 96 99 102 101 104 105 103 96 94 86 88 87 88 77 58 33 23 21 24 18 18 18 20 23 24 25 27 27 28 31 32 32 29 27 22
88 90 91 90 91 93 93 94 95 97 94 98 97 97 97 103 102 102 105 97 88 86 85 85 83 80 64 39 29 16 18 18 18 18 19 21 22 23 24 24 26 27 26 26 28 27 28 28 29
87 90 89 90 90 85 86 87 92 96 98 94 91 97 99 104 104 100 90 83 83 82 83 79 71 50 37 20 19 17 19 22 21 21 22 25 25 23 22 23 25 26 25 24 23 23 25 25 26
95 95 94 94 93 93 92 93 98 98 94 92 92 83 91 89 82 80 81 83 80 73 70 54 35 29 20 19 18 20 22 25 24 23 24 24 24 25 26 26 27 27 26 25 23 22 22 23 23
92 94 94 90 94 95 97 97 94 93 95 99 101 104 102 84 79 81 75 71 71 56 39 30 24 22 19 20 25 27 29 28 30 31 31 31 31 30 30 31 30 30 29 28 26 24 24 24 24
93 93 92 95 93 94 96 93 93 93 93 94 91 89 78 74 75 73 64 64 44 33 25 22 23 21 22 24 24 26 28 29 31 32 34 35 35 35 34 34 34 34 33 31 31 28 26 27 26
91 86 86 90 90 88 87 89 93 94 85 81 73 73 72 72 66 64 45 35 25 26 26 24 26 28 28 32 34 33 35 37 39 40 40 41 41 41 40 39 38 38 37 36 34 32 31 28 28
81 82 82 87 86 85 85 89 82 84 83 70 70 70 61 61 52 36 27 26 27 26 29 29 31 33 34 40 43 41 44 45 47 46 45 44 44 43 44 44 44 45 42 39 37 36 37 37 36
76 84 80 77 76 73 78 77 81 79 71 67 66 59 48 41 25 25 27 26 29 30 31 33 35 39 41 45 45 47 48 47 47 46 44 44 44 46 47 48 49 47 47 46 45 45 45 45 45
58 62 64 68 67 77 67 63 67 60 60 50 43 40 32 29 24 25 28 28 32 35 35 38 42 42 44 46 46 46 48 49 49 48 46 46 47 48 48 49 51 52 53 54 53 53 53 54 53
45 48 51 55 55 52 53 47 51 57 40 40 33 30 26 26 28 28 29 31 36 38 41 41 44 45 45 46 46 45 47 47 45 46 48 50 51 53 54 54 56 56 58 59 60 61 60 60 59
39 38 38 38 39 38 38 35 33 30 26 24 24 26 28 29 32 32 35 36 38 39 41 40 42 41 43 47 45 49 51 48 49 51 54 55 56 56 56 59 61 62 63 65 66 65 62 60 62
26 25 21 20 21 24 26 23 24 22 21 22 26 28 29 34 36 39 41 41 38 37 40 41 39 43 45 46 50 48 48 52 54 55 56 56 58 60 62 64 66 67 67 66 67 68 69 68 72
19 17 15 15 17 19 20 20 20 23 24 25 28 30 33 33 35 36 37 36 35 40 42 46 44 49 47 43 47 53 54 55 56 57 58 63 65 67 67 67 69 70 70 70 72 74 73 73 74
13 13 13 15 16 17 20 22 25 26 28 31 32 30 33 33 33 33 34 36 41 46 49 46 42 45 49 51 54 57 57 59 62 65 65 66 68 72 74 75 77 79 81 84 85 85 83 82 84
14 16 17 18 18 21 23 25 27 29 27 27 28 31 32 33 34 32 37 42 46 46 41 45 50 52 54 55 56 59 62 64 69 71 71 74 74 75 77 80 81 83 87 88 88 89 90 90 90
18 19 20 19 19 21 26 30 31 30 31 30 31 32 33 34 34 37 42 44 44 44 50 54 56 56 56 60 61 65 65 67 70 69 71 76 80 83 88 91 93 96 98 99 99 102 101 105 102
21 22 22 23 25 25 26 31 23 31 31 30 31 33 34 37 38 43 46 45 45 52 56 57 56 59 63 66 68 67 68 74 75 77 80 85 90 93 95 98 102 106 107 107 110 112 113 114 114
25 24 24 27 29 29 28 32 20 28 25 28 32 33 36 40 43 45 47 46 51 58 59 61 63 64 68 68 67 72 77 79 83 87 91 95 100 103 107 110 114 116 118 119 122 123 124 121 121
26 28 29 30 30 30 32 34 27 33 33 30 32 35 39 42 45 46 47 51 57 59 62 66 66 67 67 68 75 80 84 88 92 95 100 103 107 111 114 117 121 124 127 129 130 131 130 126 122
20 23 27 31 33 33 35 34 29 34 34 37 41 42 43 44 46 49 52 56 59 61 63 67 69 70 72 77 82 86 91 95 98 102 105 111 115 118 122 126 129 134 135 134 133 133 128 122 112
16 19 20 25 29 34 37 36 31 38 39 43 44 43 42 44 49 54 57 60 63 64 67 69 72 76 79 83 89 93 95 99 104 108 113 116 121 126 132 136 140 138 134 131 127 117 109 103 99
11 13 17 20 24 29 33 38 32 38 37 39 39 43 46 48 53 58 62 64 65 67 72 75 79 83 88 91 93 100 103 106 110 115 121 125 129 134 138 137 134 125 118 114 108 103 101 99 99
15 17 18 19 22 25 29 36 34 36 40 42 43 45 48 54 54 59 63 67 68 73 77 81 85 90 94 96 102 105 109 115 118 123 127 132 137 139 137 131 121 114 108 108 104 102 100 97 93
20 21 24 28 31 34 36 41 40 40 38 41 46 49 52 54 59 64 66 68 73 77 83 87 92 94 100 104 108 113 117 122 126 130 136 139 138 132 120 112 109 109 106 103 100 96 93 88 83

GFSSGP_250_spd_006.txt.gz
Wind_Speed
83 79 75 75 77 80 82 82 77 72 70 74 77 80 80 78 79 81 84 85 87 89 91 93 98 102 104 107 109 113 112 112 114 99 101 113 108 105 86 70 64 59 55 57 58 56 56 56 55
85 86 80 75 74 77 82 80 80 77 80 80 83 82 80 82 82 84 84 89 94 96 96 100 104 107 108 112 113 114 113 104 94 97 102 97 88 71 55 41 35 31 31 28 26 28 29 31 32
92 89 86 85 84 80 82 76 77 80 82 82 82 83 85 85 84 89 92 94 95 97 98 104 103 108 109 113 114 110 96 94 98 95 82 61 48 47 26 19 16 17 18 18 21 20 20 21 22
83 84 85 88 91 88 89 82 81 80 82 86 85 82 85 84 86 89 95 98 101 103 106 107 108 110 112 110 101 95 93 95 80 67 52 39 31 26 18 16 19 22 23 23 24 23 23 23 25
79 84 85 90 92 89 91 82 80 89 88 87 88 84 88 89 92 93 95 100 105 106 107 108 108 113 107 100 94 92 88 73 56 38 33 22 14 15 18 22 25 27 27 28 29 28 27 27 24
77 77 80 85 85 84 87 86 87 88 90 92 94 92 95 97 97 97 100 105 108 106 109 110 104 97 92 86 86 86 65 44 30 20 17 20 22 22 25 28 29 29 30 30 30 30 30 31 31
82 75 79 84 72 84 87 90 91 90 94 92 91 94 96 98 100 98 102 106 102 100 95 93 90 88 86 81 71 61 38 29 23 20 22 24 26 27 27 30 32 33 31 30 30 29 29 27 27
85 86 78 77 79 79 86 90 91 94 94 93 95 95 96 98 96 98 101 104 104 100 102 97 87 81 75 68 54 36 23 20 22 21 22 25 27 31 32 32 34 34 33 32 30 29 28 29 29
88 89 86 82 80 84 86 89 87 87 89 88 86 90 92 93 100 102 103 103 104 98 95 84 72 66 58 47 34 24 24 26 28 27 27 30 31 31 36 35 35 33 33 30 30 30 28 26 26
90 94 89 87 90 86 87 88 90 88 87 86 90 93 95 100 97 95 94 92 80 74 73 68 64 51 44 36 30 27 31 32 35 34 34 35 38 40 39 40 37 34 35 36 35 32 30 29 26
94 91 89 92 92 96 97 93 91 89 91 91 91 94 96 96 89 90 84 77 72 69 59 46 45 39 31 32 33 36 38 39 41 42 43 43 44 44 41 40 39 41 40 36 35 35 33 29 29
93 97 97 95 93 90 90 92 89 87 84 83 85 83 85 86 82 79 73 75 64 52 46 38 34 34 34 37 39 40 42 43 48 52 51 49 48 44 46 45 45 45 43 43 42 40 38 38 37
85 87 87 89 89 87 84 84 82 80 79 82 81 82 79 68 73 74 55 51 46 36 33 35 35 40 40 44 43 45 47 49 52 49 50 51 51 50 48 48 47 47 47 47 45 44 43 42 41
73 78 82 83 83 83 80 79 77 74 73 73 69 66 67 73 54 56 40 39 33 29 31 35 39 41 47 51 49 50 52 54 51 49 49 51 51 50 48 47 47 49 49 49 50 50 50 49 49
67 72 71 75 77 75 68 69 71 73 76 66 61 66 64 54 46 39 32 29 28 31 33 40 40 47 52 57 55 54 53 53 49 50 52 52 48 49 51 51 52 51 50 51 53 54 56 56 57
56 58 57 58 59 66 70 74 62 61 57 54 46 42 39 41 31 27 32 30 33 29 20 7 41 49 54 59 57 50 49 51 52 53 50 52 55 55 56 55 55 55 56 58 60 60 58 58 58
44 47 49 51 54 54 54 50 47 45 39 35 31 31 31 26 27 27 35 35 35 32 31 34 49 55 56 53 48 52 54 55 53 54 54 59 57 58 59 61 61 60 59 60 61 60 61 62 64
37 42 44 46 44 43 39 34 32 31 29 27 24 27 26 27 27 30 34 37 35 31 32 32 41 49 49 50 53 51 51 55 58 60 56 61 62 63 63 64 66 66 65 65 66 66 67 70 70
36 39 37 36 36 33 28 25 22 22 24 24 25 26 29 27 29 31 37 32 34 33 34 39 44 50 47 45 51 58 60 60 58 60 62 65 67 68 67 68 69 69 72 74 75 75 77 78 81
26 24 24 25 24 24 22 20 23 23 22 24 26 30 33 31 31 34 36 38 37 39 43 44 45 50 52 54 58 60 62 63 64 66 68 68 67 69 74 75 75 78 80 82 85 87 87 86 89
22 22 22 23 24 25 24 25 24 24 25 27 31 35 35 36 37 36 38 40 40 44 48 49 49 51 57 60 61 64 66 68 69 71 72 68 74 78 81 82 84 88 91 94 96 96 98 97 97
21 21 22 23 24 22 27 28 23 28 29 31 35 38 38 37 41 39 42 44 46 50 52 53 53 56 64 65 63 66 70 72 74 74 74 78 83 86 89 93 94 96 98 102 104 107 109 110 109
22 22 22 22 24 25 28 34 20 27 29 35 38 38 40 39 37 38 42 44 48 52 55 56 57 62 66 67 69 71 71 72 76 79 81 84 90 94 97 98 103 104 106 110 114 114 117 120 120
23 23 24 25 27 30 32 37 26 30 28 32 38 37 38 38 40 42 45 46 51 55 56 60 65 67 68 70 73 75 78 83 86 89 91 94 98 101 105 109 112 116 117 120 121 124 125 127 130
22 24 25 28 30 34 35 39 25 35 37 27 33 35 41 42 44 48 50 50 50 55 60 65 69 72 74 73 75 81 85 89 92 94 98 102 104 110 115 118 122 124 126 128 129 133 135 133 130
10 14 17 22 26 28 35 39 29 34 41 36 36 36 38 45 49 50 49 51 54 57 60 64 71 75 77 80 81 84 89 94 98 102 107 109 114 119 122 125 130 132 132 133 134 133 127 120 113
9 9 12 15 19 23 28 29 25 33 38 40 40 41 42 44 46 51 53 53 58 59 63 69 73 79 83 86 90 93 97 101 106 110 116 120 124 128 132 134 137 135 132 130 125 120 113 111 110
15 17 19 21 23 26 27 28 25 28 29 33 42 44 46 45 48 51 54 57 60 62 69 76 80 83 88 92 97 100 103 109 114 122 127 130 131 134 137 137 134 128 122 117 114 112 109 105 103
17 21 24 24 27 29 32 39 37 36 37 39 41 44 45 50 49 52 57 62 64 70 77 82 86 87 92 96 100 107 113 120 125 131 133 131 133 137 133 125 119 114 111 109 107 105 103 100 94
17 19 23 27 30 32 36 42 41 42 43 43 45 48 53 54 55 59 63 66 71 76 82 84 88 92 98 103 109 118 123 128 132 133 135 133 133 128 124 120 118 116 114 111 106 103 98 90 85

GFSSGP_250_spd_009.txt.gz
Wind_Speed
81 79 77 77 79 83 79 77 77 78 80 84 80 79 78 79 80 78 79 82 85 85 87 91 93 93 94 98 102 109 110 110 108 114 114 114 103 95 99 98 90 60 49 41 36 36 36 35 31
85 83 84 84 84 86 81 77 72 72 78 85 81 76 78 80 84 83 83 85 89 89 91 91 93 96 100 104 108 110 113 111 110 110 101 98 94 95 80 64 44 30 26 19 22 22 21 18 16
87 91 86 87 88 88 86 85 74 75 77 79 79 73 78 82 86 84 82 88 88 87 89 93 96 101 106 108 110 113 114 113 104 98 92 87 83 68 49 37 27 16 17 20 25 23 24 25 24
87 88 86 91 82 81 85 77 85 79 80 80 78 73 75 80 80 78 79 86 88 90 95 99 101 105 106 108 110 114 112 102 92 85 79 73 62 39 29 21 19 22 23 25 26 24 22 21 21
87 90 92 91 90 92 74 83 81 83 91 80 78 79 85 87 88 91 90 93 94 94 96 101 105 105 104 108 111 109 106 90 85 70 64 49 38 26 23 25 25 27 28 28 28 28 25 25 24
86 86 92 92 87 82 80 81 88 82 80 80 72 76 81 85 92 89 92 92 94 98 102 103 101 103 103 106 108 98 92 71 63 53 42 36 27 27 26 27 29 30 33 34 32 27 24 25 26
89 89 86 83 84 81 84 84 85 88 87 85 83 87 87 89 88 90 93 94 97 100 99 98 98 101 103 99 83 70 67 56 47 37 33 28 30 28 30 32 33 34 37 37 33 28 27 27 26
102 89 88 87 84 77 80 80 81 79 79 82 78 85 94 93 93 96 94 96 96 96 95 98 102 100 96 77 67 55 46 40 35 32 31 33 33 33 34 37 40 41 41 40 36 33 32 29 29
101 102 91 87 84 82 79 75 79 79 75 77 79 85 90 91 90 91 91 89 92 94 98 99 99 88 77 67 56 49 42 36 35 37 39 40 41 42 44 44 45 46 46 44 40 35 33 31 28
82 90 86 80 80 82 86 76 74 73 77 74 82 83 88 90 90 89 89 93 93 93 93 90 77 70 59 54 48 44 42 36 39 38 42 46 49 51 55 48 48 46 46 45 41 40 35 33 31
77 82 82 84 81 78 82 83 80 80 82 83 85 88 90 89 89 90 87 87 88 86 78 66 57 51 57 46 44 38 40 42 44 44 48 48 52 53 55 52 49 49 49 46 44 39 38 37 34
73 79 87 93 89 85 88 90 87 87 86 84 89 91 92 89 85 87 90 90 87 80 69 52 54 50 44 42 47 46 47 48 50 51 51 54 56 58 56 51 49 48 47 46 44 44 45 43 40
73 77 78 75 74 79 79 82 88 88 89 87 89 91 86 84 84 84 85 85 76 56 50 48 36 37 44 45 49 46 43 47 49 54 57 59 58 55 54 53 50 47 49 50 50 50 50 47 45
69 71 73 73 77 76 76 81 84 87 89 85 84 85 84 80 79 79 69 62 58 41 30 20 29 41 45 43 38 45 51 51 55 54 56 54 54 55 55 52 51 52 53 53 53 51 52 50 49
67 72 71 71 76 83 87 84 86 87 82 83 85 81 73 73 68 63 62 51 42 35 27 12 28 42 41 46 40 49 59 60 51 47 52 57 54 52 55 55 57 56 56 56 57 56 54 52 51
59 64 70 70 72 73 74 74 75 72 74 75 74 78 75 77 62 46 45 39 34 32 30 24 35 44 58 56 52 56 58 54 56 55 52 55 59 62 62 60 60 62 62 60 59 59 57 57 57
48 53 58 60 63 63 63 63 61 59 59 60 59 57 57 52 35 33 42 40 34 32 33 28 40 49 52 52 52 56 59 57 57 54 58 61 59 61 62 64 67 67 65 64 64 64 65 65 66
42 43 43 49 51 51 50 47 50 48 48 49 49 45 42 36 34 32 37 40 36 32 26 25 35 43 44 49 57 60 60 56 56 62 64 64 64 66 69 70 69 70 68 66 69 71 73 72 72
37 38 36 38 35 37 37 36 42 40 40 41 41 41 38 34 32 32 34 37 34 31 34 35 40 44 47 51 58 61 58 59 61 66 66 65 66 68 71 75 76 74 74 76 79 79 80 82 83
26 27 28 30 32 34 36 34 40 38 35 34 37 36 35 35 33 31 31 35 35 39 43 40 46 51 54 57 60 60 63 65 69 70 70 71 73 75 74 76 79 80 81 85 87 88 87 89 94
27 27 26 29 30 30 33 30 28 33 33 31 34 36 34 34 33 33 37 39 34 41 45 49 52 54 56 59 59 62 66 68 70 73 75 78 81 82 85 87 87 88 89 92 95 98 100 101 104
19 19 22 24 26 28 32 26 28 30 32 30 36 36 36 35 36 41 41 38 42 45 48 51 54 59 60 56 60 64 67 70 75 77 80 82 85 89 93 96 98 100 101 103 105 108 112 114 115
19 19 22 24 26 29 34 27 27 25 24 30 40 35 39 35 33 36 41 47 50 51 53 56 59 62 61 61 64 67 72 76 80 83 85 88 92 96 100 103 105 109 113 117 119 121 124 123 123
21 22 22 22 25 28 31 35 29 21 24 26 33 41 46 45 40 35 37 44 52 56 58 58 58 60 63 67 69 72 80 85 88 91 93 96 100 106 110 112 114 118 122 124 125 125 124 123 122
13 15 20 23 25 27 31 34 28 30 30 30 33 34 37 37 39 39 40 43 49 53 57 60 62 65 68 70 71 78 84 88 91 94 97 102 108 112 115 122 126 129 132 129 129 127 124 119 116
4 7 9 12 17 22 23 25 28 29 28 28 31 33 34 40 43 42 42 45 46 50 54 56 61 67 73 78 83 88 93 97 101 106 108 111 115 122 128 128 131 134 132 129 125 121 115 109 105
9 10 12 15 18 21 18 22 23 27 29 31 33 34 36 40 45 46 48 49 53 54 57 62 67 72 78 83 89 94 99 102 106 112 116 119 121 129 132 135 135 132 128 124 118 113 110 108 105
11 13 15 18 21 27 27 26 32 31 35 36 38 41 43 43 44 49 52 54 56 58 63 68 74 79 84 87 92 98 103 106 111 117 123 125 129 135 136 138 132 126 120 116 111 109 107 104 101
12 16 15 16 20 26 35 29 32 36 37 39 41 45 49 50 50 51 55 58 60 64 68 73 77 81 86 92 98 102 108 113 119 125 130 132 137 138 132 128 124 119 115 111 108 105 102 96 90
15 17 18 23 26 30 36 39 37 39 38 41 44 47 49 51 54 56 56 59 63 67 72 77 82 87 93 97 103 110 114 120 124 132 135 137 138 129 124 123 118 114 110 106 101 97 93 87 81

GFSSGP_250_spd_012.txt.gz
Wind_Speed
86 89 88 86 85 89 85 84 82 84 81 76 75 73 76 80 79 80 80 82 83 83 84 86 87 89 88 87 91 94 97 100 101 106 108 105 110 111 108 101 90 78 77 54 30 29 26 29 27
90 87 88 89 81 81 80 82 82 80 78 78 81 78 79 78 77 80 81 82 82 82 84 85 84 83 86 91 96 98 101 103 107 108 106 107 110 104 92 74 74 60 48 30 26 29 28 27 24
86 91 89 90 82 83 71 79 81 81 76 79 85 84 87 82 78 80 80 79 78 79 81 82 84 89 93 96 99 99 101 104 103 105 108 111 100 85 67 60 49 37 33 29 29 32 32 29 26
86 84 88 90 82 87 85 88 81 78 72 72 74 78 89 86 86 85 84 82 82 84 85 90 95 97 93 94 99 103 102 99 100 105 110 95 79 67 57 47 38 34 33 34 33 35 36 35 32
93 97 89 83 85 86 85 88 79 75 75 71 74 77 71 67 69 77 79 81 85 84 86 88 89 89 94 99 99 100 101 102 104 106 91 70 58 52 44 41 37 35 35 35 37 40 40 38 37
97 99 94 90 86 88 85 85 85 81 77 73 75 85 78 81 83 82 80 77 77 79 84 86 91 94 98 94 94 99 101 100 102 83 65 55 49 43 39 37 37 37 36 39 42 44 46 44 40
92 95 84 81 81 85 85 84 84 81 82 78 80 86 83 83 79 75 76 80 82 86 88 94 94 93 94 98 98 99 96 90 73 56 53 50 42 37 37 37 40 43 44 45 48 49 50 47 40
83 99 96 84 78 86 86 89 85 82 77 79 85 85 82 77 80 84 81 84 86 89 93 94 96 97 97 97 94 90 84 63 50 54 45 45 42 43 44 45 45 50 53 51 52 52 50 46 41
77 82 103 92 82 84 84 85 84 84 88 91 92 90 86 85 86 85 87 88 90 92 92 94 94 93 94 92 88 79 57 55 51 44 46 46 44 44 45 48 46 48 52 52 49 47 46 43 42
70 74 80 89 90 90 85 86 81 84 86 87 85 88 88 85 84 87 89 87 89 90 90 91 91 90 91 82 70 54 48 46 46 44 48 48 48 49 51 52 51 54 55 52 45 44 42 41 41
65 64 68 73 79 79 81 83 86 86 84 82 84 86 87 86 83 81 83 85 91 92 88 91 89 83 85 68 52 47 47 46 47 45 51 50 50 51 55 55 56 53 50 48 49 44 43 44 44
58 61 66 72 68 71 78 83 82 80 82 80 79 79 81 80 81 82 84 85 86 91 86 84 75 70 55 51 45 43 46 52 49 47 44 45 50 55 54 49 48 49 49 49 48 47 49 49 49
57 61 62 66 67 66 72 72 74 72 77 76 74 75 80 81 84 80 82 82 78 74 72 59 60 59 43 42 45 45 45 50 47 45 48 52 56 56 51 49 48 48 48 48 50 52 51 50 52
57 59 61 63 66 68 69 72 73 68 70 73 74 78 79 80 80 80 83 83 79 69 66 60 52 47 46 46 48 48 46 46 48 53 55 58 60 60 60 50 49 55 54 52 53 53 54 57 57
52 56 60 63 66 67 70 72 72 73 72 75 72 75 75 81 77 81 82 78 75 66 53 55 48 48 51 54 53 51 47 52 52 57 57 56 62 60 53 56 57 58 57 58 56 57 59 59 60
45 49 52 58 66 70 72 75 73 74 73 75 80 83 82 82 83 80 74 63 56 45 40 41 44 50 51 56 59 61 60 58 55 60 59 62 61 59 59 62 64 65 63 61 62 62 63 63 63
42 44 45 49 56 61 65 72 74 75 70 70 70 69 66 65 63 59 54 50 43 47 43 35 40 53 56 58 62 62 59 56 59 61 63 63 61 62 63 67 68 67 69 71 70 69 67 67 68
38 42 47 49 48 50 53 60 64 65 61 58 59 57 49 45 44 41 37 43 46 43 35 37 46 53 54 50 55 58 58 60 63 66 68 65 65 65 68 70 71 71 72 75 76 76 76 76 77
35 40 46 44 47 46 45 48 50 45 45 40 40 42 40 40 40 39 41 45 44 40 37 46 50 51 52 53 56 58 61 64 67 68 66 65 67 69 71 74 76 78 80 82 83 82 84 86 85
33 36 39 35 36 34 31 35 38 34 36 36 36 39 39 40 41 39 42 46 40 43 46 51 50 48 52 55 58 62 65 68 72 69 66 70 73 76 79 82 85 87 88 88 89 91 92 93 95
20 24 31 29 33 32 31 33 34 33 31 32 36 39 42 40 40 41 43 41 39 42 45 46 49 53 54 57 61 65 70 70 69 72 75 78 81 84 87 91 92 92 92 93 95 98 101 103 105
22 27 28 28 28 27 26 24 25 26 28 31 33 35 38 37 38 38 39 40 41 41 44 49 53 56 58 62 65 65 67 69 71 74 80 83 87 90 95 98 99 102 104 106 108 110 114 117 117
18 19 20 21 24 26 24 22 23 27 29 29 33 36 40 41 44 45 43 43 43 46 49 53 54 57 59 60 61 63 66 69 74 80 86 92 95 98 102 106 108 110 114 117 119 122 125 127 126
17 18 21 23 25 24 21 20 19 26 30 32 36 37 37 40 42 44 47 49 49 51 52 53 55 58 59 62 64 66 71 76 81 86 91 95 100 103 108 112 114 118 123 128 131 132 133 132 131
12 13 14 16 18 13 16 13 13 16 22 26 27 28 28 30 33 36 39 43 48 54 56 56 56 59 63 65 69 72 77 81 85 91 96 101 106 110 115 119 123 127 133 136 134 134 132 129 125
1 1 2 5 6 7 10 14 16 17 18 20 24 29 34 35 39 40 39 45 48 52 56 58 61 65 69 73 76 80 83 87 92 97 102 107 113 119 122 124 129 134 134 132 130 128 124 120 114
3 5 7 9 11 12 13 16 18 20 24 26 29 34 36 39 42 42 44 47 52 55 58 61 65 68 70 74 78 82 87 93 98 104 110 116 121 126 128 130 131 132 129 129 126 120 115 109 103
4 6 8 11 13 13 15 17 20 23 26 28 30 34 36 37 43 46 46 47 50 55 58 62 65 68 73 78 82 88 93 99 107 112 115 120 125 129 132 130 129 128 129 127 119 113 110 104 97
9 12 15 18 22 23 22 25 28 29 34 37 38 39 41 41 42 46 49 52 56 59 61 64 67 72 78 82 88 95 102 107 112 116 121 124 129 130 129 125 124 121 119 115 108 103 96 93 90
15 16 19 20 24 29 31 32 36 38 39 40 43 44 45 46 47 48 50 53 55 57 62 66 70 77 82 88 95 100 107 112 115 121 125 129 128 123 123 122 117 113 108 102 98 92 89 85 81

GFSSGP_250_spd_015.txt.gz
Wind_Speed
93 95 93 89 85 88 88 87 85 84 85 85 83 84 86 85 86 84 81 81 82 80 81 84 86 87 87 89 93 88 89 90 92 101 102 103 105 104 101 105 105 105 99 81 73 68 49 41 43
91 95 95 92 88 88 87 82 85 84 81 79 83 84 85 86 86 85 85 85 84 85 83 83 83 88 91 91 90 93 96 96 101 99 102 106 102 103 105 106 101 95 75 67 60 51 42 38 37
90 92 93 96 96 89 85 80 78 79 81 78 82 84 86 88 91 89 88 86 85 86 86 87 90 91 92 92 95 98 99 98 96 103 103 101 102 103 105 102 90 73 65 56 50 45 43 42 41
84 87 90 97 96 92 84 83 78 73 56 62 71 83 89 89 88 90 86 86 85 86 92 92 92 90 87 91 92 93 92 96 100 101 102 99 103 98 100 80 64 60 56 49 44 44 44 44 42
81 80 85 90 92 93 87 79 80 79 78 79 83 79 87 88 88 88 89 90 87 89 88 89 84 86 95 93 88 91 95 96 98 99 101 99 99 96 82 62 56 50 47 46 45 44 44 48 49
73 76 78 85 88 91 91 82 81 79 81 80 79 72 72 71 66 70 73 76 80 81 82 82 88 84 84 88 92 93 95 98 97 100 98 95 90 77 66 53 49 45 45 45 48 51 52 52 53
67 72 73 77 76 88 93 80 77 81 86 87 85 80 78 74 71 74 75 78 85 90 88 93 89 88 94 92 89 93 93 93 98 94 91 85 71 60 49 48 47 47 48 48 49 54 55 54 55
64 68 71 75 76 79 77 85 82 81 82 86 87 83 80 83 84 88 89 88 88 87 85 87 86 89 89 95 93 93 95 94 96 93 78 68 54 55 46 48 45 44 46 51 54 53 56 55 49
62 64 69 70 71 73 68 74 75 80 78 80 81 84 83 83 86 89 87 85 86 85 84 87 88 91 90 89 92 95 95 93 85 77 67 62 52 53 50 51 49 47 46 53 56 53 50 48 46
55 57 61 64 72 73 67 73 71 73 80 85 86 85 85 87 87 88 88 88 86 87 90 93 91 87 89 91 89 84 88 79 71 64 61 56 55 56 54 52 45 49 50 51 48 47 47 46 45
52 55 59 60 63 66 78 68 71 71 76 74 77 80 83 82 85 86 87 88 85 85 83 82 87 89 90 88 75 75 73 67 61 64 56 56 54 52 51 47 51 53 53 56 52 51 50 47 47
49 51 57 61 64 68 70 73 75 79 75 78 79 79 85 82 84 83 83 87 79 82 85 87 86 83 87 80 81 71 59 59 61 57 58 54 53 50 53 53 57 61 61 61 51 47 52 55 52
46 50 51 57 63 61 66 71 71 70 69 64 65 67 73 83 76 70 76 78 77 81 79 83 91 88 84 83 74 68 61 59 57 60 59 59 57 55 59 60 59 58 61 60 53 53 54 56 57
45 47 50 54 55 58 61 63 62 67 67 67 64 62 65 66 70 74 75 76 79 81 80 81 81 85 70 63 56 57 57 57 58 62 62 59 59 63 64 62 61 59 59 59 56 56 57 58 59
39 43 49 49 49 51 56 59 65 71 73 66 57 61 66 68 69 68 73 79 83 79 80 75 70 65 54 53 55 56 57 61 61 64 64 64 69 72 71 70 67 64 61 60 60 61 61 60 61
37 37 40 42 49 51 56 57 57 59 64 64 65 65 68 72 76 77 75 76 76 79 67 56 49 45 48 49 42 49 55 56 63 66 68 68 67 67 67 72 71 69 62 63 64 64 64 64 65
36 36 38 42 47 49 49 53 60 65 64 66 70 71 73 74 75 77 70 64 56 53 45 36 43 37 51 49 55 68 73 68 65 63 64 65 66 68 71 73 74 72 69 70 71 72 71 71 72
36 38 41 45 41 40 44 45 48 52 57 58 58 59 61 63 62 58 49 47 45 45 40 36 43 45 54 56 64 69 73 68 71 68 67 69 70 71 74 76 74 73 74 75 77 78 80 81 82
36 37 36 36 35 39 42 42 43 43 46 47 47 46 45 44 45 46 45 43 41 48 35 40 46 55 59 61 65 68 74 77 74 71 72 74 75 76 76 75 76 76 77 80 81 82 85 89 91
32 31 30 29 30 34 37 39 39 36 34 36 36 39 42 43 44 45 46 45 42 39 45 49 54 57 59 64 69 72 72 73 73 75 77 77 76 77 79 79 79 81 84 88 89 91 92 95 98
24 25 26 25 27 29 27 28 30 31 33 36 37 36 37 37 39 41 43 46 47 50 54 56 56 56 58 58 62 66 69 72 74 74 75 77 80 81 82 85 89 91 93 96 100 102 104 105 108
23 25 24 21 22 23 23 28 29 29 29 30 31 30 32 33 35 38 43 46 46 47 46 49 52 53 54 58 62 65 69 72 73 75 79 80 81 86 90 93 96 100 104 109 112 114 117 117 118
21 21 23 23 18 18 17 18 21 22 24 27 30 34 35 38 40 44 45 46 45 46 48 50 51 54 58 61 65 68 70 72 77 79 82 84 87 91 97 101 106 110 111 115 118 120 120 121 122
17 18 19 20 19 17 17 15 19 21 24 26 28 31 33 34 35 36 38 39 39 40 47 51 53 56 60 62 65 69 72 74 77 79 83 88 94 98 103 109 113 116 119 122 123 124 125 124 123
13 12 10 6 5 4 4 7 10 12 15 18 23 27 30 33 36 39 42 41 42 47 50 53 55 58 61 64 67 70 73 76 80 85 91 94 98 102 108 113 116 121 124 125 125 124 123 123 122
5 3 2 1 3 5 6 9 11 13 16 20 25 28 33 37 40 44 46 49 49 51 52 54 56 59 62 66 69 72 75 79 83 88 94 99 105 109 115 120 124 125 125 125 123 123 122 121 120
6 3 1 3 6 9 11 14 16 18 22 26 28 30 32 36 40 43 45 47 49 52 55 58 61 63 65 68 70 75 78 83 87 93 99 106 111 115 119 124 127 127 124 123 120 121 119 117 113
1 4 4 7 10 14 16 19 22 24 26 29 32 35 37 39 42 45 47 49 51 54 57 60 62 64 66 68 72 77 82 88 93 101 107 112 118 122 125 126 125 126 122 121 119 114 110 102 98
5 8 9 12 15 19 20 22 25 29 32 35 37 39 40 42 44 47 48 51 54 56 57 59 61 64 66 71 75 81 87 93 99 106 111 117 122 123 126 125 121 119 117 117 111 105 101 94 89
8 11 14 16 18 21 24 28 29 32 36 40 43 45 47 48 50 50 51 52 55 57 59 61 62 65 70 76 82 88 94 101 107 114 120 125 125 126 124 118 116 114 111 108 102 97 91 85 80

GFSSGP_250_spd_018.txt.gz
Wind_Speed
102 98 95 95 94 92 87 84 85 82 85 83 82 83 82 84 82 82 84 87 86 89 89 87 87 89 90 88 92 92 94 93 93 97 99 99 101 96 95 98 100 98 97 100 99 92 80 68 60
99 102 96 96 96 90 86 88 88 80 77 81 80 84 83 82 86 84 83 90 86 88 87 91 91 91 89 92 97 94 91 96 97 95 98 102 100 95 96 99 98 98 97 97 93 80 69 54 52
97 96 96 94 91 86 87 91 86 82 81 80 77 77 75 79 80 83 87 89 86 84 92 90 87 91 96 95 94 98 96 97 97 98 103 97 96 95 99 100 99 99 99 90 81 69 62 51 50
92 90 91 93 89 82 86 89 86 90 87 78 80 80 77 73 79 82 83 84 80 81 83 88 89 90 91 94 98 98 93 94 97 99 98 93 95 99 102 101 97 94 95 82 69 63 57 48 45
80 82 81 85 87 79 83 85 88 88 89 82 79 82 80 71 72 79 84 85 87 87 87 91 88 88 91 94 92 88 91 92 94 93 93 95 102 102 98 98 95 92 80 66 59 55 51 46 46
77 79 76 74 78 77 77 80 83 91 94 88 83 79 79 81 78 78 83 85 86 81 85 83 80 91 87 86 88 91 88 91 92 93 99 96 99 99 98 92 91 79 68 59 51 50 48 45 49
66 67 66 68 71 73 74 79 79 84 89 89 85 75 72 74 79 77 79 77 72 70 77 75 78 76 82 85 88 85 90 93 95 98 93 95 101 91 92 82 74 68 63 57 52 51 47 47 51
58 61 60 63 67 66 70 74 75 80 85 90 76 70 77 78 76 74 75 72 68 67 74 80 86 87 87 92 90 89 94 93 85 88 98 94 92 86 81 74 73 66 60 56 54 47 49 51 50
52 54 55 57 61 64 65 69 72 75 78 83 89 83 76 76 78 80 79 78 82 84 86 86 87 88 89 89 89 89 89 93 94 95 92 85 83 76 68 69 65 59 56 55 48 50 51 53 55
47 47 49 52 57 63 63 65 66 63 64 67 78 72 76 76 75 74 78 82 81 84 87 90 88 90 93 92 93 89 84 93 94 86 76 78 74 69 61 67 66 58 59 52 57 50 56 55 53
41 43 46 48 54 57 61 64 61 52 65 61 61 62 75 78 79 80 78 79 83 85 85 85 86 82 86 89 88 87 92 81 77 74 71 70 66 67 68 64 64 63 60 56 55 57 53 58 58
38 39 43 45 47 49 57 60 66 65 66 62 63 67 70 67 72 79 84 81 78 81 85 83 86 87 80 83 84 81 85 77 67 66 64 64 63 64 63 63 64 64 60 63 63 60 63 61 59
34 37 39 43 46 45 52 54 59 63 67 66 66 69 73 73 77 81 82 79 77 73 79 84 84 83 84 79 73 64 65 61 65 63 60 59 65 69 67 69 68 67 68 68 69 72 69 69 64
32 34 37 43 45 45 49 54 53 54 62 65 64 62 64 62 66 65 65 69 73 76 75 75 72 77 77 79 67 61 54 58 63 65 62 61 65 63 65 67 69 68 65 66 66 65 69 70 69
29 29 31 33 38 42 45 46 50 53 57 57 58 58 55 61 62 67 69 69 71 75 76 79 82 81 77 72 58 59 59 63 71 70 69 59 63 68 70 69 71 72 71 68 68 70 71 72 71
30 29 29 29 36 40 46 46 48 50 48 50 49 56 61 63 68 69 69 72 70 73 75 77 77 70 58 50 48 48 55 58 59 66 68 65 71 74 73 75 77 74 72 71 72 75 76 75 71
25 24 29 29 30 35 38 41 43 47 47 50 54 58 60 63 64 66 67 70 73 73 69 59 52 44 40 50 37 43 67 67 76 75 75 75 77 77 78 81 79 76 78 80 80 80 78 76 75
23 28 31 33 35 37 38 40 40 43 45 47 49 51 53 57 59 61 60 56 53 52 50 43 40 35 33 62 57 70 70 69 71 75 76 76 84 85 83 79 79 80 82 82 81 81 80 80 79
29 28 29 32 35 36 38 41 41 41 43 44 45 46 47 49 48 44 45 43 45 46 45 39 45 49 53 59 70 68 68 72 76 77 79 84 84 81 80 81 81 82 81 83 84 85 87 89 91
30 28 30 32 33 33 33 35 37 37 38 39 39 40 40 38 37 37 37 40 42 32 34 40 45 51 56 60 64 70 74 77 78 78 81 81 80 81 82 83 83 85 88 87 88 89 90 94 96
22 22 26 29 29 26 26 28 30 32 33 32 32 32 33 34 33 33 33 36 40 44 47 52 56 59 61 66 67 67 69 70 73 75 76 78 81 82 84 86 88 90 92 91 92 96 98 101 105
21 19 19 19 18 20 22 23 24 27 29 29 29 27 27 29 31 35 37 39 41 44 50 53 54 56 60 63 64 65 67 69 71 74 76 79 81 84 87 89 92 93 95 98 102 106 109 112 115
18 18 16 15 15 15 17 17 20 22 24 23 24 28 30 31 30 30 32 32 35 38 41 44 48 52 56 58 61 64 67 70 73 75 77 80 83 85 86 89 93 98 103 107 111 113 117 120 123
12 12 12 10 11 15 21 22 25 22 21 22 23 22 21 24 27 30 33 35 38 41 45 49 51 53 56 59 62 64 67 69 72 75 77 78 81 85 90 95 100 104 108 113 116 120 126 128 128
9 9 11 13 12 15 18 19 19 16 16 18 20 23 26 28 30 33 36 39 42 45 49 53 55 57 60 61 62 64 67 70 72 73 77 82 87 91 96 101 107 113 118 122 121 124 126 122 122
11 10 9 8 7 6 6 9 12 15 18 20 24 26 29 32 35 39 41 44 46 48 50 52 55 58 59 60 62 64 67 70 73 77 82 87 92 98 104 110 117 120 122 122 124 124 120 118 118
12 9 6 5 5 5 7 10 13 17 21 25 29 32 35 38 40 43 45 47 50 52 54 56 57 57 59 62 65 68 70 72 76 81 87 93 101 107 112 114 116 119 121 120 119 118 116 113 112
8 4 3 5 7 11 14 17 21 25 26 27 30 33 37 40 45 48 51 54 56 57 59 61 60 60 63 65 65 67 69 74 80 87 94 102 108 108 111 114 115 116 117 116 114 110 108 107 103
3 4 6 8 10 13 16 17 19 23 26 30 36 40 43 46 48 51 51 53 56 58 59 58 58 59 61 63 66 70 75 81 87 93 100 107 111 114 114 115 115 115 115 112 108 103 99 95 92
6 7 9 11 14 16 20 20 24 27 32 36 40 44 46 48 50 50 51 52 54 56 57 57 59 60 63 67 71 77 82 87 95 101 107 113 116 118 118 118 114 112 110 106 99 95 91 88 85

GFSSGP_250_spd_021.txt.gz
Wind_Speed
104 102 99 100 98 97 96 95 87 86 85 83 81 80 80 79 77 77 81 82 83 87 88 86 88 86 86 89 89 90 91 92 93 88 95 91 92 94 89 90 95 88 86 95 96 98 93 87 87
106 103 103 103 101 96 94 92 89 87 83 84 82 77 75 80 80 77 80 81 83 86 87 86 84 86 87 86 91 93 92 92 92 95 89 91 91 86 91 92 89 90 97 95 98 95 86 85 77
105 103 103 102 100 96 91 89 90 85 80 82 81 77 75 77 80 81 78 77 79 84 85 84 89 84 84 84 89 92 90 91 94 85 89 92 86 90 91 87 91 95 98 99 93 84 81 75 69
95 101 100 99 96 94 92 90 86 81 82 79 82 81 78 76 72 64 74 78 82 79 75 79 81 81 87 92 97 95 90 86 83 88 95 85 90 90 86 92 93 92 96 93 88 83 80 70 64
80 86 93 94 92 90 86 88 81 74 78 77 82 78 83 85 84 77 66 61 68 68 66 75 79 77 83 82 82 84 83 82 88 91 84 90 90 88 96 97 98 97 101 87 87 74 69 62 53
66 73 79 79 80 80 80 79 75 70 75 77 78 81 82 88 81 80 76 75 74 71 75 72 68 68 74 79 82 82 88 83 82 89 90 93 96 94 96 100 95 93 88 82 74 66 63 54 53
54 59 66 68 67 70 64 62 65 66 69 73 68 59 73 81 67 80 80 77 76 81 81 80 81 79 75 75 84 81 78 91 88 91 91 94 96 100 99 90 94 85 82 73 69 61 62 56 55
48 52 55 56 58 55 52 56 58 64 69 71 71 55 69 65 73 65 81 81 76 78 88 84 78 78 78 73 78 87 84 86 93 91 90 96 92 85 88 91 80 78 74 70 63 59 56 55 56
42 44 47 48 49 51 52 58 63 65 69 71 71 71 48 58 68 73 73 67 71 74 71 73 78 77 76 74 78 82 87 87 90 84 90 90 87 85 79 75 77 69 68 69 61 61 58 58 53
38 39 41 44 47 48 52 57 62 66 69 70 70 69 66 55 52 58 65 74 77 79 77 71 71 69 68 73 77 87 88 88 86 92 90 76 81 82 71 72 72 69 67 62 59 59 61 59 57
32 32 35 40 40 42 45 50 55 61 64 67 70 68 71 80 67 67 59 68 61 68 74 69 68 74 79 88 87 85 91 91 92 88 80 77 77 77 75 71 67 66 64 61 60 58 58 58 56
24 27 31 34 36 39 43 44 47 55 56 58 55 55 49 50 57 62 74 67 67 66 62 65 70 79 82 86 91 85 85 90 85 87 81 78 78 73 68 64 65 64 65 61 61 61 60 62 64
25 27 27 32 31 35 38 38 43 50 52 55 56 57 58 59 60 58 58 59 62 65 68 71 76 76 75 80 83 87 84 84 85 84 78 74 72 68 64 64 63 63 62 64 67 65 68 70 69
23 25 26 27 29 33 36 35 33 37 44 45 50 55 62 63 65 66 65 70 70 73 70 74 74 72 74 79 80 82 81 79 79 75 69 71 70 69 66 67 70 69 69 71 72 72 71 71 71
25 25 26 27 25 26 31 35 35 33 37 41 39 47 56 57 63 65 66 67 68 66 66 68 69 71 76 77 73 72 63 64 66 64 61 72 73 69 73 74 76 77 77 75 79 74 74 73 73
23 23 21 20 20 21 24 29 33 35 38 41 42 43 48 53 56 59 61 61 60 62 63 64 66 67 68 64 59 51 52 59 59 63 63 69 71 72 78 84 79 82 84 86 84 81 77 76 75
26 24 22 21 23 23 23 25 29 33 37 38 41 46 49 49 50 52 53 58 60 61 60 60 56 50 51 48 36 47 53 58 59 62 67 68 73 84 90 87 85 87 89 89 89 83 79 79 78
19 24 25 26 27 28 27 26 28 32 36 38 40 41 43 43 45 46 48 48 47 47 49 47 44 43 25 51 47 55 56 58 61 65 67 73 84 88 95 92 94 92 88 87 83 84 83 83 83
21 23 24 26 26 28 30 31 33 35 38 39 40 39 39 42 43 44 46 46 45 43 42 40 37 41 40 52 53 57 63 70 73 76 81 85 89 93 95 94 90 88 85 86 86 87 88 89 89
25 26 24 26 27 27 29 31 33 34 36 37 38 38 37 38 39 40 39 38 39 38 40 40 40 44 45 54 58 61 65 69 74 79 84 86 88 88 88 85 85 88 89 89 89 89 89 89 89
24 25 26 26 26 26 27 28 30 32 33 32 31 31 32 32 33 34 34 33 35 34 35 39 42 47 49 54 60 64 66 69 72 75 77 78 79 81 84 85 85 86 88 90 90 91 94 98 102
22 22 22 21 21 22 25 25 25 25 26 25 26 27 27 25 25 26 28 30 32 34 36 39 41 45 48 52 55 58 62 66 69 72 74 76 77 79 81 83 85 87 88 90 93 97 103 108 112
19 18 18 17 17 19 20 21 23 25 24 22 20 21 21 22 24 24 25 28 30 33 36 40 42 45 48 51 54 58 61 64 66 68 71 73 75 78 79 81 83 86 90 95 101 107 111 113 114
20 19 15 15 19 22 19 18 21 18 18 18 17 17 19 22 25 27 30 33 36 39 43 46 48 51 53 56 59 61 63 64 66 68 71 73 75 76 76 80 87 92 98 104 110 113 115 115 117
18 17 17 15 13 14 14 15 15 13 11 11 13 17 21 26 29 32 35 38 42 45 48 51 54 56 58 60 61 63 65 67 68 69 70 70 72 78 83 89 94 99 104 108 112 114 116 115 114
13 12 9 6 6 4 2 2 4 7 10 13 16 21 26 30 34 35 38 42 45 48 49 51 54 55 57 58 59 60 60 62 64 67 70 75 80 85 88 93 101 106 112 112 113 114 114 111 109
11 9 11 10 6 3 3 5 8 11 14 18 22 25 27 30 34 37 40 43 46 48 49 50 52 53 54 55 57 61 64 66 69 72 76 81 86 88 96 102 105 113 113 115 113 111 112 107 105
15 13 10 8 7 7 8 9 11 13 15 17 21 24 29 34 37 39 42 43 46 48 50 52 54 56 57 57 58 62 64 67 71 75 79 85 91 97 103 108 112 112 111 110 111 109 104 100 97
12 9 8 7 6 8 8 11 14 17 18 19 24 29 32 34 39 41 44 47 50 52 54 56 58 59 60 61 61 64 66 71 76 80 86 91 97 104 107 110 111 110 111 112 108 100 97 92 89
7 5 6 8 10 11 13 15 18 20 20 24 27 31 35 40 44 45 44 45 48 51 55 56 57 58 60 61 63 68 73 79 83 89 93 99 105 109 109 111 111 113 114 108 101 95 91 87 82

GFSSGP_250_spd_024.txt.gz
Wind_Speed
100 100 101 100 99 99 98 94 93 89 88 86 87 83 81 81 80 80 77 74 73 75 81 83 84 82 81 85 86 85 83 81 81 82 87 89 93 92 88 83 85 89 80 81 85 88 89 90 87
101 103 104 100 98 98 100 96 93 90 90 91 87 84 82 81 77 75 73 69 73 77 81 81 82 79 81 84 83 86 86 87 84 84 86 85 83 82 81 86 86 81 85 88 92 88 93 94 87
101 102 102 105 101 101 101 95 95 92 92 89 85 81 81 79 77 72 75 78 80 80 82 86 85 85 77 74 78 79 81 78 85 89 87 80 81 84 82 82 77 85 89 88 89 94 91 85 89
100 100 97 96 102 103 100 95 94 93 93 89 82 77 77 78 76 74 78 78 77 79 80 84 80 72 70 69 74 73 77 82 82 80 76 83 79 84 83 81 88 90 92 92 93 87 82 85 73
84 89 88 89 93 96 97 99 98 95 92 86 82 75 74 75 79 75 77 78 61 56 56 64 67 62 72 73 70 73 73 67 73 80 83 78 82 81 87 86 86 92 82 87 76 74 78 70 66
68 68 69 81 80 79 81 88 95 95 95 89 77 72 72 70 74 74 70 61 51 72 71 62 65 68 68 68 64 60 69 81 81 74 79 77 75 84 88 85 92 86 88 87 86 71 71 68 64
59 58 56 58 59 66 69 76 78 83 82 79 67 65 66 66 69 66 63 73 72 66 76 75 70 76 80 77 75 81 80 78 80 82 89 90 77 81 86 91 89 87 86 79 74 70 69 64 62
44 45 46 48 52 58 60 62 68 67 63 62 56 59 59 61 68 69 67 69 74 70 71 75 73 72 76 81 76 72 79 85 82 84 83 77 80 85 96 90 82 83 73 72 71 70 64 61 59
41 42 41 43 49 51 49 51 52 54 53 51 53 58 62 55 50 51 59 64 67 72 70 71 71 74 80 72 68 80 78 75 75 74 78 90 91 92 91 83 83 80 75 71 66 63 61 59 59
39 38 40 41 45 46 46 47 49 52 52 54 56 59 58 65 61 60 58 56 52 55 57 49 53 56 59 61 72 66 67 70 75 83 81 83 85 86 81 85 87 76 82 73 63 60 58 59 55
32 33 37 36 38 39 41 43 45 50 53 56 57 59 59 60 57 45 46 50 61 69 56 65 63 56 55 65 62 69 71 73 79 84 89 89 87 82 86 84 81 78 76 70 62 59 56 57 56
29 28 28 31 34 36 37 37 39 42 46 50 54 61 64 64 59 56 53 52 56 55 57 62 64 61 65 66 68 70 77 81 85 87 85 85 85 83 82 81 82 71 65 63 55 63 63 67 63
24 22 23 27 29 29 29 29 29 32 37 41 49 55 61 65 66 64 63 64 65 72 63 66 66 71 74 78 79 80 81 85 84 85 85 84 85 84 81 75 70 66 60 62 68 68 73 74 71
24 24 25 24 23 22 22 22 25 26 28 35 41 48 48 53 54 54 56 59 57 61 64 66 69 73 75 73 74 79 79 81 81 81 78 77 75 76 75 73 70 72 72 70 72 74 80 81 82
24 22 24 22 22 19 15 17 23 26 27 26 25 33 41 49 58 60 64 61 62 65 65 67 69 71 73 74 72 72 74 76 76 72 69 64 66 68 71 73 73 73 75 78 81 84 84 87 90
27 24 22 21 22 21 20 18 21 26 28 30 29 28 31 37 37 41 46 51 53 54 57 61 63 67 67 69 69 60 58 56 57 55 60 62 61 68 75 74 69 70 72 80 81 87 94 97 94
29 27 26 23 20 21 22 21 22 25 28 30 30 31 32 33 38 45 49 50 52 55 57 58 57 59 58 55 46 48 49 51 56 55 57 61 62 67 73 74 78 81 85 88 92 98 100 93 88
29 29 27 24 23 22 22 22 20 22 23 28 31 34 37 38 41 45 48 50 50 51 52 52 51 51 47 46 47 46 54 50 55 58 64 71 76 83 85 90 93 96 98 99 98 95 91 88 87
22 23 28 29 27 25 23 23 23 23 25 29 31 33 36 38 41 43 43 43 44 45 46 47 46 44 43 44 50 57 58 66 65 67 71 77 81 84 89 93 95 93 91 90 88 91 89 90 89
23 22 23 22 24 24 25 27 28 30 31 32 33 35 36 37 39 40 39 39 39 40 39 37 36 38 40 42 48 52 56 59 66 72 77 81 84 86 84 83 85 86 88 87 88 89 89 89 86
24 23 21 22 24 25 26 27 29 30 30 29 29 31 32 33 33 34 33 34 35 35 36 36 37 39 41 43 46 50 55 59 63 66 69 73 76 79 81 83 84 85 85 87 87 87 86 89 93
26 25 26 26 27 28 27 26 27 25 24 24 25 26 27 28 28 28 27 26 26 27 29 33 36 39 43 47 51 54 58 61 66 69 72 75 77 79 81 82 83 84 84 82 83 88 93 95 100
27 27 27 25 23 22 23 23 22 22 19 19 20 22 22 20 19 17 18 22 25 30 34 37 41 44 47 51 55 59 62 66 68 71 73 74 75 75 75 76 76 78 81 85 90 94 97 104 109
24 23 22 21 20 22 20 19 17 18 19 19 17 13 11 13 15 19 24 28 31 34 37 40 44 48 52 55 58 61 64 65 66 67 68 67 67 67 69 73 78 83 87 91 95 100 106 110 115
20 19 18 20 19 16 14 16 16 11 8 6 7 10 13 17 22 25 27 30 33 36 39 41 44 46 49 51 54 57 59 62 64 64 65 66 68 71 76 81 84 86 90 96 101 106 110 112 113
18 20 19 16 15 14 12 8 5 4 5 7 10 14 17 18 21 24 28 31 35 38 40 42 45 47 50 52 54 56 59 61 63 64 66 68 71 75 80 84 88 92 99 103 107 109 109 110 110
19 19 17 17 15 13 9 6 5 6 9 12 15 15 16 19 23 27 29 33 37 39 41 44 46 49 51 53 56 59 61 62 63 64 67 71 76 81 86 89 94 99 104 108 109 109 108 111 110
17 14 16 15 11 9 6 6 9 12 14 16 16 17 20 23 24 27 32 34 39 42 45 48 51 54 55 58 60 59 59 60 62 65 70 76 82 87 91 96 100 105 107 108 108 108 111 109 105
16 16 14 12 10 10 11 12 14 17 18 19 20 22 25 27 30 36 41 44 48 50 54 56 58 60 61 63 66 66 64 64 67 72 79 85 89 94 97 101 104 104 106 108 108 110 109 105 101
19 15 13 12 14 15 16 17 18 19 22 23 25 27 29 32 33 39 44 48 52 54 59 63 65 66 65 66 68 68 67 69 74 79 86 92 96 100 103 103 101 104 106 108 108 108 106 100 93

GFSSGP_250_spd_027.txt.gz
Wind_Speed
100 100 99 101 101 100 99 99 100 95 91 89 88 87 81 81 78 72 69 67 78 74 74 75 76 75 77 76 77 77 81 82 83 81 82 82 86 85 79 85 84 84 82 85 87 85 80 85 85
97 96 99 100 101 99 100 103 99 95 90 90 88 89 87 86 84 78 76 67 68 66 68 75 79 80 78 76 78 80 83 83 81 82 80 79 80 81 83 82 82 80 79 82 83 78 84 83 88
95 95 96 97 100 100 102 105 94 93 92 89 88 91 89 86 84 79 75 66 66 69 71 75 77 81 81 81 80 86 85 77 76 59 66 76 82 80 76 71 75 77 76 76 83 86 84 87 92
91 96 98 97 96 100 98 92 91 90 91 91 91 90 91 88 85 80 74 73 68 69 77 80 79 79 80 81 77 62 60 69 74 78 74 83 75 70 70 80 68 67 81 77 88 77 86 89 85
84 90 89 83 87 93 89 86 85 84 84 88 89 85 88 87 85 79 74 64 60 60 65 76 76 82 76 69 59 63 67 63 66 70 69 63 60 71 76 74 76 83 87 82 76 85 84 80 80
75 82 85 84 91 88 81 85 76 79 80 85 88 85 88 81 80 70 68 53 47 57 65 63 52 60 73 68 69 59 63 75 74 68 64 70 80 78 73 82 85 80 78 78 84 80 75 78 73
67 67 69 76 80 79 75 70 67 74 76 79 79 82 80 83 76 67 53 38 30 30 56 75 73 68 58 65 63 65 68 64 66 67 71 74 73 80 81 79 73 69 84 78 81 81 78 77 74
50 53 59 60 64 65 67 66 66 59 58 73 70 61 72 73 68 50 36 27 34 38 46 42 50 51 58 60 61 74 76 75 79 82 89 81 82 86 80 77 78 76 83 83 82 84 78 76 64
39 43 46 48 44 46 51 52 55 54 60 65 61 65 67 66 56 47 36 36 39 62 72 64 67 74 77 82 81 82 77 79 76 75 88 79 78 74 73 79 85 87 87 86 89 79 77 64 57
40 38 43 42 38 34 51 47 48 49 53 55 55 58 59 50 45 40 40 47 66 57 73 74 80 78 86 82 78 81 79 73 80 75 67 74 77 82 86 92 92 87 82 86 80 75 66 60 55
37 41 38 40 43 43 45 42 41 42 39 41 49 49 50 44 43 45 48 56 64 77 81 83 78 76 75 75 71 78 74 71 73 78 81 84 85 91 92 90 86 84 84 75 70 64 61 60 55
30 32 30 33 37 41 39 36 35 29 19 36 32 44 47 46 48 49 57 62 67 73 72 78 82 78 74 67 68 68 73 76 78 84 87 90 84 84 86 81 75 73 73 73 71 62 66 68 63
28 25 25 27 31 33 30 29 26 34 41 47 36 41 43 43 49 53 50 58 54 61 73 71 71 71 75 73 74 74 78 82 87 88 90 91 89 87 83 81 82 79 72 67 66 70 70 65 64
25 24 23 25 27 25 25 24 26 30 33 43 42 34 33 37 50 55 59 56 65 66 62 68 72 73 74 74 76 80 84 85 84 86 85 82 77 75 74 75 74 70 69 70 71 66 67 70 66
27 27 28 27 27 21 22 21 23 27 27 30 27 27 27 33 40 54 62 67 66 67 71 71 74 76 80 84 79 78 76 79 80 79 75 72 67 68 65 69 69 68 69 69 62 71 70 77 81
29 31 29 26 24 21 22 22 26 28 26 26 26 23 23 26 31 36 40 53 65 67 70 69 70 72 72 69 67 69 71 68 66 65 62 63 63 60 59 58 63 70 75 72 78 82 84 90 93
31 33 26 24 21 22 25 23 22 23 26 26 28 31 28 28 32 41 46 47 48 50 56 59 56 57 62 65 63 56 43 52 56 59 56 56 59 65 68 72 75 78 80 81 89 92 93 95 98
35 33 28 24 21 23 27 27 27 24 24 25 27 30 32 37 37 34 37 41 49 55 60 61 61 62 63 63 61 62 61 63 65 65 67 71 73 75 78 82 82 87 89 92 94 99 101 94 91
30 29 28 22 24 25 25 23 24 23 23 26 31 30 31 36 44 45 47 46 48 51 53 54 55 55 56 58 60 61 61 63 68 69 71 73 75 79 79 82 87 91 93 96 97 93 90 90 90
28 28 30 30 30 28 25 22 24 24 25 25 27 32 36 38 39 41 43 45 45 47 48 48 48 48 45 46 47 51 51 53 54 56 62 70 71 72 75 80 81 82 86 89 89 89 90 89 86
24 23 26 27 26 26 27 27 25 30 31 32 34 34 35 37 39 39 39 40 40 39 39 37 36 34 35 37 40 43 47 51 55 59 64 69 72 76 79 82 86 88 88 88 87 83 80 82 85
28 28 27 24 22 25 26 27 29 34 31 32 32 31 32 33 33 33 33 32 29 27 26 27 29 35 39 42 46 50 54 57 62 64 67 69 73 76 77 77 79 79 77 74 76 81 83 87 91
31 28 27 26 25 32 29 30 31 28 25 24 28 28 28 27 25 23 23 20 21 23 27 31 35 39 42 45 48 49 50 51 53 57 60 64 65 67 69 69 69 69 72 76 82 86 92 98 102
28 28 27 28 29 31 29 27 24 22 21 24 25 25 22 20 19 17 16 19 23 27 31 34 38 41 43 46 49 51 51 52 55 59 62 64 66 65 63 65 68 72 77 82 90 94 98 101 105
28 29 30 31 27 23 21 22 20 17 23 24 22 18 17 14 13 15 18 21 25 28 31 33 35 38 42 46 50 54 55 58 59 61 60 62 64 64 64 69 74 79 85 92 97 99 102 106 108
28 28 25 22 21 18 19 19 18 19 16 14 13 13 12 14 15 16 19 21 23 26 31 36 40 44 47 50 54 56 57 59 61 63 67 68 67 67 70 76 81 88 94 99 103 104 108 108 105
23 22 20 19 18 17 16 16 15 14 13 12 11 13 15 16 17 19 22 25 30 35 37 42 44 47 51 56 61 64 66 66 66 69 72 73 70 71 75 81 88 94 100 104 106 109 108 106 104
19 18 18 17 18 16 17 17 16 14 12 13 15 18 20 21 23 26 29 31 34 37 42 45 48 52 56 61 66 68 69 70 71 73 76 74 73 77 82 88 95 101 105 108 110 108 107 107 107
19 19 20 19 18 19 19 16 15 14 15 18 21 24 26 28 30 31 33 36 38 42 44 50 53 57 61 65 69 72 72 72 74 76 76 76 79 83 89 95 101 106 108 111 109 106 109 108 107
23 24 22 19 19 18 17 16 17 19 21 22 24 28 32 34 35 37 38 41 42 46 49 55 59 64 68 72 75 75 77 78 77 77 78 81 86 91 96 101 106 109 111 110 107 108 108 109 106

GFSSGP_250_spd_030.txt.gz
Wind_Speed
97 98 95 95 94 94 93 95 101 92 95 99 95 90 93 88 85 79 72 58 65 67 63 66 68 70 69 67 71 74 73 71 71 72 70 73 77 77 78 79 72 74 76 81 84 78 72 75 78
94 96 97 97 94 96 97 97 99 91 102 93 92 91 89 86 88 85 79 71 76 74 71 73 73 73 74 73 70 73 73 75 73 73 73 72 73 56 64 65 72 78 71 70 74 66 75 74 84
90 93 96 96 95 95 97 100 98 89 89 93 87 87 86 86 87 84 80 78 76 74 73 71 70 75 76 74 73 78 76 78 75 73 76 74 67 67 67 70 68 66 66 69 65 72 79 80 87
84 88 90 89 90 90 98 99 94 89 94 90 82 80 80 81 84 81 78 75 74 72 74 73 73 76 78 75 78 83 86 80 79 61 66 59 61 63 64 62 61 64 66 69 80 76 81 85 72
77 81 81 80 80 80 91 85 84 76 84 81 74 74 79 78 78 75 73 73 72 67 69 67 67 72 74 75 77 70 67 72 74 68 62 56 63 60 61 62 67 74 79 76 79 80 79 69 73
70 70 73 73 70 72 85 67 75 66 64 66 61 82 79 73 70 70 54 54 54 58 58 60 61 69 68 70 63 66 57 57 57 52 55 59 60 65 72 79 74 72 71 78 75 70 73 74 82
64 64 66 66 71 70 66 60 64 49 49 53 62 67 64 56 58 54 57 55 52 54 49 44 57 54 58 56 47 43 50 51 48 57 59 62 68 70 72 71 72 73 78 77 75 77 80 86 86
59 58 58 58 60 58 50 51 47 51 53 71 59 54 60 48 48 46 43 47 42 37 30 44 58 58 55 39 43 51 52 51 54 59 61 70 75 79 75 72 80 78 80 81 80 88 92 97 90
50 48 49 51 47 43 38 33 42 43 50 59 51 52 49 50 43 40 32 38 27 25 30 46 61 62 43 48 53 62 56 57 67 70 77 87 84 79 80 75 78 87 86 88 93 90 89 91 89
45 44 44 45 35 34 25 30 49 51 53 47 45 52 47 37 37 37 28 19 27 40 48 52 60 59 56 57 57 58 56 69 74 79 79 84 83 83 86 89 86 86 89 91 94 94 94 87 83
38 37 34 30 34 32 38 47 51 40 36 40 35 28 40 47 37 22 37 41 52 44 54 64 65 58 60 58 62 68 75 77 81 80 77 73 80 79 82 86 86 91 94 95 90 86 89 87 85
35 33 33 32 32 39 48 52 50 45 38 19 10 15 30 34 43 37 43 50 62 61 51 60 62 64 68 72 72 78 81 81 82 78 77 81 81 83 88 90 96 98 97 97 96 91 89 80 71
31 28 25 26 28 36 50 47 43 42 27 34 28 30 35 34 37 36 48 58 59 65 70 72 77 75 78 85 85 87 89 90 92 88 91 85 85 87 94 99 100 100 101 98 93 87 77 69 67
22 20 20 23 24 25 28 40 44 36 22 37 37 42 31 26 23 33 51 62 62 64 70 77 80 82 84 89 89 88 89 92 93 87 86 91 93 98 102 104 99 99 95 89 78 73 73 68 71
26 27 26 23 28 23 27 30 35 27 26 35 45 45 46 38 35 36 51 56 71 66 72 78 79 81 77 81 85 86 87 84 83 87 93 97 98 99 98 98 95 84 81 80 75 73 73 77 79
30 30 27 28 30 28 30 31 30 27 29 37 45 48 49 47 44 34 44 60 63 68 72 73 74 79 82 84 84 87 87 93 93 96 97 96 94 94 92 90 84 81 82 79 79 82 84 84 88
30 32 31 30 30 27 30 25 26 26 28 29 33 38 40 36 31 31 34 38 59 67 72 72 74 79 84 88 90 89 91 91 91 89 86 89 86 82 80 80 81 82 81 83 84 86 88 86 83
29 32 34 32 28 24 24 21 21 22 25 28 30 30 28 29 31 27 25 33 45 47 54 62 67 70 80 80 81 81 81 81 81 80 80 77 72 72 75 78 80 83 82 86 87 87 88 88 86
33 29 30 28 26 20 19 20 23 26 26 26 27 28 27 30 34 32 42 46 46 49 60 60 61 59 64 69 73 74 73 72 70 69 66 65 64 66 68 71 75 79 81 82 84 84 81 80 77
30 27 27 28 20 19 21 19 19 23 25 25 24 26 29 36 39 38 39 46 50 49 50 56 58 58 56 56 57 58 57 56 55 55 57 60 65 69 71 74 75 75 76 76 74 72 69 69 70
30 26 26 26 25 23 23 25 25 22 22 24 25 27 29 35 40 44 47 48 50 49 48 47 47 45 44 46 45 43 44 46 50 53 58 61 63 65 66 68 69 70 71 71 69 67 67 68 73
25 21 22 22 25 27 27 29 28 27 30 30 33 36 38 39 41 41 43 41 39 38 38 37 34 33 33 35 38 40 43 46 50 52 56 58 62 64 65 66 67 69 71 72 71 71 73 77 80
24 24 22 19 22 25 31 29 26 27 31 26 33 38 39 39 37 35 34 32 32 29 27 28 28 29 33 35 38 37 37 41 47 50 53 57 59 62 64 67 69 70 70 71 73 77 80 85 91
23 22 25 23 24 25 31 27 26 31 25 12 34 33 31 30 29 29 27 25 23 24 24 25 27 28 30 35 37 40 46 49 54 57 61 63 64 63 63 67 70 71 73 75 77 81 87 93 99
24 24 25 27 30 33 31 33 33 23 18 24 44 34 29 28 28 24 22 24 23 23 23 25 29 32 37 40 44 47 51 55 59 64 67 69 68 68 69 71 71 73 76 80 85 91 97 102 107
28 26 31 30 37 26 29 27 25 22 27 33 39 29 24 23 24 24 22 22 23 25 27 31 34 38 44 45 48 51 57 61 65 69 72 74 74 73 72 71 73 78 84 90 94 98 102 108 112
28 29 29 30 31 24 24 24 25 24 26 26 25 22 24 24 24 23 24 25 28 30 34 37 41 43 49 50 52 57 63 68 72 75 77 81 79 77 75 75 79 86 93 97 102 107 110 110 110
32 30 32 30 29 28 24 26 22 24 24 23 24 24 24 24 24 26 28 31 33 36 39 42 45 47 55 58 60 66 70 75 78 81 83 84 81 80 79 83 88 93 99 104 107 111 109 105 105
29 27 25 27 28 24 23 20 23 23 23 23 24 24 23 26 28 30 33 37 40 42 45 50 53 52 60 64 68 72 77 80 82 85 87 85 82 81 83 89 94 100 104 108 111 109 107 107 106
27 27 28 26 22 21 22 24 22 24 23 23 24 25 28 31 33 35 39 40 44 48 50 55 59 61 65 71 75 79 82 83 86 88 85 81 82 84 89 94 101 104 107 110 107 103 105 108 108

GFSSGP_250_spd_033.txt.gz
Wind_Speed
97 101 98 97 92 91 92 94 92 88 86 89 88 89 91 91 91 82 79 80 76 73 71 71 76 73 62 63 66 66 68 70 69 70 71 69 71 71 74 74 71 74 74 68 69 68 69 67 65
87 94 95 97 95 93 97 93 91 91 88 86 88 88 90 89 88 87 82 79 78 78 74 76 72 71 69 71 77 76 76 74 72 73 69 63 69 74 75 76 71 71 64 66 66 66 64 59 62
77 85 86 87 88 89 101 95 95 93 89 91 89 92 89 88 84 76 76 74 77 73 70 73 74 74 76 79 80 77 75 74 73 75 73 72 76 78 79 76 55 59 60 64 70 64 63 67 70
70 77 78 80 83 90 91 92 90 93 87 86 85 88 79 73 68 73 71 65 66 70 68 71 72 76 75 79 82 79 79 76 73 73 70 75 73 68 70 70 62 61 66 70 61 66 71 71 67
62 68 65 70 74 85 88 91 90 85 87 79 80 74 71 68 68 64 59 54 60 59 60 63 70 72 75 78 79 74 71 69 68 64 64 67 67 63 61 58 66 63 62 67 70 71 63 70 74
53 56 53 63 72 77 80 72 72 76 74 63 66 61 63 60 58 48 37 36 40 49 52 57 63 66 69 72 70 65 60 58 58 61 59 57 56 59 58 57 65 61 69 71 67 76 80 75 80
47 48 51 57 58 67 73 55 42 49 48 56 63 54 54 55 55 48 42 32 40 50 48 50 51 57 61 66 65 61 58 52 52 50 46 48 54 53 55 59 67 66 65 75 73 75 77 75 79
41 43 45 50 58 58 46 35 39 40 36 43 47 46 44 47 49 43 40 33 37 31 56 55 53 51 51 52 51 51 54 53 44 42 46 47 53 58 64 64 67 75 78 85 76 78 88 88 93
36 39 46 49 44 37 37 34 31 19 25 28 39 35 24 31 26 29 30 32 41 55 54 48 46 49 51 57 57 61 50 40 43 47 50 52 58 55 62 69 76 77 80 81 90 87 83 86 90
38 45 48 37 32 27 36 30 28 25 13 27 31 10 17 24 34 40 26 20 31 43 47 47 52 56 53 57 58 58 44 46 46 56 61 65 68 68 73 79 81 83 80 80 87 88 88 92 95
35 42 34 29 26 24 33 37 42 36 32 32 23 22 18 27 42 38 26 38 34 34 45 49 51 61 59 63 64 55 54 51 60 61 66 69 69 76 73 77 83 85 81 86 90 93 94 95 95
39 36 31 27 29 42 44 41 36 37 37 37 34 34 35 28 41 43 27 39 21 29 39 50 54 63 64 58 50 49 55 58 59 61 69 73 75 82 88 92 91 92 94 102 100 95 97 99 99
32 30 31 32 40 50 46 44 40 34 40 34 30 36 49 30 25 32 41 51 41 38 46 45 56 57 51 57 59 59 66 66 69 74 81 86 92 88 92 94 95 94 96 96 97 100 100 102 95
31 31 32 34 31 43 46 44 40 39 37 40 41 34 46 32 29 26 35 50 57 55 55 55 60 60 61 68 69 68 76 75 79 87 90 92 89 93 94 93 96 99 101 106 103 104 101 103 91
23 24 24 31 29 39 47 42 34 36 39 26 30 42 43 27 42 42 44 48 54 65 63 66 68 69 70 79 83 86 86 84 87 91 87 86 88 91 97 103 102 96 97 97 98 101 102 92 87
33 34 30 24 23 28 41 45 38 38 39 42 36 42 46 37 37 38 34 41 57 64 69 67 74 72 76 75 75 80 84 85 87 90 93 95 96 95 96 100 99 98 98 98 98 93 87 87 86
35 34 32 28 28 29 29 26 34 36 38 35 41 47 41 42 46 47 45 45 40 51 70 70 71 74 81 77 75 75 79 81 83 85 89 91 86 94 94 93 97 97 95 90 83 80 83 86 88
35 34 34 29 26 26 25 24 23 27 26 29 36 46 48 43 46 41 41 50 49 50 63 74 76 76 79 75 78 80 82 88 92 90 93 95 91 88 93 92 87 83 79 77 80 80 80 80 80
35 34 30 24 28 30 24 21 21 24 24 26 24 29 36 40 37 35 29 34 37 39 38 44 62 70 67 68 71 79 83 86 83 83 84 81 81 82 79 73 75 77 77 76 77 77 75 75 77
30 28 26 27 29 28 24 21 22 23 24 25 28 30 31 33 35 38 36 33 41 43 47 49 50 57 64 66 66 69 73 75 77 74 72 69 65 64 65 66 67 69 72 73 74 74 76 79 81
27 21 20 24 26 23 25 22 17 20 22 24 25 25 27 30 31 34 34 41 42 44 45 47 54 58 58 61 64 67 67 64 60 57 56 54 52 53 56 59 61 64 68 71 72 74 76 76 77
20 19 21 21 25 29 24 22 24 25 26 22 20 24 28 30 30 33 35 38 40 43 45 50 54 57 55 55 53 51 49 47 49 47 47 48 50 53 57 61 67 70 73 76 77 78 75 76 76
21 19 19 21 24 26 30 29 28 29 29 24 28 32 32 32 33 37 38 37 39 40 41 43 45 45 43 42 42 42 42 40 41 45 47 51 55 62 67 71 74 78 80 80 79 78 78 79 84
22 19 20 20 21 24 26 25 25 27 25 26 29 33 31 24 18 29 31 33 32 33 34 36 36 39 39 39 40 40 41 41 44 47 51 55 61 65 70 75 79 84 85 80 79 77 80 86 90
23 24 20 24 28 26 27 29 26 26 28 29 36 36 30 24 21 29 35 35 30 29 30 34 35 37 39 41 42 43 44 45 49 52 58 63 69 72 76 80 84 87 81 79 80 84 90 96 101
27 27 22 25 27 29 32 30 30 31 31 35 30 29 29 37 30 33 30 27 28 30 32 33 35 39 43 46 47 49 53 55 58 63 67 72 78 80 82 87 90 86 81 82 88 93 97 101 106
33 27 26 26 30 32 34 30 28 29 24 28 27 31 33 34 39 27 26 30 30 32 34 36 39 44 49 54 56 58 60 61 64 69 74 80 81 82 88 91 90 86 83 88 93 99 105 109 111
31 28 29 29 31 31 29 27 23 28 23 24 26 30 37 40 31 29 27 29 33 35 37 39 41 46 52 58 61 64 64 68 71 76 79 79 83 88 92 90 87 85 89 94 100 104 110 111 108
35 35 35 31 29 31 30 29 30 30 27 24 24 24 26 29 32 33 32 32 35 39 43 46 47 49 55 59 62 65 67 70 73 74 77 83 87 92 94 90 87 90 94 100 106 109 111 108 104
35 34 32 29 26 28 29 28 32 29 27 21 21 26 30 31 32 33 34 36 40 44 47 51 51 50 53 57 61 65 67 69 73 77 83 86 91 94 91 89 91 95 101 107 111 110 105 103 101

GFSSGP_250_spd_036.txt.gz
Wind_Speed
76 79 80 90 91 90 90 94 92 88 86 86 86 87 87 87 83 81 84 79 78 78 76 75 75 76 74 75 77 78 77 74 68 67 71 68 73 75 76 75 74 75 73 75 75 75 77 61 60
62 70 70 79 88 91 91 94 93 90 87 86 89 88 87 87 85 84 82 79 77 75 76 76 76 77 76 74 77 79 78 71 70 71 73 75 76 77 74 76 76 76 75 75 75 74 60 60 61
52 57 62 68 78 84 94 93 94 91 88 86 86 87 86 87 88 86 82 77 72 74 74 72 70 71 70 69 73 77 73 72 72 75 77 78 75 77 79 77 77 77 76 75 64 64 62 61 61
51 50 53 60 66 84 92 91 90 87 85 86 85 84 85 88 83 84 79 72 68 66 60 59 61 60 61 63 65 70 76 78 78 80 78 76 74 75 73 70 70 70 65 63 61 63 61 63 62
46 49 51 56 68 75 79 80 82 81 77 82 74 79 80 77 76 73 69 67 56 51 51 49 57 52 55 57 67 70 78 81 76 75 73 71 67 67 67 69 66 66 60 59 63 63 64 69 65
42 45 48 58 61 61 62 61 63 68 75 70 64 67 66 58 55 53 53 45 38 44 41 39 44 48 53 57 64 68 67 71 74 72 69 65 64 64 68 65 60 56 57 57 59 63 67 68 67
39 40 45 50 53 53 49 47 53 55 56 59 59 59 58 45 41 41 39 26 17 24 31 46 44 43 50 57 60 56 55 56 56 58 56 56 61 56 51 44 49 54 56 54 65 66 75 70 71
32 35 41 49 47 45 38 35 39 49 50 52 44 49 50 37 28 33 29 20 16 33 37 44 45 46 52 53 53 55 57 59 61 55 59 56 58 59 57 51 51 56 56 64 64 69 79 79 81
30 34 44 40 34 28 26 35 38 43 47 43 43 37 32 26 31 35 35 31 42 45 48 55 43 51 54 52 47 47 48 51 51 52 50 59 52 49 52 49 53 55 62 64 74 76 78 84 94
34 39 35 31 23 20 25 38 37 39 41 36 30 27 24 21 29 37 33 35 40 35 39 52 60 52 52 51 54 55 52 56 55 56 61 61 46 52 53 58 62 69 75 80 85 86 88 95 99
32 32 30 25 21 21 27 33 37 38 33 29 29 27 22 19 26 38 36 38 48 50 53 63 56 61 60 55 50 50 45 53 57 54 48 49 52 64 60 66 67 71 77 84 86 93 98 99 102
38 35 35 28 21 23 32 40 48 42 36 28 29 32 38 35 34 36 37 40 36 51 51 53 55 59 54 51 52 55 54 53 51 57 54 59 65 63 67 72 80 78 78 89 94 96 95 97 103
35 32 26 24 22 26 38 47 47 48 40 27 30 41 36 34 34 34 37 40 44 49 45 38 46 53 48 55 56 61 60 59 67 61 63 69 67 73 72 77 83 88 96 98 97 96 98 99 91
29 27 26 25 27 38 45 54 49 46 46 34 37 41 38 41 43 42 40 43 50 48 48 45 48 56 59 62 66 59 57 62 61 69 71 68 73 76 80 83 88 89 91 97 100 96 98 90 96
30 23 21 27 34 42 45 51 51 50 41 36 32 40 47 52 45 37 33 44 51 51 51 49 48 58 63 62 61 64 65 67 67 68 70 73 77 80 84 89 91 90 89 87 85 85 88 94 89
32 25 25 29 35 42 45 44 42 37 37 22 30 40 35 49 52 43 45 40 54 56 57 57 57 61 61 63 68 72 71 74 75 76 79 80 82 85 85 85 89 93 93 83 84 89 85 84 87
23 29 32 34 34 36 46 37 34 28 34 36 29 38 43 50 51 46 46 46 43 51 57 61 62 66 67 69 72 76 75 76 77 77 79 80 79 86 91 89 91 91 81 85 79 77 80 81 82
27 29 32 34 33 34 37 40 31 28 32 37 39 38 38 49 48 48 44 43 55 49 55 58 55 64 76 76 76 75 76 75 73 74 76 78 82 80 83 85 86 77 77 73 72 70 72 73 75
25 31 32 31 24 24 29 24 27 25 27 36 39 43 47 49 53 59 50 48 45 55 51 49 52 57 61 66 77 81 80 76 74 79 80 81 80 79 80 80 83 79 70 68 69 69 72 75 79
22 28 28 26 23 23 20 21 22 25 27 29 30 31 43 48 51 52 49 49 52 55 51 47 47 51 55 61 62 64 70 68 75 79 79 81 79 79 77 79 72 67 67 66 69 73 75 79 85
21 27 23 27 23 22 23 24 27 28 24 25 25 28 31 32 34 39 46 42 41 43 48 46 43 48 52 55 57 60 62 64 68 72 75 74 72 70 69 66 64 64 67 71 73 76 80 85 89
20 21 24 21 23 24 26 28 26 20 21 24 26 26 27 28 31 35 37 39 41 40 42 44 48 53 56 58 59 60 62 61 61 63 64 65 62 63 60 59 63 68 73 77 79 81 86 91 90
21 23 20 19 22 28 29 26 22 23 24 26 25 24 26 28 30 34 33 35 40 42 43 45 45 47 51 53 52 52 52 53 56 58 57 61 60 60 63 64 69 74 78 80 82 87 91 92 89
24 22 22 22 25 25 24 31 32 31 28 32 30 27 29 33 34 38 35 34 30 31 28 34 37 44 45 45 46 47 50 52 53 57 59 59 62 66 68 72 75 79 81 82 87 92 96 96 91
22 24 22 23 26 23 23 23 25 28 28 29 26 22 27 31 34 38 35 32 27 29 35 39 41 43 41 43 45 47 49 53 56 58 61 65 66 65 69 73 76 78 81 85 90 96 97 92 91
19 25 25 25 25 23 29 27 24 27 28 29 30 26 29 31 29 33 32 32 32 34 30 32 38 40 42 45 48 50 52 54 58 60 63 65 67 69 71 72 77 82 86 89 95 95 93 92 95
25 26 28 26 28 28 25 22 27 28 27 28 31 28 22 24 30 30 30 32 33 29 32 35 38 42 45 49 51 54 55 56 58 60 64 67 70 71 70 77 84 87 90 95 97 95 95 98 102
24 26 28 30 32 30 25 26 29 30 28 28 27 28 25 27 29 31 32 34 38 36 34 34 38 43 48 51 54 56 55 55 59 66 70 70 69 72 78 82 86 90 96 97 95 96 100 105 110
28 30 28 30 33 32 29 29 31 30 25 25 25 26 28 28 26 28 33 34 36 38 39 39 42 46 49 53 56 60 62 63 66 66 67 70 75 79 83 86 90 96 97 96 98 102 108 112 111
29 33 35 37 36 37 37 32 32 27 25 25 26 29 26 24 27 30 32 34 37 40 41 41 44 48 52 56 60 63 65 63 66 71 74 78 81 85 88 90 96 97 97 99 104 108 110 108 105

GFSSGP_250_spd_039.txt.gz
Wind_Speed
58 58 59 67 75 85 86 90 96 94 92 90 88 86 85 85 85 84 81 79 79 76 77 75 74 72 72 73 72 74 74 74 77 76 76 78 77 78 76 71 74 75 77 78 78 74 75 75 75
49 54 54 55 60 70 82 90 94 96 90 90 89 88 87 86 86 85 83 80 81 79 77 75 73 69 69 71 73 74 73 74 77 77 78 78 77 78 73 73 78 79 79 82 78 78 75 69 66
47 51 53 50 54 63 75 88 90 88 88 85 88 88 89 87 85 85 84 81 77 78 75 72 70 67 69 68 69 70 70 69 71 73 75 76 75 75 74 76 79 82 82 80 77 75 69 68 62
45 48 49 50 56 63 71 70 74 80 83 85 88 89 88 85 86 84 82 79 72 74 70 65 65 69 68 64 63 63 64 68 68 72 69 69 71 74 79 80 82 80 80 79 75 68 67 67 60
39 43 47 53 60 55 54 56 63 71 77 79 82 85 86 84 84 83 78 72 63 60 60 60 62 63 54 54 55 59 61 65 66 65 66 66 67 72 77 73 76 75 70 66 69 67 55 53 53
36 40 47 53 48 46 49 48 53 59 62 66 71 77 80 77 75 71 69 52 39 36 42 43 37 41 40 41 45 51 57 58 60 62 63 65 64 65 65 63 59 62 65 62 59 57 48 49 50
34 37 42 42 41 46 45 45 47 45 46 57 61 64 66 67 61 55 48 34 21 19 27 26 32 36 38 41 46 44 44 48 55 57 61 59 57 53 58 58 60 57 61 58 56 54 53 55 54
32 35 38 35 35 36 32 24 33 43 46 48 51 53 54 55 44 38 34 24 21 19 32 32 39 35 39 39 44 45 49 55 54 56 53 56 55 59 60 57 57 59 48 44 49 49 51 50 60
29 32 35 28 27 26 25 31 34 41 43 40 46 50 42 37 34 38 32 26 30 22 33 30 33 38 41 42 53 55 52 53 53 52 50 53 49 47 48 55 53 44 40 42 49 56 59 65 68
27 28 24 22 19 22 29 35 40 40 39 42 46 43 32 29 31 37 32 37 37 39 41 42 42 43 46 53 57 49 50 51 45 45 45 43 48 43 59 50 42 42 47 59 61 69 77 76 79
27 28 18 16 17 21 25 34 38 43 43 38 36 36 32 30 35 38 41 40 44 48 43 39 35 49 56 56 56 54 50 53 48 53 41 41 39 41 43 48 58 61 62 67 72 74 76 82 86
24 20 18 21 18 18 24 25 36 39 40 29 30 34 35 37 39 38 42 49 49 53 54 51 45 49 51 54 57 62 63 50 41 40 49 53 57 56 58 61 63 66 72 72 73 78 82 89 93
26 18 20 15 16 18 19 22 32 33 34 34 35 39 40 40 34 34 42 49 56 52 54 53 54 56 58 61 60 46 55 56 50 52 51 51 56 63 64 70 76 76 73 75 83 87 90 92 94
26 20 23 25 26 24 27 28 32 35 33 41 44 45 40 36 33 35 34 44 51 59 62 63 58 66 66 66 56 56 55 54 53 61 62 67 63 63 64 67 69 68 77 83 85 86 92 97 92
28 26 20 20 28 28 28 27 31 35 46 41 46 44 47 36 46 41 40 47 51 49 52 58 59 64 64 63 63 59 56 55 65 62 62 63 67 72 73 78 83 85 87 91 89 87 91 85 79
25 22 22 22 28 26 27 25 29 36 46 45 43 41 45 40 46 43 44 46 49 51 53 59 59 61 55 59 60 57 58 63 60 63 69 72 74 79 82 85 81 82 82 84 84 80 79 73 74
27 16 21 25 29 29 28 27 29 34 43 46 43 38 46 44 44 46 47 44 45 47 53 53 61 61 62 63 59 59 61 68 69 70 76 77 80 81 84 83 86 82 81 87 73 76 75 73 71
23 20 21 27 27 29 30 31 26 30 33 42 38 38 42 42 39 44 48 51 50 48 53 55 57 62 60 60 63 67 65 67 74 76 80 80 81 78 79 81 80 78 73 74 75 73 74 71 73
16 19 23 28 28 27 27 28 29 24 37 31 40 34 34 46 45 45 43 51 53 54 54 51 51 51 57 61 67 69 68 67 65 70 77 73 76 79 77 73 71 71 69 70 72 74 70 73 76
14 19 22 27 29 22 21 22 25 32 30 36 32 34 36 40 46 47 46 49 47 43 49 48 51 57 57 57 62 65 65 60 59 59 64 69 70 72 72 72 71 71 71 74 73 73 75 78 81
18 19 23 28 27 22 18 18 18 20 23 26 30 30 32 40 43 48 52 50 55 55 51 54 52 54 56 62 61 61 61 59 62 64 69 72 71 70 69 69 71 73 74 75 77 78 81 84 87
17 17 18 29 27 23 21 20 22 22 22 22 23 25 27 31 32 35 39 47 51 58 54 51 51 54 55 58 60 60 60 62 64 66 67 63 62 63 66 69 72 75 75 75 78 79 82 84 84
17 17 17 21 22 24 22 22 24 23 20 19 19 24 27 30 35 32 33 36 36 38 43 45 45 49 51 53 55 56 54 54 57 56 55 57 61 64 69 72 74 75 74 75 77 79 79 83 88
15 17 19 21 23 20 22 22 25 28 25 24 25 26 28 29 31 31 33 33 36 36 39 41 43 43 41 41 46 48 48 51 51 53 56 60 64 67 70 69 69 71 74 76 74 78 83 88 91
16 19 21 24 23 22 22 23 25 31 32 30 28 33 34 34 32 33 35 36 38 39 39 36 30 34 40 45 47 47 49 52 52 54 59 62 65 66 66 68 72 71 71 75 79 83 87 90 92
15 23 25 26 25 22 23 23 23 28 29 33 34 35 34 33 32 33 33 38 33 33 29 29 35 38 37 42 45 48 51 52 56 56 59 61 64 67 68 67 68 72 76 80 84 88 91 93 94
20 22 21 26 27 23 22 24 28 28 27 28 28 31 34 35 33 32 30 28 24 22 29 34 38 39 42 48 49 50 52 54 57 58 60 63 67 69 67 69 73 78 83 84 88 92 93 92 94
18 19 22 24 26 27 25 25 31 31 27 28 29 32 32 28 25 26 26 26 28 30 36 38 41 46 48 49 51 52 53 54 57 59 63 67 68 67 70 74 78 82 83 90 95 93 93 95 99
23 22 21 22 26 27 28 31 32 31 29 30 30 32 31 28 26 26 26 27 28 29 32 39 44 47 48 48 48 51 53 55 58 61 65 68 70 71 75 78 82 84 88 96 94 92 96 103 105
26 28 24 25 28 30 29 31 31 31 32 31 28 27 26 26 27 27 27 27 29 33 38 41 43 44 45 48 52 54 56 60 63 67 66 67 71 75 79 82 84 89 95 94 93 94 101 103 108

GFSSGP_250_spd_042.txt.gz
Wind_Speed
49 51 52 57 60 64 67 75 88 96 93 95 93 89 86 86 86 84 83 83 79 77 75 73 73 71 69 67 69 70 70 69 70 73 72 71 72 73 72 76 78 78 80 80 81 80 78 77 77
46 46 45 47 50 57 63 69 78 83 87 90 92 91 88 86 86 85 82 82 79 76 74 73 72 70 68 68 69 67 68 68 69 70 70 71 72 74 74 75 77 78 79 82 82 80 78 79 78
44 42 44 45 48 55 61 63 64 69 76 83 86 89 86 85 88 86 83 80 78 75 73 72 71 68 68 67 67 66 67 67 68 66 70 70 72 73 73 74 76 80 80 79 77 74 76 77 77
40 41 43 47 50 50 54 53 55 60 63 71 82 83 81 86 87 85 83 81 73 66 65 65 64 64 65 66 65 65 63 64 65 67 69 70 70 70 72 74 74 75 72 71 72 72 71 65 61
37 38 40 43 48 49 50 50 51 55 56 63 70 75 80 83 85 85 86 79 66 55 50 56 63 66 64 60 54 55 58 60 63 64 68 71 71 69 70 69 65 63 63 63 58 54 57 60 59
34 33 35 35 37 44 50 47 48 49 51 54 56 61 65 74 77 77 80 74 65 46 44 50 60 58 49 43 44 47 51 56 58 59 62 64 61 60 60 61 63 58 59 57 57 58 58 50 50
30 30 31 28 30 36 39 40 39 42 43 44 49 55 59 66 70 69 68 66 54 48 49 32 33 48 37 36 39 42 47 51 52 52 52 51 50 51 55 57 58 57 54 55 56 46 42 48 45
27 28 25 23 25 27 33 36 38 38 43 44 42 49 50 57 57 59 59 57 49 44 40 42 37 39 31 42 40 47 51 46 49 51 49 50 52 54 55 48 56 58 57 49 40 47 52 43 47
24 25 22 18 21 23 25 30 33 40 43 41 42 46 48 45 50 46 35 41 41 41 39 28 39 48 50 26 34 43 43 45 49 50 49 49 53 52 54 59 60 49 44 45 54 52 41 51 58
23 21 21 16 18 17 22 27 33 37 41 39 43 46 39 33 29 30 30 33 41 49 51 38 52 53 47 38 45 50 46 50 54 56 54 54 56 61 61 50 42 48 51 47 52 56 63 64 70
16 16 15 13 16 17 21 25 28 32 36 40 43 41 37 34 29 30 35 39 46 52 50 48 51 57 54 42 50 54 55 62 58 59 63 63 59 60 42 43 43 49 60 60 69 65 67 68 73
14 9 9 14 17 14 19 25 31 34 31 36 38 31 35 32 29 34 42 38 50 52 46 46 53 52 46 50 50 59 63 59 55 48 39 36 45 41 41 53 59 59 58 62 63 62 69 75 79
12 9 11 17 15 10 14 21 29 34 34 35 32 27 27 27 32 35 40 46 49 49 47 42 48 51 45 42 53 59 51 59 55 39 39 48 46 50 52 54 55 63 66 68 74 76 79 83 81
11 11 12 22 19 17 15 18 28 32 34 34 30 30 29 32 32 35 39 48 50 54 49 48 43 48 50 49 54 54 54 48 50 54 50 50 52 57 63 67 68 67 70 75 77 80 85 87 88
9 12 16 25 21 15 17 16 19 32 35 40 34 31 34 37 33 38 38 47 53 56 59 52 50 53 53 56 56 58 58 61 59 62 62 64 67 60 60 63 68 73 78 81 84 90 88 86 84
10 13 12 15 15 18 22 18 14 25 32 30 36 34 40 38 36 31 41 44 52 51 60 64 53 54 54 58 61 62 58 57 60 67 67 67 66 66 72 78 79 82 83 85 87 84 80 75 72
8 5 10 14 19 22 16 11 11 21 28 34 35 34 34 38 36 37 37 40 49 52 54 59 58 56 53 56 60 59 60 62 64 64 66 64 69 71 77 79 79 78 82 79 77 74 74 69 67
7 12 7 9 16 14 15 11 12 21 27 34 40 34 30 34 42 37 40 38 43 43 46 55 59 58 62 64 61 61 64 65 62 63 69 69 72 77 78 76 75 75 73 74 74 68 69 69 71
5 8 8 9 14 18 15 12 19 19 26 27 39 39 36 34 35 41 37 38 43 44 46 45 51 51 54 57 62 59 69 68 68 71 68 71 75 69 67 70 74 74 73 68 67 70 72 74 77
5 7 12 14 15 16 20 19 17 19 22 26 30 33 39 35 34 46 37 39 40 41 44 49 52 56 57 58 60 55 55 59 61 63 63 65 65 68 72 71 69 68 66 68 70 73 76 78 77
5 9 9 14 17 22 20 16 13 18 21 22 28 35 32 42 39 38 39 38 41 43 45 46 51 55 55 51 56 60 59 58 59 62 66 67 66 67 66 65 65 64 67 69 72 75 76 75 77
10 10 10 13 16 19 13 13 15 20 20 24 23 29 27 29 36 38 37 42 44 45 48 49 50 51 49 55 54 55 55 55 59 60 58 59 61 61 61 63 64 66 69 72 74 74 76 78 74
9 14 14 15 18 21 17 16 15 15 16 18 19 21 22 26 27 28 26 30 36 39 40 39 40 41 44 47 49 51 53 53 50 50 53 55 58 59 61 64 66 68 71 72 74 76 75 76 79
9 13 15 17 17 21 22 20 19 18 19 18 18 22 24 23 24 24 25 28 30 33 38 40 39 38 42 42 42 42 42 47 49 51 52 53 57 61 64 66 68 69 72 74 75 74 76 80 83
14 13 19 19 20 21 21 18 18 20 21 23 24 23 25 27 29 31 32 35 39 39 41 40 41 42 43 42 38 40 44 50 49 51 55 57 60 63 65 66 67 70 72 73 73 75 80 83 85
20 15 17 18 20 21 23 21 19 21 21 23 27 32 34 34 37 37 39 37 37 39 42 42 41 37 36 34 36 41 46 49 52 59 59 61 62 62 64 67 69 68 68 73 78 81 83 84 86
22 18 17 20 22 21 21 22 23 20 20 20 25 29 30 32 34 37 37 40 43 42 35 31 29 28 31 36 42 45 47 52 57 61 61 60 61 63 65 68 67 69 73 79 82 83 85 89 91
24 21 18 21 23 23 27 28 30 24 25 25 27 31 33 35 38 42 42 39 32 30 27 28 30 33 36 39 42 46 49 55 57 57 58 59 61 65 69 69 71 75 79 82 84 87 88 92 96
21 25 23 20 22 24 24 30 33 32 29 31 31 33 36 37 38 40 36 32 31 30 29 29 30 32 36 41 46 49 51 53 54 59 62 62 65 69 70 70 75 79 82 85 88 90 93 96 98
23 22 24 25 30 28 29 36 32 34 33 33 35 35 37 37 35 35 31 30 29 28 30 29 32 34 37 42 46 46 47 53 59 62 64 67 69 72 75 75 79 83 86 89 92 93 96 100 99

GFSSGP_250_spd_045.txt.gz
Wind_Speed
62 57 56 54 52 56 61 69 77 78 81 88 93 96 93 92 93 87 87 87 83 80 80 77 75 74 72 70 68 68 68 69 69 69 70 72 71 70 70 71 73 76 77 77 79 79 78 80 81
60 53 49 49 49 51 55 62 69 70 74 78 86 88 91 91 90 87 86 87 85 81 79 78 75 73 72 69 68 67 67 66 66 69 68 72 71 70 71 70 70 72 74 76 77 77 79 80 80
57 51 44 44 46 49 51 52 56 62 68 73 76 80 85 88 83 86 85 82 80 79 80 80 77 73 70 68 68 67 68 67 68 68 68 68 68 69 72 72 71 74 74 75 77 78 78 78 74
53 48 43 41 43 43 47 46 47 51 60 68 70 73 80 79 79 80 86 84 79 80 75 72 66 66 71 69 70 68 68 67 64 64 64 64 67 67 70 71 72 72 73 74 75 76 74 71 62
49 44 40 37 39 41 44 47 45 44 53 61 59 63 66 69 73 75 78 79 77 78 73 64 63 65 69 68 67 64 62 61 63 62 63 65 66 67 68 67 69 68 69 70 72 71 66 62 66
45 38 32 32 28 30 36 43 45 43 49 52 54 54 56 57 59 67 68 72 73 63 58 60 59 59 60 59 53 54 56 56 57 58 56 58 60 62 62 63 62 60 65 66 63 63 59 60 57
45 33 26 23 20 24 27 34 39 44 47 48 50 50 52 49 54 55 59 61 47 33 44 49 48 54 58 42 44 43 46 47 46 48 49 52 53 52 53 53 54 54 55 58 54 58 60 62 59
45 30 19 16 18 19 20 24 30 40 47 46 43 43 46 41 48 48 51 53 49 41 39 41 41 46 39 29 33 36 42 38 47 48 50 53 52 51 50 51 52 56 53 51 55 60 61 48 53
41 27 15 15 15 18 20 24 27 34 38 39 41 42 42 39 46 42 47 51 45 44 48 53 51 32 32 35 33 42 46 42 47 53 55 57 54 53 54 49 54 58 57 60 62 45 48 50 52
32 25 16 9 12 14 17 20 29 28 30 35 38 39 37 38 37 42 46 45 47 43 46 47 41 48 38 54 45 46 37 44 47 49 53 46 51 53 51 54 55 59 65 59 46 44 48 51 51
23 24 12 4 11 15 15 24 27 26 31 31 32 33 35 38 34 33 43 44 38 46 49 50 54 45 43 48 58 56 53 47 50 55 50 53 60 62 62 60 63 62 44 45 42 49 63 55 66
16 17 3 8 13 16 16 21 23 28 32 35 35 33 37 39 35 35 28 29 41 47 53 54 59 56 52 59 64 58 55 51 55 53 54 57 61 66 67 47 39 41 43 48 55 63 64 66 68
14 17 7 16 14 9 19 25 22 27 30 32 34 33 31 38 30 32 32 35 43 49 56 59 62 56 57 58 55 54 58 57 59 68 63 63 65 57 39 42 51 54 57 62 60 64 65 69 72
18 10 10 18 13 7 15 22 23 24 28 29 31 31 32 28 28 32 34 42 46 50 56 65 59 50 49 52 60 56 62 59 64 65 67 57 55 48 51 55 58 63 62 68 69 74 76 74 78
19 5 10 16 18 17 15 17 21 23 24 27 29 25 26 28 34 32 33 42 46 51 53 59 60 46 42 50 53 53 53 59 61 62 57 57 54 53 55 58 61 63 67 68 70 75 80 78 80
15 2 3 11 17 16 19 12 12 10 21 26 25 24 25 26 26 31 27 41 48 52 53 53 51 48 45 51 51 50 55 59 55 50 52 56 61 63 64 65 68 71 73 74 77 79 80 76 74
3 4 3 5 11 17 9 3 3 7 22 27 26 28 28 24 24 29 36 35 49 51 49 54 50 54 50 46 47 45 52 53 59 62 63 61 60 63 68 68 71 72 73 73 75 76 73 74 70
6 3 3 5 10 10 9 5 7 11 17 24 27 32 31 25 25 33 34 39 39 48 51 54 61 54 51 57 59 59 58 54 51 51 56 58 62 65 69 72 73 72 74 73 72 69 68 65 63
9 2 2 1 6 4 7 7 9 11 10 10 20 28 32 26 26 30 24 33 34 37 43 57 57 56 56 53 56 54 55 59 66 67 65 66 59 58 62 70 69 71 73 71 66 65 64 65 67
10 3 6 5 9 14 9 6 7 14 14 14 16 18 28 26 22 31 28 27 28 34 37 41 50 55 53 54 56 54 56 56 56 59 65 67 67 70 66 68 70 70 65 62 62 63 64 67 69
11 6 7 11 8 12 14 16 14 11 13 14 13 15 20 22 29 31 30 28 30 31 34 37 39 42 43 43 47 50 55 55 60 62 59 62 62 67 68 66 63 62 61 60 61 65 67 69 72
20 9 6 9 11 12 14 12 15 13 14 14 14 17 23 28 27 26 28 33 39 35 34 38 39 44 49 49 52 53 52 56 60 66 64 63 61 63 57 58 58 59 62 63 64 68 70 72 72
25 13 9 10 12 13 16 12 13 13 15 18 16 18 18 21 25 30 33 34 35 41 42 40 39 40 40 42 45 48 50 51 51 52 52 50 49 51 53 54 60 63 65 67 69 69 71 73 70
24 19 14 11 14 16 19 18 17 15 16 17 17 19 18 22 26 26 27 28 27 28 29 29 30 34 37 40 41 45 47 47 46 45 44 47 49 51 54 60 63 67 69 66 68 71 72 70 73
29 20 20 16 16 16 20 21 19 21 20 18 20 20 21 19 19 21 21 24 26 29 32 34 36 38 40 43 44 43 40 40 42 42 45 50 53 53 58 62 66 67 68 70 71 72 72 75 79
37 23 19 20 15 15 20 21 19 20 19 20 23 24 25 27 28 29 29 30 30 33 36 37 38 38 41 36 36 32 36 39 42 46 51 55 55 59 61 62 66 69 68 71 74 74 76 80 83
38 27 21 17 17 17 21 24 25 22 21 21 23 24 25 26 27 27 28 29 31 34 38 40 41 42 41 36 32 37 39 43 45 49 54 57 61 63 64 64 69 69 71 72 74 75 79 84 84
35 37 24 22 21 23 25 26 29 26 26 25 26 27 27 28 29 30 32 33 35 37 38 38 34 35 34 33 33 37 40 43 47 50 51 58 61 62 64 73 73 74 73 73 76 80 82 87 89
38 37 29 24 25 25 27 28 34 32 30 30 30 32 34 33 34 36 37 39 38 36 35 33 34 34 33 34 34 35 36 41 44 47 55 60 66 66 73 75 76 76 76 76 80 84 86 89 93
38 39 34 24 26 28 30 36 32 33 33 35 35 34 37 38 38 39 39 40 38 36 34 33 33 31 30 30 34 36 37 43 48 55 58 64 65 70 75 78 79 81 82 81 86 90 92 92 96

GFSSGP_250_spd_048.txt.gz
Wind_Speed
68 65 66 66 64 60 58 59 58 61 67 72 73 78 82 89 94 83 93 92 92 91 85 84 83 82 81 79 76 74 72 71 70 69 70 70 71 74 75 76 76 76 75 74 73 74 73 75 75
69 66 61 59 56 54 56 55 53 56 61 69 73 78 81 82 86 90 87 92 92 88 85 84 83 81 81 80 76 73 73 72 71 70 70 72 73 75 75 74 75 76 74 74 74 75 75 74 76
73 67 59 54 53 51 50 51 50 51 56 61 68 75 77 78 86 87 94 84 91 84 84 86 83 82 80 77 73 72 72 73 74 75 74 73 75 76 75 75 75 74 74 73 72 73 72 74 76
80 66 56 48 46 45 44 44 45 46 51 54 60 69 73 74 74 79 79 84 86 84 82 80 76 76 77 77 75 75 75 75 75 72 74 77 76 75 77 71 70 71 69 69 73 72 72 72 73
79 62 53 44 38 36 34 34 38 42 46 48 53 58 67 73 61 68 74 73 76 76 79 74 73 71 72 69 69 70 69 71 73 72 73 73 72 71 71 71 69 66 68 68 68 68 70 69 68
78 59 50 40 33 29 29 31 35 40 44 44 47 51 57 64 69 63 60 65 68 63 55 61 58 63 64 66 63 64 64 62 61 60 61 60 63 62 64 63 62 62 62 62 63 62 60 59 57
70 54 44 35 31 25 25 29 32 37 41 43 44 45 48 55 58 61 58 57 52 40 33 34 41 53 60 57 57 52 53 53 51 55 56 56 57 58 58 56 56 54 54 56 57 59 56 58 60
63 48 40 30 27 20 21 24 28 32 35 40 43 38 41 46 47 53 51 48 50 44 35 41 37 38 41 41 40 39 37 42 41 43 46 45 49 52 51 51 50 52 54 53 58 58 58 57 61
58 47 37 27 25 19 17 20 22 22 27 34 40 41 36 38 41 45 47 47 43 43 47 47 46 43 31 39 40 32 28 29 28 35 38 44 49 50 55 53 52 54 54 54 56 58 59 60 59
54 46 27 22 19 14 14 15 20 22 24 27 32 37 36 40 39 41 42 43 42 49 57 56 53 49 45 37 39 34 29 27 36 45 38 43 47 49 51 45 49 51 55 59 58 63 62 51 44
55 38 27 21 17 11 9 14 20 22 24 24 27 35 27 31 38 37 40 41 43 53 59 62 55 53 40 46 44 39 44 40 50 51 51 50 48 49 54 61 60 56 54 48 57 54 49 53 55
56 40 28 17 9 11 12 16 24 23 23 26 26 25 23 35 37 43 42 44 39 45 57 58 56 50 60 53 52 48 52 57 59 56 55 52 56 54 52 52 52 52 58 61 51 55 56 61 61
56 37 21 8 10 8 12 17 22 25 26 28 29 33 30 31 35 38 38 39 40 38 51 56 57 61 62 60 53 52 53 58 66 62 53 55 54 60 62 59 62 63 65 57 58 56 59 64 67
53 31 13 8 7 2 10 17 21 26 29 26 28 29 30 28 25 30 34 31 34 39 48 55 61 68 61 59 54 49 55 56 55 57 60 62 64 63 69 69 69 68 65 56 61 62 73 71 71
50 24 6 11 6 3 7 12 10 19 25 28 29 28 29 23 28 28 32 33 34 39 47 61 65 66 60 60 56 49 54 58 59 60 62 60 62 59 68 69 68 61 65 71 73 71 72 73 74
46 18 7 11 10 7 10 10 13 10 18 23 24 29 26 27 23 28 30 35 28 36 46 59 57 61 62 62 60 56 52 54 56 55 55 55 62 63 56 62 54 63 65 67 70 76 73 75 71
42 25 7 1 4 5 12 13 11 13 13 19 18 25 23 23 28 19 21 15 27 32 41 49 56 57 59 61 52 44 46 49 48 50 54 56 56 56 60 63 69 68 70 66 64 70 69 70 70
38 28 11 3 4 4 12 8 1 6 11 19 17 20 26 24 23 18 23 25 28 29 36 45 50 47 52 56 47 45 38 39 50 51 51 52 55 57 58 61 65 70 71 71 71 71 72 73 69
44 32 10 8 3 3 4 2 6 12 11 19 25 23 23 22 24 12 19 24 31 32 32 40 46 55 48 52 57 56 48 51 56 55 56 61 63 67 68 72 72 71 68 67 66 70 69 69 65
44 30 19 9 9 6 1 3 7 11 8 11 23 27 27 30 28 24 21 18 27 33 30 36 46 47 53 55 58 58 61 51 54 59 67 69 65 66 68 66 67 66 69 69 70 68 63 62 61
42 27 24 12 5 9 12 10 5 11 14 12 12 13 17 27 30 29 25 27 22 22 22 27 35 43 52 58 62 62 62 64 65 61 64 64 58 59 62 64 67 67 68 68 64 61 61 63 66
42 32 22 15 7 11 13 16 12 13 17 13 13 13 14 17 21 29 30 29 31 33 29 31 32 34 41 43 42 48 51 57 57 58 60 61 61 62 62 64 65 64 59 58 59 63 64 68 69
39 39 22 19 15 12 14 16 11 10 12 15 16 15 15 18 21 26 25 31 32 31 36 37 35 38 38 43 46 46 46 50 52 54 55 55 57 57 59 59 57 56 59 58 62 66 67 68 72
38 37 24 19 19 18 17 16 15 12 11 13 17 18 20 20 18 20 25 28 29 33 34 34 38 36 37 39 44 46 48 47 47 48 50 52 53 51 54 52 55 57 59 62 67 70 68 72 75
33 35 32 20 18 20 19 18 19 19 19 18 19 19 20 20 19 18 21 23 25 29 30 30 30 33 36 36 37 39 40 42 46 46 47 45 46 48 52 55 56 59 61 65 67 67 73 75 77
30 36 33 25 21 20 22 20 18 21 22 22 21 20 22 23 24 23 22 23 25 29 31 32 33 35 35 35 37 40 37 34 38 44 43 45 49 53 56 57 58 60 61 68 69 74 76 78 78
27 33 32 33 21 21 24 25 22 22 24 24 25 24 25 24 26 27 27 28 30 32 35 36 35 35 37 39 41 37 32 37 42 43 48 50 52 52 57 60 60 63 67 72 74 78 81 82 83
26 31 33 32 27 23 25 29 27 25 26 27 27 25 24 26 26 27 27 30 32 34 34 34 34 39 43 42 40 39 39 41 44 48 49 49 50 53 58 61 64 67 73 79 81 83 81 85 88
26 30 32 30 30 24 27 30 33 28 29 29 31 32 31 32 33 33 33 32 33 33 34 38 41 40 40 40 41 41 41 43 45 45 47 49 54 57 60 63 66 71 77 82 83 87 87 89 90
24 30 31 28 32 26 25 34 36 33 32 35 36 36 37 37 37 37 36 36 35 37 40 42 43 41 40 41 42 45 45 43 44 46 49 53 55 61 63 68 71 78 81 83 85 88 92 95 96

GFSSGP_250_spd_051.txt.gz
Wind_Speed
68 60 65 69 69 67 65 64 65 63 58 56 48 70 63 60 56 48 62 85 71 85 92 92 90 88 89 88 85 84 80 79 78 75 74 75 77 77 76 75 76 77 76 76 76 78 77 78 77
65 62 67 71 67 63 61 58 56 55 45 56 56 60 61 53 52 68 83 84 78 73 87 90 91 92 91 85 83 83 81 79 79 79 80 80 80 80 80 80 79 78 78 77 77 78 76 76 72
64 66 68 71 66 60 56 52 50 46 48 47 50 52 37 74 73 72 74 76 39 44 65 89 94 89 89 88 84 82 78 78 79 81 81 80 81 81 81 83 80 79 79 78 78 77 77 75 71
67 70 74 69 61 55 51 44 45 42 42 45 47 52 62 73 74 80 73 61 49 54 51 76 92 86 85 82 82 78 75 78 80 82 81 80 81 81 80 79 79 78 79 78 75 75 73 72 71
68 74 72 65 57 50 43 38 37 37 40 41 43 47 54 60 70 83 88 75 70 65 53 49 65 78 77 72 72 74 75 75 77 78 78 79 81 78 79 79 79 78 77 75 74 73 69 68 68
67 72 67 61 55 42 36 33 31 34 37 38 40 42 50 54 62 69 78 84 81 81 63 55 57 60 67 71 68 64 65 68 73 73 73 72 75 73 67 67 70 71 68 66 65 65 64 63 64
71 70 68 58 44 35 30 28 28 30 33 35 37 36 42 45 52 61 65 69 71 66 46 42 35 40 49 61 63 64 59 56 58 58 57 58 60 59 58 59 59 58 56 58 59 59 59 57 59
69 71 65 50 41 34 30 25 24 24 27 33 34 32 34 38 45 49 56 53 49 37 50 30 21 27 25 33 43 49 54 53 48 47 51 50 53 48 48 50 52 52 55 53 55 54 53 56 58
68 72 63 49 41 35 26 23 22 21 23 26 28 30 28 34 39 44 45 48 43 38 43 51 43 36 41 44 37 37 37 43 35 36 31 28 40 38 45 48 52 56 56 59 51 54 58 59 57
68 71 60 49 34 26 23 20 17 17 17 17 15 24 31 21 30 39 46 50 49 43 49 48 46 49 51 42 34 27 31 37 34 30 31 35 38 39 39 50 49 52 48 45 48 59 56 56 57
64 65 57 45 28 15 14 15 12 11 11 17 20 17 20 17 27 31 41 44 47 51 55 57 55 59 52 46 34 33 45 44 37 44 33 50 39 37 42 47 50 49 53 51 52 55 55 53 60
60 59 52 38 19 12 15 9 7 15 15 20 25 21 22 23 26 33 33 38 47 49 63 67 62 56 45 44 43 43 48 47 42 41 47 52 43 47 50 54 62 61 59 62 56 56 61 62 67
59 56 46 30 12 17 13 10 11 13 18 25 31 29 22 27 32 36 38 39 42 50 61 70 69 61 50 52 52 51 50 48 49 50 51 54 54 47 47 53 60 60 63 59 60 66 68 71 68
56 54 43 25 12 15 16 8 9 13 18 26 31 28 29 33 33 31 30 33 37 47 58 60 66 68 60 57 60 53 56 53 55 48 55 59 63 58 50 55 61 64 61 62 69 72 64 71 68
56 55 42 24 12 19 23 17 17 13 17 25 28 29 25 27 20 17 21 26 32 39 51 61 62 64 58 59 65 61 58 57 60 53 55 58 58 48 56 61 57 63 69 71 74 57 60 66 69
52 49 38 27 9 12 26 15 24 11 19 23 30 31 23 20 15 16 23 26 29 31 41 47 63 64 61 65 65 65 62 57 52 55 55 56 57 53 53 58 62 60 64 63 65 67 70 73 69
49 47 32 27 8 2 15 13 13 6 16 24 22 24 21 23 17 21 21 16 28 33 30 43 54 64 64 65 69 65 66 58 60 57 55 54 55 59 60 58 57 62 61 61 62 62 70 75 78
43 47 33 29 13 3 14 10 12 6 10 14 13 19 23 22 19 17 20 20 15 22 26 19 46 56 62 66 58 61 50 55 59 45 53 50 53 57 57 60 61 64 63 64 70 77 75 77 73
40 43 41 25 18 2 7 13 11 6 10 15 16 14 21 24 23 16 18 19 14 26 20 28 27 37 39 47 47 52 57 46 45 49 50 49 55 57 61 69 68 68 70 76 78 73 70 70 69
39 41 43 23 21 10 8 5 7 8 9 8 22 21 20 24 25 18 17 24 29 28 30 25 33 38 42 48 50 47 50 55 52 58 59 56 58 58 58 62 68 75 74 67 70 71 68 66 74
36 37 40 27 20 16 10 9 5 8 12 11 13 25 26 23 27 31 29 26 22 24 26 28 30 38 37 47 51 51 51 51 59 59 61 65 67 69 67 71 67 72 73 71 69 72 68 67 67
31 33 37 38 16 20 15 10 8 8 17 19 16 18 21 28 32 33 33 30 28 26 29 27 25 26 30 45 48 58 56 57 58 60 60 62 65 65 75 79 73 69 68 71 70 69 69 66 66
31 30 34 34 25 17 18 15 14 13 15 20 20 19 18 20 24 29 35 35 33 31 34 30 30 27 28 30 34 37 43 49 51 55 58 64 65 67 67 63 65 68 68 66 66 66 65 66 66
31 29 31 32 32 19 18 18 16 15 15 16 18 23 21 21 21 24 27 30 29 31 32 31 33 37 36 37 39 42 45 49 53 56 58 58 60 60 62 62 61 60 62 62 63 64 65 65 69
31 27 30 32 31 25 18 20 18 21 20 19 16 20 22 22 24 25 26 26 32 35 33 33 32 31 35 37 37 42 46 45 45 49 53 55 56 56 56 54 55 56 61 64 65 65 66 69 73
32 28 29 31 31 30 26 19 23 25 24 23 22 23 23 24 28 26 30 26 26 27 30 31 30 30 31 27 35 39 42 49 47 49 52 52 51 49 49 51 58 62 65 67 68 67 69 74 79
34 30 28 29 31 27 26 23 21 26 27 26 26 25 25 27 27 28 28 30 30 31 32 33 32 34 35 34 41 35 42 52 49 48 51 48 43 49 54 58 62 64 66 66 67 71 74 79 82
36 33 29 29 32 30 30 25 24 24 27 29 27 28 30 31 29 29 30 31 32 33 34 35 36 38 40 41 43 48 54 53 50 48 46 46 50 56 59 63 63 62 65 68 72 76 78 81 85
39 36 33 30 32 28 32 28 25 21 25 30 32 35 36 35 33 31 32 34 35 34 34 35 35 39 41 42 44 46 48 49 49 49 48 51 55 60 63 62 62 64 68 72 75 80 81 86 90
43 38 34 31 31 28 29 31 26 28 23 29 36 37 37 39 39 39 39 40 40 40 40 39 39 39 41 45 48 49 45 48 48 51 53 54 58 60 62 63 65 67 72 77 82 84 88 89 93

GFSSGP_250_spd_054.txt.gz
Wind_Speed
67 69 67 72 72 69 75 78 72 72 67 52 49 46 45 44 47 47 27 45 69 48 53 53 61 76 88 91 92 90 89 86 85 83 82 82 80 79 79 78 76 77 77 78 76 77 77 78 78
68 69 71 72 68 73 76 76 69 63 50 45 43 45 34 26 31 36 44 64 55 36 44 55 60 68 78 89 91 90 89 88 87 85 83 83 81 82 80 81 80 79 79 80 80 79 81 81 81
70 69 67 66 69 72 75 71 65 50 43 39 38 44 10 16 40 31 42 66 68 46 42 44 39 52 59 81 91 89 89 87 87 84 84 84 82 83 84 82 82 81 81 81 82 81 81 82 81
64 64 61 65 69 71 69 59 51 40 31 27 34 25 15 28 46 46 45 58 72 51 22 46 49 48 58 59 77 88 82 85 82 80 85 85 85 86 86 84 83 81 81 80 83 83 81 81 81
60 60 62 65 66 65 61 51 43 30 18 17 26 31 25 24 46 55 53 59 86 72 37 35 52 47 54 52 60 74 78 75 78 84 81 78 77 79 80 81 81 81 81 83 81 80 79 79 78
56 57 63 66 67 61 51 40 24 16 5 9 29 39 37 43 43 58 61 55 64 87 66 59 47 31 38 30 35 46 66 77 75 70 71 79 77 78 76 76 77 76 77 74 72 71 71 69 65
60 58 63 66 63 54 41 25 12 6 14 8 22 37 23 42 30 51 62 68 64 69 73 59 46 38 36 35 39 44 49 61 69 68 63 64 66 67 67 62 64 62 58 60 58 61 60 59 59
57 58 62 64 58 44 27 15 8 13 20 21 23 30 52 47 37 47 66 66 69 59 65 67 51 43 27 25 28 31 35 44 51 53 58 57 55 49 48 49 47 49 51 51 56 54 57 57 56
53 55 61 61 50 33 17 13 2 4 17 4 10 19 44 47 31 37 52 77 73 70 65 61 56 46 40 30 32 26 28 36 39 42 46 44 48 44 36 37 39 43 45 47 50 48 47 46 45
49 54 61 56 43 20 20 17 11 12 12 23 23 26 46 40 30 39 52 72 68 83 78 68 59 58 51 46 36 36 47 28 26 27 30 36 37 35 36 35 34 41 42 46 47 44 39 44 50
48 52 58 50 37 20 15 11 19 14 10 22 24 34 22 40 35 32 41 54 73 73 74 64 68 69 53 51 47 47 34 29 32 36 36 39 37 35 37 33 39 41 46 47 46 40 57 64 63
44 51 56 44 30 22 5 2 9 17 30 23 22 15 29 37 37 35 42 46 48 57 59 55 56 64 60 53 52 48 38 34 38 43 42 42 42 39 48 43 48 50 50 47 47 51 57 56 59
44 48 54 41 23 18 11 18 10 21 20 16 24 26 26 30 33 35 38 41 44 58 53 58 63 66 63 53 55 43 44 42 49 45 49 50 45 48 51 48 48 51 51 46 55 50 53 59 63
40 46 52 40 18 17 19 16 14 18 32 23 25 24 24 30 33 36 34 41 49 55 57 58 67 64 58 54 55 52 48 54 55 55 44 47 48 50 50 53 50 53 51 50 56 60 59 62 65
38 43 50 43 17 21 23 18 7 9 17 31 27 23 26 29 28 31 26 30 37 47 59 60 63 69 60 58 58 56 58 60 56 49 43 47 53 55 57 59 57 58 57 59 61 61 60 63 63
36 39 46 46 16 10 12 9 8 10 16 29 33 29 21 19 16 15 19 24 32 37 54 60 65 69 64 58 54 55 63 56 58 56 49 49 53 57 57 62 56 50 53 56 63 64 64 65 66
34 37 42 46 28 6 9 10 5 16 25 22 24 25 21 16 10 11 14 19 27 33 41 52 63 65 68 58 60 52 60 63 59 57 54 56 53 58 59 57 56 56 61 64 65 65 66 67 70
33 34 38 44 31 19 7 17 7 9 19 22 18 12 21 18 16 15 13 15 14 20 28 40 53 60 62 63 58 53 55 54 60 57 64 59 58 58 61 62 62 59 61 62 65 69 72 80 77
35 34 35 39 40 23 21 18 15 16 20 22 13 13 14 25 22 18 23 20 15 15 16 31 35 56 56 54 66 55 51 40 46 42 43 48 54 60 56 57 60 64 65 67 71 71 72 71 75
35 34 31 36 39 31 19 20 15 2 14 31 18 15 17 21 25 25 19 21 23 19 18 22 23 20 31 51 46 45 49 52 44 46 50 46 56 57 62 61 63 65 67 67 69 74 76 79 84
35 32 29 34 36 37 19 17 15 16 29 14 11 21 19 21 22 20 24 27 23 24 25 30 32 36 35 37 41 40 43 45 44 45 50 54 59 61 66 68 70 73 72 75 79 81 81 78 80
33 31 27 30 36 36 29 16 14 16 19 18 20 21 30 24 23 28 29 28 27 30 34 34 33 34 38 40 44 45 45 50 53 52 55 58 60 65 66 66 67 67 72 75 77 79 74 75 74
36 30 28 26 32 38 33 19 17 16 16 21 26 27 20 21 31 32 34 38 36 29 27 26 28 27 23 26 38 50 50 51 56 59 62 60 64 63 65 67 67 71 73 74 78 76 73 75 73
37 32 27 27 28 35 38 29 20 16 23 20 20 25 26 22 23 25 26 32 38 40 34 30 29 29 27 30 30 31 34 39 47 53 56 57 59 59 61 64 67 72 72 73 73 70 70 69 70
36 33 28 31 28 31 37 33 29 20 23 17 21 22 25 28 24 23 25 23 29 33 33 32 30 30 33 32 33 36 39 38 42 46 47 50 59 60 59 61 64 64 66 66 67 68 67 70 73
36 31 35 33 31 32 35 36 35 26 27 20 23 28 23 26 28 28 25 29 28 30 36 40 42 39 36 32 33 36 37 34 28 38 45 41 45 46 51 57 58 59 63 63 65 66 71 74 78
39 30 37 31 34 33 31 36 36 30 27 24 23 26 29 27 28 27 26 29 31 34 33 32 31 31 33 35 34 35 35 29 26 42 42 40 48 49 56 58 56 61 63 65 68 72 74 74 74
35 35 35 35 36 37 30 36 33 29 28 27 24 24 27 32 32 31 33 32 30 33 36 37 36 36 33 35 37 39 40 43 43 46 49 61 61 61 52 50 58 64 68 70 73 74 75 75 77
40 38 33 35 38 37 34 32 37 29 26 27 26 29 30 31 34 35 37 35 33 31 33 37 38 35 29 27 35 37 41 48 49 54 60 60 64 60 58 59 60 64 69 73 78 78 78 81 84
40 34 35 37 38 39 35 33 34 33 31 25 29 30 29 34 35 37 40 40 38 38 36 40 42 39 33 29 34 45 48 50 50 48 53 58 56 59 59 61 63 67 71 75 77 77 80 84 86

GFSSGP_250_spd_057.txt.gz
Wind_Speed
60 60 68 72 72 74 72 75 75 74 68 62 58 55 54 56 56 51 38 39 44 33 18 24 54 58 54 54 61 65 78 86 88 89 88 87 85 85 81 81 80 80 78 78 77 76 77 76 77
65 69 70 72 68 68 70 67 72 69 61 56 51 45 46 46 43 39 32 37 50 48 45 49 26 50 47 55 61 66 72 79 87 88 89 89 87 86 85 84 83 81 81 80 79 81 81 79 78
69 67 68 69 67 67 67 67 68 65 57 49 40 34 36 34 34 31 33 39 53 59 58 50 38 42 25 34 45 54 59 71 84 88 88 85 86 88 87 85 84 84 83 83 81 82 82 81 79
66 65 63 62 61 64 64 65 60 56 47 39 29 29 37 41 37 35 34 43 44 60 65 63 52 21 27 48 41 40 42 46 63 83 83 84 84 84 85 85 85 85 84 82 84 83 82 82 80
49 52 51 52 55 57 59 55 48 31 23 16 12 17 34 33 30 29 20 31 52 63 57 49 40 33 35 48 32 33 37 44 43 51 72 78 77 81 83 81 81 83 85 84 84 83 82 78 75
48 48 47 51 55 55 55 44 22 2 3 13 20 35 34 27 27 25 26 42 46 64 59 41 41 38 50 42 32 29 41 32 38 41 51 66 75 75 74 74 77 77 77 78 78 76 76 76 76
47 48 49 52 56 54 50 34 10 10 4 16 24 38 38 29 28 36 30 48 58 54 55 52 43 49 46 48 49 38 40 35 31 31 38 48 61 64 61 62 62 63 69 76 74 70 65 64 59
48 46 47 51 53 51 46 16 12 10 10 20 34 33 34 46 36 36 34 50 54 52 52 63 55 55 48 40 43 39 38 33 29 30 32 39 48 56 59 59 59 54 53 55 54 47 53 54 51
43 44 46 48 51 38 27 12 13 13 16 20 24 35 37 44 34 42 40 40 48 52 49 63 64 69 66 58 48 37 36 26 21 24 29 29 34 40 40 46 51 51 46 40 40 42 44 43 46
42 42 42 48 49 33 13 20 31 17 17 26 31 34 36 50 47 43 51 50 53 56 59 64 66 63 60 62 54 45 43 32 27 24 21 26 30 36 33 38 40 43 48 43 41 42 40 42 46
37 39 40 46 47 31 13 10 20 9 21 15 27 37 36 42 37 46 54 55 54 59 66 61 63 65 61 58 55 50 45 44 39 31 29 28 31 33 35 38 40 38 41 41 41 47 49 50 44
35 35 37 44 42 27 1 9 15 23 11 19 20 26 40 45 44 47 44 52 42 63 75 73 69 62 62 63 56 50 48 43 37 38 36 39 40 40 38 38 36 39 41 44 44 46 44 47 39
33 34 37 43 39 14 8 19 18 7 16 13 19 21 32 43 37 41 42 44 39 53 70 75 74 69 64 59 62 62 56 47 41 38 40 42 43 44 44 42 45 45 45 50 47 47 45 47 48
29 32 34 41 40 13 13 24 13 11 15 11 23 27 24 36 32 29 32 37 43 47 59 73 73 73 72 66 65 62 59 50 46 44 46 46 44 45 47 48 48 50 52 48 50 50 55 52 51
27 31 32 35 42 18 13 24 21 13 8 10 16 17 26 31 27 30 34 36 38 46 55 64 76 75 72 64 62 58 58 55 56 58 53 51 49 52 49 53 54 54 51 52 52 51 49 51 56
26 30 33 32 36 31 13 22 15 10 5 10 15 19 26 32 19 20 22 25 32 44 57 65 72 72 67 66 64 62 62 58 59 61 60 59 50 48 51 47 50 55 55 55 57 59 60 59 62
24 30 35 33 30 38 15 19 30 17 3 11 18 26 22 31 16 10 14 20 26 33 42 49 63 65 62 62 62 57 57 60 60 62 59 58 54 48 47 49 50 52 57 56 57 60 61 63 63
21 27 28 32 31 33 26 16 22 21 16 14 18 18 19 30 21 15 12 20 28 33 38 44 49 54 58 59 63 57 59 54 58 59 61 61 62 61 55 52 53 53 52 57 62 62 64 62 69
23 29 29 29 29 32 33 18 17 31 30 19 19 20 21 24 25 17 15 17 23 31 35 38 47 55 58 58 60 63 60 58 55 55 51 55 62 66 59 54 59 62 67 68 67 69 69 74 74
28 26 33 30 27 30 34 35 18 11 17 26 16 18 21 17 23 25 18 20 22 24 23 31 38 55 57 59 56 61 62 65 59 56 51 50 47 55 58 64 60 60 60 63 66 67 67 67 72
27 27 33 32 28 29 34 36 32 7 17 14 21 16 19 19 18 22 23 26 27 24 26 23 19 27 28 41 48 55 58 62 62 53 53 51 49 53 53 57 61 59 60 62 64 67 70 76 76
38 26 34 34 27 27 31 34 31 17 10 20 22 28 23 30 24 20 24 24 25 27 26 27 26 26 34 27 29 29 37 42 45 49 48 50 54 52 52 53 60 58 63 64 69 71 72 75 76
36 35 31 36 26 27 30 33 36 31 16 21 24 27 27 27 26 31 26 29 32 32 31 29 31 32 35 40 39 43 38 45 48 49 52 51 55 55 58 56 62 65 62 64 64 65 67 71 74
38 40 41 36 26 28 30 31 34 38 31 18 18 17 22 28 26 23 31 32 32 37 35 32 33 33 33 34 34 33 39 39 46 50 53 57 57 61 59 60 60 61 57 62 62 66 69 72 74
49 40 39 44 30 29 28 29 33 35 35 27 14 21 18 20 23 28 23 25 29 33 41 40 32 28 27 32 34 32 34 37 38 43 46 51 55 55 58 62 62 64 62 62 59 62 68 70 74
51 40 42 41 29 27 31 29 30 33 34 33 22 15 21 21 22 25 28 27 28 28 26 38 34 32 31 32 34 38 39 41 44 47 50 52 53 56 53 53 52 53 61 68 68 71 75 73 72
46 38 44 31 34 27 29 31 33 32 33 37 32 23 16 25 26 25 26 34 33 31 30 30 32 34 38 38 43 47 48 45 42 42 42 47 49 48 46 43 48 61 66 71 75 77 75 75 75
46 37 39 46 41 30 28 30 31 33 29 30 32 33 28 20 21 28 28 29 32 32 30 29 30 31 32 33 31 32 36 34 37 41 43 47 47 43 44 49 58 62 66 68 67 69 71 74 77
52 43 40 48 36 29 30 30 37 32 32 29 30 34 30 32 31 25 27 29 32 33 30 27 26 24 25 31 30 27 30 35 41 45 44 48 49 51 52 58 64 67 70 73 72 73 75 77 79
56 54 50 43 38 34 29 33 35 36 33 31 28 33 30 31 36 29 30 29 30 32 32 36 30 25 21 28 29 31 29 39 31 47 50 57 60 53 56 62 67 71 74 78 78 74 76 75 76

GFSSGP_250_spd_060.txt.gz
Wind_Speed
55 57 59 64 70 73 74 76 76 74 73 73 71 66 64 61 63 65 54 53 45 41 40 43 41 23 52 46 40 44 52 57 62 69 73 85 87 88 86 85 86 85 83 82 81 79 79 79 79
54 56 66 69 66 65 67 70 73 73 70 67 61 57 54 53 54 53 48 45 41 48 52 55 51 35 50 58 49 40 46 52 56 58 62 72 86 87 87 87 85 84 85 84 84 82 81 83 82
56 65 63 58 57 56 61 64 69 69 62 58 57 48 45 41 43 44 38 35 38 59 54 58 57 51 54 38 19 18 23 34 47 58 62 65 69 79 84 85 85 85 85 85 84 83 84 85 84
60 58 54 53 52 53 55 59 61 63 60 55 48 37 37 37 34 34 31 36 46 59 68 53 55 52 40 27 31 28 33 30 38 43 50 52 62 67 74 80 82 81 83 85 84 83 84 85 84
59 51 50 48 51 54 54 56 57 54 52 43 32 29 27 30 33 30 34 41 53 63 60 51 53 41 32 22 17 35 48 47 36 34 43 39 44 56 58 71 79 80 79 81 82 81 81 79 82
45 43 45 49 51 50 53 53 55 43 41 35 26 26 21 27 29 41 37 45 63 64 51 60 45 35 31 33 32 42 52 46 44 35 32 27 36 44 43 49 64 76 76 78 79 79 77 77 80
44 45 44 47 46 50 55 52 47 30 31 26 23 28 36 41 45 43 38 42 49 61 49 54 49 46 40 42 42 42 52 46 44 35 28 26 29 28 34 41 47 56 65 66 65 65 66 64 64
41 40 40 42 42 50 52 42 32 31 19 19 34 46 45 44 43 44 46 47 46 53 69 63 57 52 47 42 43 46 41 38 34 29 26 32 26 30 30 33 40 48 54 58 58 52 52 46 49
36 36 35 37 41 47 44 27 24 17 16 20 42 46 40 41 47 45 45 50 55 63 70 70 51 52 52 56 50 43 55 44 42 32 33 24 27 32 31 32 38 43 50 55 58 53 52 39 45
32 34 32 36 41 40 34 16 18 12 13 26 39 44 43 41 42 38 42 44 49 47 63 59 65 62 56 49 69 59 56 57 54 34 34 33 32 36 33 31 36 42 49 49 51 46 44 48 48
30 31 29 34 36 36 30 14 16 12 18 25 23 33 39 38 45 40 45 46 48 45 49 61 59 68 72 66 66 68 62 57 52 53 38 31 36 42 35 33 40 45 46 49 47 45 46 47 46
30 27 26 30 33 33 24 14 22 21 21 25 16 12 28 38 38 46 51 43 48 46 39 47 60 69 76 70 71 72 64 60 59 57 39 36 39 36 40 40 44 45 48 46 41 41 39 40 41
29 26 23 26 29 35 28 25 28 19 24 23 16 12 4 21 43 39 53 37 44 46 44 36 49 68 69 77 76 71 70 63 58 56 52 47 42 42 42 39 41 42 44 43 45 44 43 46 47
30 24 21 25 25 31 29 20 25 35 24 30 22 15 17 17 32 38 45 55 51 51 55 51 48 61 65 65 72 79 76 73 62 55 49 47 47 47 46 45 41 46 47 45 46 45 49 48 46
29 21 23 26 25 27 32 27 34 30 23 26 27 23 25 22 10 36 28 42 43 47 54 60 56 67 71 69 67 70 68 67 57 54 51 52 52 48 50 47 49 47 48 48 51 52 53 51 52
31 22 21 27 26 25 26 26 29 26 23 22 25 23 25 27 22 17 23 25 31 36 43 50 60 56 77 75 71 69 69 66 66 66 61 56 55 53 52 51 52 48 50 53 55 52 50 56 60
31 26 26 29 27 27 28 31 20 28 33 31 30 23 25 25 19 18 19 22 25 29 35 41 45 50 55 77 74 69 64 65 65 60 61 62 61 60 60 58 56 54 52 52 50 47 51 54 57
26 30 33 29 30 32 26 30 30 24 26 32 27 25 35 22 17 22 23 19 24 29 30 36 38 41 55 73 76 72 64 64 62 60 60 62 61 57 61 64 61 61 59 55 53 55 52 55 56
23 28 31 28 27 34 23 27 33 27 25 30 32 34 29 26 22 18 22 20 20 24 32 32 39 40 49 60 77 76 69 66 57 59 56 57 60 59 59 60 63 63 66 65 68 67 64 67 70
26 25 29 29 28 29 24 20 29 33 22 26 26 30 28 22 26 19 22 22 16 15 20 28 31 40 43 52 68 70 73 62 55 55 51 53 59 57 57 59 64 64 65 65 66 69 72 75 73
27 28 29 26 32 35 30 22 23 31 32 23 24 24 22 21 21 23 21 25 19 16 14 16 20 26 32 34 42 53 57 56 57 56 62 53 60 60 61 58 59 61 64 63 63 63 66 65 67
32 29 30 30 32 33 35 24 29 26 31 26 23 29 24 26 25 26 25 18 21 18 17 17 15 18 19 14 20 31 39 40 45 43 46 53 56 57 61 61 62 62 63 60 63 65 67 64 64
36 32 29 32 32 37 31 28 26 26 29 29 25 23 34 39 39 35 28 29 21 23 21 21 23 24 24 25 30 30 31 32 30 36 38 41 44 46 50 56 60 61 62 66 66 67 65 65 65
41 38 35 35 34 33 33 33 25 27 28 30 34 26 24 26 25 24 23 19 24 24 26 25 27 30 30 32 32 35 38 36 41 40 43 43 46 48 52 56 59 64 67 66 67 66 63 62 67
44 41 39 38 37 34 34 32 28 24 27 28 31 32 27 24 22 23 16 16 15 20 26 32 32 34 34 38 33 37 40 40 36 36 42 40 42 45 48 50 52 55 60 64 66 69 71 74 73
47 43 38 40 38 37 35 30 34 24 22 24 24 29 29 23 23 19 20 14 19 22 22 23 30 31 36 32 32 32 33 35 36 36 41 43 43 45 48 48 49 48 52 51 58 65 67 67 69
49 50 44 40 40 41 32 30 38 29 21 22 27 22 27 29 26 22 18 19 22 26 24 24 27 28 26 31 32 32 33 36 39 42 45 47 49 51 51 48 46 48 51 53 62 67 68 72 77
57 55 49 38 41 36 32 33 33 39 31 23 25 25 24 28 28 24 23 24 23 26 31 31 26 24 27 30 30 30 30 30 32 34 34 36 40 43 44 42 47 50 57 61 66 69 73 75 76
61 60 45 43 39 45 40 36 30 38 40 26 26 27 25 24 23 24 21 20 24 25 28 32 30 24 22 21 21 21 26 29 31 32 22 32 39 49 52 54 53 53 54 62 68 71 75 78 81
62 58 57 49 46 45 44 35 36 38 42 29 24 29 29 27 23 23 23 22 21 22 26 26 28 27 24 18 21 25 31 39 36 31 28 25 32 63 61 52 55 60 62 62 64 68 74 82 88

GFSSGP_250_spd_063.txt.gz
Wind_Speed
51 52 57 60 64 66 67 71 74 71 69 68 69 71 71 69 70 72 69 61 59 59 57 51 48 45 35 38 38 40 39 45 47 47 54 61 67 74 80 89 91 90 88 87 85 87 84 82 83
50 52 58 61 64 69 73 74 67 68 64 64 71 69 64 63 63 65 62 60 57 54 49 48 44 44 46 50 43 36 42 42 43 46 49 57 64 66 72 79 85 90 90 89 89 87 87 86 84
48 52 58 63 69 71 67 63 61 63 62 61 69 61 54 57 58 58 57 59 57 54 48 44 49 45 45 39 37 37 45 39 46 44 35 46 53 65 67 64 72 78 86 86 88 90 88 86 85
47 55 59 64 56 58 58 59 60 61 61 61 68 57 50 49 46 46 49 53 52 46 44 43 63 51 39 42 34 39 32 36 29 24 26 32 39 45 54 58 60 62 69 80 86 86 86 85 85
55 61 58 57 54 54 58 58 56 58 59 65 59 43 36 31 35 38 38 40 40 36 42 57 59 56 45 41 35 39 45 39 42 33 28 31 37 40 43 51 54 56 59 64 72 81 83 82 80
50 53 52 53 54 54 53 51 53 56 55 54 47 37 30 22 21 19 20 23 33 36 37 65 61 59 42 27 35 34 38 41 45 39 30 39 42 39 28 29 31 41 47 49 56 60 71 77 78
51 48 46 47 47 47 50 49 50 52 45 39 40 36 26 20 17 20 25 27 32 32 46 56 49 58 38 22 38 40 41 36 39 30 36 48 45 36 25 23 25 34 39 39 47 52 58 63 68
31 36 39 42 42 45 46 46 47 46 39 30 35 30 20 14 31 32 30 38 52 54 53 47 42 52 40 44 46 43 39 35 36 36 46 48 43 44 38 22 20 27 24 30 36 38 40 44 50
36 41 39 40 39 39 42 46 41 31 32 27 29 23 22 28 32 36 35 49 54 57 58 52 57 54 52 51 40 44 41 38 39 42 48 47 35 30 29 31 31 36 36 37 35 37 41 42 48
37 41 40 39 36 35 39 39 34 16 26 25 24 28 32 39 39 37 43 55 56 51 64 60 66 66 57 46 36 46 45 40 38 44 47 44 28 26 36 38 32 30 39 34 36 44 50 54 47
35 38 38 34 34 31 36 34 22 22 29 24 23 30 39 42 38 39 49 60 66 46 48 67 70 70 67 52 49 55 54 45 48 45 46 41 30 34 40 41 46 42 43 48 49 46 46 44 47
35 31 34 30 28 28 32 27 22 26 32 23 25 34 40 45 43 43 39 62 75 52 47 55 69 71 68 62 57 62 59 55 47 48 50 46 43 45 40 44 44 51 55 51 51 41 43 45 46
32 31 31 26 27 28 31 28 24 27 31 23 25 26 37 39 40 50 45 52 79 55 50 55 64 69 63 63 65 69 68 61 62 47 46 46 42 43 48 46 46 50 38 41 42 39 41 46 46
26 26 28 28 30 29 31 29 29 22 30 33 26 29 32 34 30 45 47 55 54 60 51 53 54 65 69 72 70 67 66 59 62 66 60 58 57 54 54 49 43 44 43 45 42 44 46 45 46
25 26 25 32 33 29 30 30 27 29 26 27 32 32 36 24 33 36 41 53 56 56 64 55 52 62 58 60 73 74 64 69 65 64 67 68 63 59 59 49 49 53 55 51 46 47 44 47 50
23 24 21 33 37 28 25 30 30 30 24 28 33 29 23 22 25 29 29 50 63 63 70 65 57 53 60 59 59 65 72 75 76 66 64 65 69 67 68 62 63 59 58 56 52 48 51 47 52
22 21 25 30 33 31 26 26 30 27 30 24 26 32 33 36 24 23 24 34 58 68 68 75 67 58 58 67 61 59 59 71 76 75 74 71 70 69 62 66 62 59 56 57 55 58 57 58 58
20 21 24 22 32 33 29 28 31 28 27 27 23 27 29 33 32 18 20 23 25 49 60 70 77 71 67 61 62 62 59 65 74 76 72 68 66 66 65 66 62 58 62 63 58 60 62 63 64
22 25 18 20 24 28 37 34 30 33 30 28 20 21 26 32 31 22 13 11 19 22 33 45 60 61 61 57 60 57 64 69 76 75 71 69 68 63 61 64 61 59 64 61 59 59 61 63 63
27 28 22 19 26 26 30 32 33 32 33 30 29 21 22 21 21 14 11 8 15 16 21 30 35 42 45 49 41 42 51 60 72 70 65 60 61 59 58 58 55 56 58 57 61 60 59 62 65
31 28 28 28 25 23 28 29 35 34 37 31 29 29 22 25 27 19 18 13 12 20 19 22 23 29 30 30 35 34 37 44 55 66 70 70 57 57 57 59 61 56 59 61 64 68 70 73 71
33 26 31 32 28 25 31 29 34 36 33 34 27 27 26 23 29 31 31 28 24 17 21 21 23 20 24 28 26 26 27 29 42 56 57 63 61 50 56 53 58 65 65 66 68 70 71 72 68
39 29 29 33 30 28 28 26 32 33 33 37 31 28 30 27 20 24 28 25 22 19 20 24 25 22 20 19 25 24 19 22 27 28 33 36 41 47 49 48 49 53 55 55 57 56 59 58 58
39 32 32 34 30 34 28 27 29 32 34 34 35 27 28 28 24 17 17 17 20 21 23 26 26 27 25 23 22 23 24 26 28 30 32 31 36 40 40 41 47 45 48 47 48 49 54 55 56
44 40 37 35 36 33 29 31 29 28 29 32 38 35 29 29 26 23 15 16 18 20 20 25 30 27 24 24 27 31 31 31 29 33 35 37 40 39 37 41 42 43 42 46 48 50 52 60 67
48 47 43 40 36 32 32 35 28 26 26 26 33 38 33 28 26 25 23 19 15 20 23 19 23 25 31 29 28 28 39 37 33 34 36 36 34 35 38 40 41 42 44 44 48 50 43 58 68
55 49 46 42 39 39 36 36 28 26 26 25 31 35 37 29 28 25 22 19 18 17 18 22 22 23 24 26 24 26 28 30 31 31 33 35 37 39 41 40 40 40 42 42 41 40 43 45 62
59 55 47 46 42 42 41 38 32 31 30 27 30 33 36 35 29 31 28 22 16 13 21 22 23 26 23 26 29 25 24 26 27 28 31 35 36 36 40 38 39 41 38 46 38 40 57 60 63
52 51 51 51 47 46 43 35 34 32 34 30 29 32 32 34 29 31 32 30 24 18 11 23 25 26 29 27 24 19 16 16 18 24 26 33 34 28 34 40 44 49 46 49 56 57 53 59 67
52 48 49 52 51 47 43 39 41 37 35 35 32 30 30 33 30 30 28 32 26 20 17 12 25 28 28 27 22 22 22 17 28 41 38 40 36 35 29 46 51 54 56 62 64 69 69 73 79

GFSSGP_250_spd_066.txt.gz
Wind_Speed
49 49 52 51 51 52 55 58 62 65 68 72 72 71 73 72 71 71 74 74 66 68 68 66 62 64 61 56 58 55 53 55 62 52 52 53 55 68 73 70 76 80 87 91 89 90 90 89 88
49 52 48 48 53 56 56 60 64 68 67 67 67 69 72 68 66 67 67 69 63 58 59 64 61 63 59 51 52 52 42 43 43 34 36 38 35 44 55 62 65 74 79 83 86 85 86 89 90
52 47 46 50 52 55 62 63 63 65 64 64 63 66 69 66 61 64 67 64 61 54 54 59 58 57 54 46 48 48 37 31 41 40 39 38 39 45 46 50 57 62 70 71 80 82 84 86 87
49 48 49 48 53 58 62 60 60 60 59 60 58 62 64 61 55 53 53 55 54 53 53 56 57 53 45 42 47 49 48 40 39 48 39 40 39 41 38 35 36 47 61 64 64 63 72 77 81
49 47 48 54 59 44 45 47 46 52 56 56 57 58 58 56 44 42 37 38 37 39 41 47 51 47 39 44 48 45 48 44 25 27 31 37 42 34 36 34 34 38 43 49 50 54 61 63 63
49 47 54 59 41 43 47 48 50 53 52 53 52 55 50 43 27 24 25 24 21 20 24 35 40 37 41 42 47 46 43 35 28 31 30 31 29 28 28 35 34 30 26 27 29 38 43 42 48
54 54 48 35 41 44 47 48 49 52 51 47 53 43 38 37 24 20 15 8 12 17 23 27 31 40 41 29 31 36 38 38 40 39 39 40 42 35 32 38 36 25 28 24 23 18 23 26 29
38 38 32 37 40 45 43 45 48 48 46 47 38 32 33 19 5 7 3 14 21 25 28 34 28 25 34 31 30 27 35 41 48 46 44 40 36 32 34 35 43 40 29 20 23 15 18 19 33
27 29 32 38 39 37 40 44 45 42 42 31 29 31 31 13 12 9 8 17 26 32 41 34 33 16 42 38 40 33 35 52 42 46 41 41 39 31 40 29 34 39 37 36 31 26 25 35 38
23 31 35 34 34 34 35 37 41 39 39 33 27 30 27 14 16 17 15 25 39 43 54 34 35 49 46 52 43 44 44 54 42 41 38 40 33 34 34 39 37 42 38 37 34 35 34 38 44
25 31 35 31 33 28 31 35 37 38 38 34 27 29 28 21 24 31 25 38 42 50 60 38 38 50 57 57 50 51 49 48 43 43 43 40 41 46 43 39 39 43 41 37 39 39 41 42 48
31 29 25 28 24 26 30 29 32 34 38 32 22 22 23 23 27 41 38 47 48 60 64 42 38 45 65 68 49 51 46 42 40 41 44 41 47 47 45 42 33 36 40 42 45 46 46 44 49
25 17 21 24 22 30 27 28 29 31 35 32 23 18 24 27 32 39 44 54 57 62 60 48 38 45 54 68 59 54 49 44 42 40 41 39 43 40 38 36 37 39 38 43 48 37 39 43 47
17 13 18 23 22 26 29 27 27 29 34 36 27 14 21 22 36 39 42 54 55 56 52 54 40 48 53 65 65 55 52 49 51 45 47 48 40 35 32 34 35 38 40 45 42 37 36 41 44
14 12 16 18 21 27 33 26 26 27 32 36 36 22 15 27 24 43 47 46 64 61 52 58 51 44 52 54 65 66 59 66 57 61 60 54 51 48 44 44 47 50 47 48 45 47 48 49 51
16 11 12 16 17 20 26 28 32 28 30 33 36 30 21 15 17 26 29 49 62 56 58 55 60 53 46 57 50 66 61 57 67 64 63 66 61 59 59 61 58 59 59 57 59 55 53 53 52
18 12 14 13 13 15 21 29 32 32 30 34 37 36 26 20 18 23 20 29 49 58 62 59 63 66 60 52 60 56 58 56 62 63 61 66 65 62 61 60 60 59 63 63 59 58 59 59 58
22 18 15 16 12 15 21 23 29 33 34 35 35 37 33 23 17 17 24 27 36 49 65 64 64 65 66 57 65 66 59 55 55 62 64 65 65 67 70 71 67 66 67 65 62 60 59 56 59
26 25 19 16 17 16 17 21 29 35 32 36 34 34 35 22 14 14 7 16 29 29 38 63 66 69 71 64 63 64 64 65 70 63 66 67 64 66 67 68 73 68 61 58 61 61 61 64 54
32 29 28 21 21 21 24 21 29 31 28 31 34 32 33 31 17 12 10 7 18 22 30 33 48 60 74 70 71 70 68 69 68 70 77 68 67 67 65 70 70 64 61 60 61 60 60 55 54
33 35 27 22 18 22 20 21 27 29 26 29 30 34 33 36 29 15 12 15 15 15 17 22 25 36 51 68 68 78 79 73 70 62 65 67 67 68 67 69 68 64 62 62 65 63 60 58 61
37 33 33 27 24 24 20 24 24 24 26 28 28 31 35 35 34 23 16 12 14 14 18 20 24 27 30 39 53 58 72 79 67 55 62 66 66 61 59 63 62 60 63 68 56 55 56 56 58
42 33 34 28 24 26 25 21 28 25 25 28 27 31 30 34 36 30 21 16 13 14 19 23 23 23 25 26 32 33 34 40 45 43 42 46 45 49 47 53 61 63 55 53 58 58 56 55 53
45 39 38 36 27 24 31 27 32 26 27 26 27 28 29 30 37 34 27 19 16 16 15 23 25 25 26 23 22 25 26 27 28 30 30 31 30 35 39 40 46 51 51 52 56 55 50 51 55
48 47 42 36 31 30 35 25 34 24 28 26 25 29 31 32 34 37 30 27 18 16 16 17 20 28 27 30 25 22 24 24 24 27 27 28 35 36 36 40 41 40 44 47 47 45 47 50 51
49 47 42 42 37 36 36 27 36 27 31 29 25 28 28 29 34 34 32 28 24 19 16 16 18 25 33 31 30 27 29 33 33 33 34 30 32 35 40 41 39 43 46 47 46 45 48 50 52
50 48 49 48 39 36 36 32 38 33 31 30 27 28 29 27 32 31 31 28 27 23 19 18 19 23 25 27 33 32 30 30 31 33 39 40 37 35 34 33 36 40 44 46 45 47 49 47 51
57 55 53 48 40 39 38 39 41 41 32 30 26 31 31 32 31 32 31 29 28 23 21 19 19 23 24 27 26 28 32 30 28 25 24 25 28 28 30 33 35 38 39 42 47 49 50 41 45
59 58 56 52 43 40 41 41 47 46 35 29 30 32 33 32 31 32 34 27 29 26 20 21 20 22 26 27 28 27 29 32 31 28 29 27 26 31 34 37 36 41 45 47 47 47 48 49 51
63 59 57 50 44 41 39 38 51 49 40 34 33 34 36 35 34 34 32 32 29 31 27 20 21 22 26 28 30 32 32 34 34 34 31 32 27 39 43 43 39 40 45 49 50 51 58 58 54

GFSSGP_250_spd_069.txt.gz
Wind_Speed
55 54 52 48 45 47 45 47 49 51 54 59 61 64 66 69 70 70 70 70 69 71 72 70 66 65 70 70 66 63 63 67 69 71 68 63 62 57 54 62 62 62 70 75 81 79 82 89 87
52 50 47 48 44 44 42 46 48 53 58 61 61 62 63 65 68 65 62 63 63 65 67 64 60 63 70 65 60 58 60 61 64 66 60 56 58 53 44 46 55 61 67 69 73 78 79 75 81
49 47 46 44 41 45 46 46 53 54 49 50 51 52 56 58 59 56 56 55 60 59 57 57 59 55 67 66 59 57 55 55 57 55 52 53 50 45 28 41 43 48 51 56 65 72 74 71 76
44 43 42 40 43 45 46 52 42 42 48 48 53 53 53 51 54 59 57 54 52 49 39 54 63 59 53 49 49 54 48 50 49 43 44 41 39 35 30 44 41 39 40 45 47 55 63 63 59
44 41 42 42 43 45 49 45 42 44 49 49 52 50 50 54 52 48 47 39 34 31 38 46 53 47 49 43 44 44 48 49 44 33 33 38 42 40 39 46 40 33 30 31 30 30 37 29 37
42 38 40 45 50 45 47 46 45 50 45 47 46 46 48 37 31 28 25 21 18 13 28 37 38 37 36 42 39 37 40 44 47 41 33 36 44 46 42 51 41 41 30 16 16 20 19 19 21
39 35 30 31 37 40 40 44 40 42 42 43 38 45 31 24 20 24 19 11 8 17 20 23 18 20 21 32 36 39 40 41 50 49 38 28 31 44 48 37 40 42 35 21 14 1 2 3 4
30 24 22 20 25 33 39 40 38 37 36 38 38 31 23 18 12 16 10 10 15 19 19 17 12 19 15 19 24 30 33 44 38 39 39 27 32 40 43 39 41 34 38 32 21 18 21 13 12
21 19 18 20 28 33 33 34 29 37 36 34 34 23 22 20 7 12 4 10 17 13 18 21 24 37 21 15 14 22 31 40 41 44 42 33 36 39 43 41 35 35 30 24 26 17 23 23 23
19 17 16 22 28 27 28 23 27 33 33 32 29 22 17 18 9 10 6 25 35 33 33 31 38 37 22 27 28 21 24 27 33 38 44 47 43 45 40 42 36 38 26 26 30 29 32 31 30
18 18 18 21 22 24 21 21 26 28 29 30 24 25 19 16 12 15 6 35 45 36 34 33 34 31 30 41 39 36 37 40 42 37 42 44 42 41 44 42 42 39 32 32 39 36 31 34 36
21 18 15 15 18 20 21 25 24 25 28 30 27 27 20 12 12 21 18 37 47 34 36 22 30 36 40 50 46 38 51 47 48 44 48 43 43 41 43 42 38 40 40 40 40 40 39 36 39
24 21 14 15 14 10 19 25 28 27 29 29 28 31 21 15 11 26 29 38 51 44 36 30 28 36 47 48 45 51 54 46 52 45 44 50 43 43 44 45 47 43 42 43 35 41 32 38 41
27 20 16 15 11 12 14 22 25 25 27 30 30 28 25 16 13 26 36 33 48 50 44 35 35 30 39 43 47 45 48 51 52 53 49 54 48 46 51 47 42 41 36 37 31 34 36 40 39
27 20 19 10 8 7 11 18 21 26 30 34 32 27 27 17 19 25 40 36 38 48 46 31 34 29 38 36 41 46 48 52 47 48 47 50 50 48 51 45 46 46 37 38 39 41 43 44 46
27 23 19 11 8 8 9 15 19 25 29 31 36 29 27 27 10 26 34 49 44 49 49 54 41 42 36 33 41 47 46 49 51 44 48 45 43 42 43 45 46 43 44 45 48 53 51 51 50
30 24 21 11 10 10 7 10 15 21 27 31 31 32 27 27 21 10 33 41 57 55 59 52 58 46 45 46 40 48 45 44 49 52 47 48 50 50 48 48 49 50 51 52 51 54 56 56 58
31 27 26 15 11 12 8 9 13 19 24 26 30 32 30 29 30 19 17 41 46 53 65 62 58 56 55 49 46 48 56 49 43 57 64 60 55 53 57 57 54 54 57 59 61 60 61 60 52
35 33 24 24 13 15 12 12 11 13 23 23 28 31 32 32 31 33 15 12 37 49 58 64 69 71 60 61 61 55 50 62 52 49 55 54 61 57 61 61 63 63 63 65 66 67 66 56 56
39 39 35 24 20 20 19 14 12 12 20 19 25 27 29 30 32 32 31 15 19 23 38 57 61 66 70 64 70 61 65 60 61 62 57 53 54 53 53 54 55 60 62 62 67 68 69 65 60
44 43 34 25 20 24 21 20 19 16 19 17 24 21 26 28 32 33 33 27 20 23 27 34 43 60 67 76 72 73 71 70 73 68 72 64 60 64 65 61 60 63 63 63 63 63 59 56 57
47 48 32 25 22 26 25 26 21 19 21 17 20 18 21 28 30 31 31 30 23 21 28 29 36 39 37 43 34 46 59 67 69 73 71 63 65 68 60 63 65 68 68 64 61 60 58 53 52
49 45 32 28 26 27 28 23 21 22 23 16 18 18 18 26 27 32 28 27 27 22 18 22 28 30 33 26 24 24 28 40 44 64 67 66 73 66 64 65 65 61 51 46 46 49 53 56 59
47 44 37 36 31 25 34 22 33 26 24 20 18 19 16 21 23 29 28 28 26 26 22 20 20 22 27 25 23 22 22 26 28 29 38 47 49 46 47 49 44 42 40 42 43 45 46 46 50
52 50 45 40 33 32 36 26 35 27 29 23 24 22 18 18 21 24 30 33 29 27 27 21 20 20 24 27 24 22 20 23 24 23 27 30 30 27 29 30 34 35 36 39 43 45 47 51 53
59 56 48 44 37 37 34 28 37 34 31 27 27 26 22 18 20 23 27 30 30 27 28 27 20 20 18 24 27 27 23 22 24 27 28 28 28 31 37 42 40 40 42 45 47 46 47 49 48
55 50 54 47 39 37 31 34 38 41 34 32 30 31 26 21 20 20 24 24 28 27 25 27 27 20 19 21 27 30 31 31 32 32 32 34 34 34 35 38 45 46 44 44 44 44 44 46 50
56 53 49 45 42 38 36 41 37 45 41 33 36 35 30 23 23 23 24 26 23 28 28 24 26 26 20 21 24 28 34 37 35 36 36 39 43 45 45 46 43 44 41 41 42 43 45 44 45
58 58 54 49 47 44 40 36 41 47 48 37 40 37 35 29 28 26 27 24 23 25 28 27 23 24 25 21 23 27 30 31 36 39 40 42 44 44 44 43 43 44 45 41 39 42 44 47 48
63 62 60 55 52 51 44 38 43 46 48 40 39 43 39 36 32 27 26 29 28 26 27 29 28 24 23 24 21 26 32 35 36 39 42 44 46 48 50 51 52 53 50 44 42 46 44 49 49

GFSSGP_250_spd_072.txt.gz
Wind_Speed
54 51 51 48 47 49 49 49 49 49 46 46 47 50 58 59 60 63 63 63 66 69 72 74 74 72 70 70 70 74 78 74 75 73 71 72 69 70 70 66 57 58 60 59 66 70 76 78 80
54 50 51 47 47 48 48 47 42 41 42 43 49 53 54 53 52 54 56 57 61 65 64 62 60 55 57 61 67 72 70 72 65 69 71 69 68 67 65 63 56 51 50 51 58 61 66 66 68
53 50 49 46 43 47 47 45 41 41 42 48 47 49 51 51 53 57 57 59 60 57 49 47 44 41 40 49 60 72 66 65 56 60 67 68 68 65 63 62 57 50 48 41 46 47 55 59 65
52 50 47 44 42 44 45 45 44 43 45 48 54 52 50 52 54 54 58 55 55 49 45 39 28 29 36 40 49 50 65 60 54 57 59 58 61 60 59 53 48 36 39 38 39 39 45 50 56
49 48 44 42 41 42 45 46 45 42 44 51 48 51 53 55 48 50 49 47 43 38 34 48 41 45 53 46 56 44 38 48 52 47 53 48 49 47 45 40 43 35 41 42 36 25 25 25 25
46 46 43 41 39 39 37 31 33 40 43 44 45 51 47 44 44 45 38 34 31 24 29 37 28 39 47 58 53 46 40 38 43 46 46 40 35 40 40 36 35 36 46 40 29 16 22 22 25
45 43 40 38 32 32 25 24 31 38 41 41 43 41 38 39 38 35 17 20 15 12 18 26 28 33 34 36 43 33 32 31 36 42 34 35 27 35 41 41 40 46 41 44 38 39 30 18 10
44 43 39 29 26 20 22 27 31 34 36 36 33 34 33 33 31 23 6 4 6 13 17 22 18 17 20 27 34 38 32 26 28 36 39 32 33 31 40 42 44 44 45 41 43 23 26 21 14
40 39 31 25 21 18 21 28 30 30 31 31 27 31 31 24 22 12 5 7 3 15 18 20 17 25 25 18 20 28 34 30 29 36 44 40 31 32 27 36 43 46 36 35 35 35 32 22 24
38 35 23 21 18 17 19 21 23 25 25 23 25 30 28 18 12 11 8 11 6 10 15 20 36 41 38 30 22 16 25 31 30 31 37 43 35 28 34 30 40 46 42 35 34 29 36 34 35
37 30 24 20 17 18 21 21 17 19 15 18 23 25 25 13 7 13 9 18 15 18 16 38 38 33 21 36 41 34 26 30 30 34 33 41 46 39 34 35 38 40 38 36 34 33 38 37 38
33 24 24 17 18 20 20 11 9 13 15 19 19 20 23 13 8 12 16 26 20 23 21 43 30 24 31 31 28 36 31 33 29 34 42 39 38 40 42 42 42 40 37 39 39 36 38 36 38
32 25 26 20 21 20 16 12 9 13 17 20 25 18 19 15 6 14 22 33 29 25 24 33 26 26 25 36 38 42 37 38 34 41 41 38 42 44 42 41 43 39 37 40 36 42 42 38 39
35 30 27 24 23 20 13 10 8 12 18 19 24 21 16 19 6 12 29 39 35 32 29 24 28 29 32 39 40 42 41 42 40 39 43 42 46 43 42 42 44 42 39 40 46 41 42 43 43
38 33 31 27 25 23 16 14 10 13 15 18 23 23 17 20 9 13 35 40 43 37 31 32 24 27 32 41 39 45 40 40 42 43 49 51 48 45 43 47 48 42 44 43 45 47 48 46 40
38 38 34 30 28 23 16 14 14 14 14 15 19 23 20 16 20 7 21 41 49 48 43 35 36 32 28 42 47 50 47 45 44 45 48 52 48 51 45 47 48 48 48 48 47 47 47 45 42
42 45 38 32 30 25 19 14 13 17 14 16 15 20 21 16 15 16 10 33 49 47 55 49 42 39 37 29 39 48 43 47 49 47 47 49 49 52 51 46 46 46 47 45 47 44 45 43 47
47 36 37 38 30 27 20 18 14 12 17 15 14 18 18 20 15 13 12 12 35 51 54 58 55 50 46 41 38 43 42 48 51 50 49 54 56 48 49 47 46 45 47 46 45 46 47 49 52
41 41 43 38 31 29 20 23 19 14 16 19 16 13 16 18 21 14 16 12 11 30 56 57 57 64 57 55 49 46 49 41 49 53 52 52 49 50 47 49 51 48 50 49 54 53 54 60 60
43 49 47 35 33 32 23 22 21 19 16 19 20 8 14 18 21 23 15 17 12 10 22 52 58 57 67 63 60 57 54 52 45 44 51 58 49 43 48 54 53 55 49 50 54 59 59 62 62
47 49 51 37 32 31 30 28 27 23 23 20 19 10 11 14 18 24 23 17 19 14 14 19 37 58 62 65 66 66 66 58 61 60 56 54 64 59 52 54 51 50 51 51 52 55 57 60 63
49 49 53 40 33 35 34 33 34 28 24 22 22 14 10 13 15 18 23 29 24 20 17 13 21 27 37 51 58 68 68 74 68 62 64 66 61 61 61 63 62 60 60 62 64 61 61 62 63
56 51 44 40 33 35 39 36 36 32 24 25 27 20 15 14 13 16 19 24 29 24 19 19 12 17 26 29 34 55 60 63 65 68 57 62 69 66 72 71 64 60 62 64 63 63 62 53 51
59 53 45 40 40 35 44 34 36 34 26 29 30 25 22 17 16 15 17 19 23 27 25 20 18 11 16 23 28 34 39 44 47 46 42 47 51 55 57 60 64 58 53 52 52 50 48 46 49
55 58 55 48 45 43 48 34 38 37 33 31 32 29 25 23 16 18 16 16 18 21 26 26 21 18 11 15 22 25 28 29 26 29 32 33 35 35 37 39 39 41 40 39 43 45 45 43 43
56 62 56 52 47 47 45 32 37 41 38 35 35 29 28 25 24 19 16 16 17 19 22 26 25 22 18 12 19 24 27 26 23 24 30 33 31 35 32 32 32 34 35 36 37 39 40 44 49
49 48 58 55 54 49 44 37 39 44 43 40 38 32 32 28 26 25 24 21 16 17 19 23 25 24 22 19 12 18 26 28 27 26 26 32 36 37 35 38 40 40 41 42 44 49 49 49 50
49 52 53 53 51 51 50 46 45 47 46 44 43 40 34 32 31 29 26 29 21 15 15 21 23 26 25 24 21 14 21 28 32 34 32 33 35 38 38 39 40 40 43 45 46 50 53 51 54
60 54 58 53 52 52 53 51 48 51 48 48 47 44 41 37 35 31 32 32 28 19 15 16 21 23 26 26 25 21 18 24 31 37 40 40 41 43 44 46 48 49 50 51 53 56 57 59 58
63 58 59 61 57 54 53 51 51 50 52 51 49 46 45 39 38 36 35 35 34 29 21 16 16 20 24 26 27 25 22 18 23 33 37 36 41 45 46 47 45 45 47 49 50 52 52 54 53

GFSSGP_250_spd_075.txt.gz
Wind_Speed
49 50 53 53 55 53 54 47 49 44 46 45 46 48 51 53 52 55 57 58 60 63 65 67 68 66 65 63 61 63 67 70 72 75 74 73 74 72 71 72 71 69 69 67 61 64 68 67 69
51 51 50 50 53 55 55 47 46 45 43 44 43 45 45 47 49 51 53 55 56 62 62 60 57 53 53 51 48 49 54 64 66 66 69 74 73 72 69 69 67 65 64 54 46 54 55 53 55
53 49 47 49 49 53 53 44 49 45 43 44 45 44 43 46 52 52 52 56 59 55 55 56 50 47 44 31 29 37 44 48 52 55 58 61 67 70 71 69 66 63 59 49 49 50 47 43 46
52 47 47 48 47 48 50 47 44 43 43 49 49 49 49 52 49 48 52 56 55 53 52 48 42 47 42 30 43 33 42 47 44 44 50 56 59 59 65 67 63 60 55 53 50 47 39 35 34
46 46 47 44 44 48 47 47 43 42 41 42 46 48 50 51 50 52 55 52 50 49 42 40 36 39 43 44 34 29 48 48 48 49 39 45 52 52 56 56 58 50 41 40 38 32 34 34 35
48 53 49 46 41 46 45 43 41 38 32 32 37 41 45 46 50 46 46 43 45 42 37 33 32 36 38 45 44 49 39 46 41 42 41 37 41 44 47 45 41 46 42 34 29 37 31 20 19
50 53 50 47 41 44 44 38 30 23 28 32 36 39 41 45 44 38 36 35 35 31 32 24 25 40 43 43 41 45 36 43 43 46 41 38 37 38 37 31 39 36 38 33 31 39 34 32 35
52 51 49 45 41 43 37 28 27 26 27 32 32 38 38 39 35 32 32 30 25 22 21 19 32 40 43 63 50 51 40 36 36 31 31 37 38 34 31 36 39 32 37 39 39 40 35 37 32
54 50 47 41 40 40 29 22 24 25 29 30 33 33 30 29 28 29 28 22 15 14 13 11 26 39 44 64 63 50 49 41 27 33 32 34 30 30 25 28 39 40 45 40 38 34 38 36 37
57 50 47 39 38 34 24 22 23 26 26 31 26 22 24 25 25 25 22 17 10 18 16 14 21 28 37 52 57 63 54 48 45 38 35 34 31 30 25 30 32 35 38 35 39 37 32 32 35
54 57 45 39 35 31 26 22 24 25 23 13 14 19 22 22 21 24 24 17 17 11 21 17 27 29 38 47 52 50 60 56 49 33 35 42 41 29 27 27 22 25 29 42 41 32 31 34 34
54 57 47 38 34 33 28 23 23 10 12 10 16 20 20 20 18 20 22 21 23 20 17 23 34 41 41 43 36 30 43 49 46 32 36 40 36 35 31 31 30 28 30 40 43 35 31 31 38
60 57 42 38 33 36 30 24 23 16 10 13 11 18 19 19 16 16 21 26 30 25 19 17 37 39 21 31 32 38 31 34 36 28 28 34 37 41 43 34 32 31 32 39 41 39 38 41 40
66 61 50 38 36 39 33 27 24 18 19 17 14 15 19 17 15 15 21 26 31 30 27 29 40 36 25 27 27 46 33 37 31 31 39 40 40 42 41 40 32 35 38 40 38 37 36 39 38
69 60 50 40 39 42 36 31 26 22 20 18 15 14 16 19 16 12 18 28 36 37 35 31 25 35 30 38 32 42 43 40 40 42 42 37 42 42 43 39 37 40 40 40 44 41 40 40 40
67 56 46 44 42 45 38 33 28 22 19 18 16 12 13 17 19 13 11 22 38 40 41 41 29 28 35 33 36 44 43 47 40 41 39 40 47 44 42 46 44 42 42 43 44 42 43 41 38
69 54 48 46 42 45 42 37 29 23 21 20 19 16 11 13 17 15 13 15 36 47 45 41 38 38 31 38 36 46 47 49 45 36 42 37 41 42 46 50 51 52 47 46 45 44 46 44 38
58 59 53 47 44 47 45 41 33 26 24 22 19 18 12 11 14 17 14 13 20 45 52 50 46 42 40 35 40 41 44 47 46 43 43 44 45 52 49 48 47 48 50 45 44 43 45 45 46
62 53 49 47 48 50 46 42 35 30 24 21 18 18 16 7 11 17 19 12 11 25 44 55 52 49 46 42 40 45 35 51 48 49 48 47 51 50 53 53 48 51 50 47 50 53 46 51 52
52 47 52 48 48 50 47 44 37 29 27 23 20 19 19 14 10 11 17 14 11 8 25 44 61 61 57 54 49 48 48 44 55 54 49 56 52 49 50 49 48 53 53 52 52 53 51 53 52
49 49 57 49 51 49 49 45 40 32 26 24 24 22 21 18 13 11 11 14 17 10 10 13 28 56 61 65 62 55 54 51 49 53 55 50 55 54 55 55 55 50 48 51 53 52 53 55 56
49 55 60 49 51 50 45 47 43 38 27 31 28 25 26 20 16 16 12 12 13 16 11 10 10 19 34 56 58 65 63 61 60 56 57 59 52 55 51 54 52 53 52 52 56 56 53 61 65
53 60 60 52 51 53 47 47 47 40 32 32 32 29 27 26 22 19 17 9 10 13 15 13 11 10 19 28 39 53 51 63 63 62 60 61 65 61 64 63 63 60 62 66 65 63 62 68 72
56 59 59 55 49 49 54 51 50 45 37 32 35 32 29 29 27 20 18 16 13 11 15 15 15 13 14 16 21 28 33 37 40 47 55 57 57 61 64 66 67 71 71 68 68 70 71 70 69
56 60 55 57 50 49 59 56 54 47 40 35 37 36 32 31 29 23 17 17 16 15 13 16 16 15 13 15 13 19 24 30 32 33 36 39 48 53 58 61 64 64 63 68 68 68 66 65 67
55 57 50 55 57 53 53 48 51 50 47 40 38 39 37 34 26 25 19 19 21 22 18 13 15 17 16 15 14 12 15 24 28 29 30 32 35 40 39 41 47 50 53 59 65 63 58 55 52
54 52 51 53 58 57 50 48 47 55 52 45 41 39 41 37 30 28 27 25 23 24 25 21 14 14 17 16 18 16 15 14 25 28 26 27 31 35 37 37 37 37 38 39 39 40 38 41 42
57 57 55 51 52 61 59 57 53 53 58 52 47 41 41 42 41 35 30 29 24 25 29 27 21 23 17 17 19 19 20 16 14 24 27 28 28 27 30 32 36 36 38 39 42 43 45 46 48
56 54 58 54 47 53 59 61 60 54 56 54 51 47 46 44 45 43 39 35 33 28 28 27 27 23 23 20 22 19 20 19 17 14 21 33 36 34 34 37 43 47 47 44 43 45 46 46 50
61 59 59 57 52 48 56 62 59 58 57 61 57 54 51 50 47 44 42 43 39 35 34 31 29 29 24 20 21 18 21 23 22 19 17 17 29 39 42 42 45 48 49 47 49 48 46 44 45

GFSSGP_250_spd_078.txt.gz
Wind_Speed
40 43 46 51 54 50 54 52 43 52 45 44 44 45 47 46 46 52 50 56 57 55 61 62 64 64 62 61 59 54 55 56 57 56 56 60 65 67 68 68 69 71 72 72 72 74 73 73 73
41 41 46 52 48 50 54 51 43 45 45 44 42 44 42 43 41 46 46 53 53 53 57 60 61 57 56 52 42 37 39 36 38 38 35 40 48 58 62 63 66 67 68 67 66 65 65 62 61
41 46 50 51 46 48 50 51 44 46 40 44 43 41 39 43 41 45 47 50 54 54 51 53 52 52 49 47 37 35 27 33 33 36 38 38 37 40 48 58 60 66 66 65 62 61 56 53 52
47 47 53 50 47 48 41 52 44 45 43 40 43 43 38 46 46 51 51 53 54 51 53 51 46 45 47 42 40 39 32 32 36 38 42 38 39 35 38 49 53 55 62 64 62 60 54 43 45
47 49 52 51 52 48 46 46 46 42 41 41 38 42 37 38 41 45 47 50 52 48 49 44 41 45 46 35 35 38 32 37 35 42 44 41 37 37 41 45 50 52 54 56 56 52 45 41 36
48 50 58 56 53 48 42 43 43 41 41 40 37 35 32 35 39 47 46 50 46 44 43 42 37 38 35 30 32 48 40 42 47 43 41 41 41 40 41 42 45 46 41 44 47 40 26 25 23
54 51 59 52 52 49 48 36 39 41 36 32 30 32 33 40 41 45 48 44 41 39 37 35 29 30 25 26 44 44 42 47 43 46 45 44 47 41 41 36 37 37 34 34 31 36 29 22 30
56 53 57 57 51 51 49 37 37 35 31 32 29 35 37 37 43 45 41 37 35 33 32 33 25 22 32 46 52 45 43 40 52 41 43 40 40 32 36 35 32 30 25 29 30 26 27 29 33
58 57 60 51 51 51 48 38 37 30 30 30 31 31 37 36 36 38 37 34 30 27 28 31 21 25 45 52 56 53 48 37 37 39 47 53 36 28 30 36 27 26 31 33 31 32 25 28 32
56 60 63 63 57 49 46 35 35 25 30 32 28 29 30 28 31 32 35 29 25 24 26 26 18 33 38 54 60 52 51 48 49 40 34 41 37 28 33 27 26 33 38 32 31 36 34 32 33
61 63 67 66 57 50 50 42 32 27 28 28 24 26 23 22 27 30 31 28 24 21 22 22 21 37 41 52 54 62 58 54 55 37 35 33 27 33 28 25 27 35 42 33 35 35 32 32 35
66 70 70 68 57 53 54 45 31 27 29 26 27 19 18 21 24 28 32 27 22 24 19 26 26 34 48 49 58 66 64 53 65 45 44 33 32 32 30 25 24 29 34 36 31 29 32 36 27
71 70 69 63 54 56 50 43 31 30 30 29 27 23 21 20 22 23 28 27 21 28 19 24 27 32 38 45 58 65 69 64 55 51 55 46 41 36 35 26 24 29 22 22 23 31 33 24 27
73 70 66 57 58 56 48 44 32 33 33 30 27 23 23 19 20 20 25 26 23 31 24 26 29 36 39 39 49 63 67 67 65 64 59 54 47 37 37 31 31 29 27 26 29 31 35 31 32
79 75 67 65 60 59 44 44 37 35 35 33 31 24 20 18 17 18 18 24 21 36 30 25 24 33 44 45 46 58 68 69 75 69 54 52 45 40 41 34 37 27 27 29 36 31 35 36 35
77 76 73 74 68 56 51 47 40 37 38 35 33 21 21 20 15 15 15 18 18 36 35 35 24 35 41 47 32 37 41 45 43 49 42 44 35 38 37 39 40 37 31 32 34 35 38 37 37
83 76 71 69 67 56 49 49 43 38 39 35 32 24 20 21 17 17 16 14 18 20 43 39 31 32 47 45 35 32 31 40 42 36 39 36 37 44 42 39 41 39 39 37 38 39 38 41 42
69 72 68 58 56 46 41 48 44 42 42 37 32 25 18 20 19 14 12 13 15 15 36 44 43 37 36 44 42 36 38 45 50 46 38 45 46 48 49 46 43 39 41 37 43 45 45 47 44
79 64 51 49 52 41 40 47 44 44 45 39 33 28 19 20 20 20 10 9 11 14 13 45 51 48 42 38 44 42 38 49 51 49 50 44 47 49 40 41 44 43 47 47 42 44 46 47 49
73 61 45 49 47 38 42 49 45 46 48 44 33 31 22 20 21 20 8 9 10 9 12 14 51 56 55 46 50 44 46 43 54 51 58 55 46 51 50 44 50 46 50 51 50 50 52 50 49
60 53 46 48 48 38 43 47 46 51 49 46 37 35 30 20 22 22 13 10 7 8 8 8 20 48 58 55 51 50 48 53 51 55 53 54 53 49 54 48 51 53 56 57 54 50 49 53 55
52 45 47 53 49 38 42 47 48 51 51 47 40 39 28 26 25 24 21 11 10 8 6 8 9 14 34 56 61 59 56 53 53 60 57 56 57 52 53 52 53 55 55 52 54 58 53 54 54
36 43 52 52 46 46 44 45 52 52 50 44 39 35 31 33 31 25 22 20 8 10 10 8 9 10 11 20 38 66 67 65 66 62 61 61 63 63 60 60 54 53 51 53 55 59 59 59 59
49 59 55 54 50 44 45 48 53 54 50 41 39 38 33 33 34 28 24 21 12 10 13 13 11 9 10 7 12 24 34 61 70 66 69 66 64 64 65 62 62 65 61 59 59 61 62 66 67
51 49 50 58 47 43 47 50 52 55 53 41 39 38 37 32 35 32 28 26 22 14 15 15 18 18 11 12 8 7 17 26 38 50 60 61 59 60 59 65 66 68 72 72 70 67 70 73 74
56 54 55 58 55 48 50 48 50 54 53 50 42 44 41 36 35 34 33 28 24 19 20 16 19 20 19 14 15 13 10 8 17 28 38 43 47 50 53 61 63 64 68 66 67 69 72 72 73
52 53 53 57 58 52 50 52 50 51 53 53 47 47 47 40 38 38 39 32 29 26 25 22 24 24 21 21 18 12 11 11 11 14 23 30 35 37 39 46 54 59 65 74 77 76 79 70 55
50 49 55 59 56 48 47 49 51 51 55 53 52 51 50 44 39 38 37 37 33 30 29 27 22 20 24 27 24 17 12 11 11 11 12 25 29 28 29 29 31 39 43 40 36 37 36 37 39
55 58 58 55 54 45 41 43 53 54 55 53 48 46 51 49 43 44 40 39 38 38 35 34 31 28 22 24 26 25 20 16 13 12 11 11 20 31 31 31 31 31 34 34 36 39 40 42 42
57 54 57 54 54 50 51 48 46 55 59 57 55 54 51 50 52 46 46 44 44 41 39 39 34 38 37 29 28 25 24 22 19 16 15 19 16 15 19 37 41 39 37 40 45 45 48 50 51

GFSSGP_250_spd_081.txt.gz
Wind_Speed
31 32 34 39 42 47 50 53 47 44 44 49 48 50 49 46 44 48 52 51 47 50 53 54 57 60 60 60 60 59 57 58 57 54 53 52 53 53 51 55 56 59 61 63 66 68 71 71 71
36 38 38 41 45 47 46 44 43 43 41 47 46 47 47 43 43 44 44 48 44 45 51 53 54 55 54 56 55 55 51 50 50 43 39 34 41 43 39 37 43 51 55 55 56 58 59 61 60
34 36 36 39 41 46 50 48 48 43 40 42 44 45 42 41 45 38 41 45 47 43 52 54 51 51 51 47 46 43 40 38 31 34 34 28 28 30 30 30 36 43 51 55 56 57 57 56 55
38 41 38 44 45 45 52 47 46 43 37 39 38 45 36 39 41 42 41 43 44 47 51 49 48 47 42 39 40 35 39 33 25 26 29 32 33 34 32 34 36 33 38 44 51 55 56 58 55
40 44 44 45 47 46 49 43 46 51 37 38 33 40 36 37 36 38 41 42 41 45 48 48 44 40 41 38 41 42 37 39 32 35 24 30 33 35 33 32 33 35 35 39 46 49 49 49 47
45 46 46 46 47 49 46 40 40 45 38 36 34 37 33 33 31 36 38 42 43 47 49 48 40 37 38 38 40 40 36 41 46 29 26 37 30 32 33 34 35 36 35 38 43 44 43 39 36
51 47 49 51 47 50 49 43 40 46 36 34 35 35 27 34 35 39 43 45 46 43 43 44 36 35 30 32 35 37 39 51 53 38 47 42 41 38 43 44 42 40 36 38 40 36 34 29 20
51 49 52 50 53 52 51 45 46 37 33 36 35 32 26 32 38 41 43 43 41 40 38 39 37 28 21 30 31 35 46 59 55 43 42 43 47 50 48 43 41 47 39 38 33 29 24 22 27
57 54 56 55 55 53 56 58 45 46 31 32 33 28 31 29 35 39 40 38 38 38 35 36 29 16 22 25 30 37 46 50 51 46 47 42 49 50 44 38 35 44 34 34 27 23 24 31 27
58 54 61 59 59 58 57 58 44 41 35 33 30 24 30 29 34 38 39 35 36 33 34 31 25 16 15 29 30 43 47 44 36 38 44 55 54 47 46 44 28 28 31 30 28 33 33 31 29
62 59 62 62 56 51 57 62 46 31 36 27 32 27 25 32 34 34 35 36 32 28 30 22 23 14 21 36 37 50 53 52 46 43 50 48 44 43 38 38 28 28 38 27 30 36 41 31 27
64 66 66 63 58 61 65 63 58 36 41 27 31 25 25 29 33 33 31 33 30 29 27 26 21 17 28 42 47 47 55 49 52 56 55 53 47 38 32 25 27 28 26 32 38 38 40 32 29
63 64 56 57 64 66 65 62 55 51 37 28 32 28 29 30 31 33 32 34 29 25 23 25 24 22 33 45 54 56 53 50 56 60 53 48 43 28 22 24 27 25 27 34 36 38 37 31 26
66 65 67 63 65 62 65 65 64 58 32 29 34 32 31 32 34 30 28 32 28 24 19 27 24 17 32 47 55 59 57 53 56 55 50 54 38 35 33 27 25 27 28 29 32 34 26 24 23
70 68 63 63 64 61 64 60 60 58 32 30 36 33 32 33 27 26 27 28 29 22 20 29 28 23 30 41 48 58 58 60 59 57 59 52 45 44 39 37 34 32 29 30 26 24 24 26 31
76 72 70 66 67 65 72 65 62 50 35 32 36 35 35 33 28 25 25 28 29 23 20 29 31 27 24 40 48 57 63 63 65 66 58 63 49 51 48 48 37 39 32 31 31 30 27 27 30
79 74 69 69 73 72 77 61 55 45 34 33 36 36 36 33 26 21 22 24 27 24 23 20 37 29 30 29 41 45 54 59 67 69 66 69 60 59 48 39 39 36 35 32 34 32 33 34 36
79 78 75 73 76 74 65 54 51 38 31 32 36 38 35 33 27 19 20 23 26 23 23 22 31 43 32 32 32 47 46 45 49 64 75 70 66 57 38 40 42 44 42 39 41 40 39 36 39
82 81 80 76 73 80 65 46 41 40 30 32 38 40 37 33 29 19 18 21 23 22 19 20 17 39 42 36 35 46 42 41 43 53 58 63 54 47 41 41 42 41 41 41 40 41 40 38 42
85 84 78 69 72 72 56 46 36 42 32 35 41 41 39 35 32 22 18 18 20 20 19 20 18 19 42 39 35 50 45 42 38 44 49 56 57 50 44 46 45 51 51 55 54 49 45 45 48
86 83 82 68 63 63 57 36 34 41 34 36 40 41 41 36 35 26 18 19 21 18 19 20 17 17 28 47 44 43 44 50 44 43 44 52 53 49 45 48 55 56 52 50 54 56 47 49 52
87 81 71 60 57 51 56 39 35 43 34 36 41 43 42 40 37 36 20 22 22 16 11 14 17 18 18 32 52 53 55 50 51 49 49 48 55 55 55 56 56 54 55 54 48 50 51 56 57
63 57 58 56 55 55 52 35 34 42 39 39 44 45 41 38 41 35 26 23 24 17 15 9 11 15 17 19 24 41 64 61 59 53 52 53 55 57 57 63 61 56 55 59 66 61 60 59 58
49 56 59 56 54 54 41 33 30 39 44 44 43 46 41 43 41 42 30 26 24 20 17 12 6 9 14 14 17 18 27 51 68 61 61 58 61 64 63 59 59 59 58 56 58 60 60 58 59
51 51 59 55 56 39 38 34 29 39 47 45 42 47 43 46 42 36 33 29 27 26 23 20 14 7 12 11 15 15 15 20 34 53 69 71 69 67 68 66 68 68 65 65 65 62 63 66 67
45 54 54 51 47 34 37 29 34 43 46 45 42 47 42 45 42 37 34 29 30 28 26 25 21 15 17 15 16 17 17 16 15 23 33 43 58 66 67 70 67 70 69 66 66 65 68 71 70
43 46 51 49 45 38 31 31 46 45 42 46 44 47 50 43 44 36 34 34 32 29 29 29 25 24 21 19 18 19 18 16 14 15 15 21 30 41 50 61 67 68 70 70 68 67 69 70 72
45 54 55 54 49 37 35 37 41 45 42 40 50 47 51 48 43 40 41 37 31 33 32 32 31 29 27 23 24 22 21 19 14 13 14 14 14 19 29 38 47 55 60 65 69 70 69 72 71
52 56 54 53 47 43 44 41 45 46 46 42 45 48 47 47 50 48 45 39 37 35 34 33 34 35 32 31 32 31 28 24 23 18 14 12 11 13 14 21 29 34 37 38 39 44 48 50 51
51 62 58 53 48 44 43 42 44 47 49 43 40 50 52 51 49 47 47 42 39 40 38 38 38 40 37 33 32 35 37 37 28 28 28 24 22 16 15 18 19 21 36 42 40 39 39 43 47

GFSSGP_250_spd_087.txt.gz
Wind_Speed
42 44 45 43 42 40 40 42 39 40 44 46 51 56 66 67 65 61 56 51 51 52 55 59 60 60 62 64 64 64 62 60 60 60 60 62 65 69 73 76 79 78 78 80 78 77 76 74 75
43 42 44 44 42 39 40 42 39 40 44 45 48 51 58 65 64 63 57 53 48 50 52 53 56 57 59 59 59 60 60 58 56 53 53 48 42 50 52 55 58 57 61 63 65 65 64 61 61
46 42 41 39 40 37 37 37 39 40 43 45 43 46 55 59 59 52 49 48 48 48 46 46 48 52 53 53 53 55 54 52 51 50 50 47 40 34 38 45 50 49 46 42 43 50 52 49 48
41 40 40 42 45 42 41 39 35 39 42 44 42 42 52 56 51 44 45 47 49 48 46 43 42 44 46 48 49 50 50 49 47 48 48 43 40 33 34 28 31 37 38 39 37 40 40 36 36
41 41 38 41 44 42 42 40 35 38 41 38 41 43 47 53 45 39 44 45 48 44 41 40 38 39 41 44 43 45 41 36 38 43 47 40 38 41 35 22 17 29 31 31 27 27 26 26 24
42 40 36 41 45 42 42 36 34 38 40 40 35 40 45 50 45 39 42 44 39 38 33 30 35 38 38 41 43 43 37 38 41 41 44 37 41 44 33 26 22 24 29 32 27 27 27 25 23
44 41 36 42 50 46 41 32 37 42 41 41 40 42 46 44 45 39 43 40 33 34 31 29 31 35 38 37 39 39 39 41 45 45 46 39 44 45 40 24 18 24 24 25 21 19 21 23 24
45 40 39 46 51 51 38 36 40 43 42 44 47 42 47 48 52 36 41 34 29 32 32 29 31 37 41 37 35 38 38 39 44 46 44 39 44 51 39 27 22 25 27 26 23 23 24 27 27
45 40 44 55 52 51 45 38 41 44 44 48 47 42 46 52 48 36 36 31 33 33 34 35 34 38 41 35 31 32 33 39 42 42 47 42 47 49 38 35 26 24 25 27 23 20 31 28 17
49 44 46 56 54 56 50 48 44 47 46 50 46 43 49 52 50 40 37 31 32 34 37 38 37 37 38 30 30 26 32 36 39 41 47 49 50 53 43 36 33 29 23 28 35 32 27 24 30
53 47 55 58 57 58 58 48 47 50 48 50 44 49 52 51 49 48 40 32 32 35 37 39 36 34 33 28 22 21 26 30 32 39 45 55 48 42 47 42 38 31 28 26 22 27 29 27 18
48 50 58 64 63 58 53 49 46 52 51 51 47 48 48 49 51 52 42 34 32 37 39 41 36 34 29 24 18 17 18 18 20 30 40 56 54 53 45 41 34 28 29 22 24 25 24 17 17
57 54 61 63 60 57 55 53 51 51 55 49 45 45 45 52 57 56 47 38 32 39 42 41 37 35 29 24 16 13 16 14 17 26 38 56 57 49 41 39 40 37 37 33 18 17 26 22 21
60 62 62 62 62 61 58 52 50 48 56 52 53 53 50 52 50 45 41 39 33 38 40 40 38 34 28 23 16 14 17 16 14 20 34 49 49 47 44 46 42 37 35 31 19 19 19 21 21
66 63 61 61 61 64 64 53 51 59 59 57 55 55 54 45 48 42 37 38 34 39 38 38 36 29 26 25 17 12 20 15 20 24 39 31 42 38 47 48 42 39 38 30 24 25 20 23 17
74 70 67 64 66 68 67 51 57 63 64 59 51 53 53 43 43 43 38 37 33 38 35 37 36 25 23 23 19 11 23 17 17 27 44 41 42 42 48 51 47 46 40 33 29 34 26 24 28
71 74 72 72 76 76 75 64 63 67 64 59 56 53 51 47 46 46 40 37 33 38 34 37 33 28 24 21 18 13 23 22 26 30 33 45 40 44 40 50 49 42 31 33 32 30 28 30 36
73 79 80 77 77 77 72 69 65 68 70 63 57 52 52 51 42 42 41 37 34 37 31 32 31 30 26 21 16 20 14 34 25 33 39 36 41 47 51 53 46 44 35 39 41 44 37 39 37
70 70 76 72 76 83 79 73 68 68 70 63 57 52 53 51 47 38 43 38 36 34 31 28 28 31 26 21 18 23 20 32 36 34 41 48 43 47 49 53 50 50 54 53 46 45 38 38 40
66 67 71 76 78 82 80 71 67 66 65 62 59 55 55 52 48 40 42 40 37 33 31 27 24 29 23 23 17 20 25 20 38 42 42 47 47 52 46 48 48 52 52 53 53 51 51 42 44
72 71 71 71 75 78 75 74 70 65 67 65 61 58 55 55 48 42 44 41 39 32 31 27 22 24 23 23 18 10 26 30 25 23 37 53 45 54 55 58 57 57 57 60 58 58 55 53 47
73 70 73 74 72 73 73 67 65 64 67 68 64 59 53 51 46 42 46 44 42 36 34 30 21 19 21 21 19 10 7 24 36 31 28 29 47 50 48 52 54 54 56 59 57 45 49 52 51
73 77 79 77 75 73 72 76 57 72 67 68 62 53 52 51 46 47 51 45 44 38 37 33 23 18 21 20 19 11 8 7 20 33 35 31 35 42 53 52 48 50 46 46 45 48 50 54 54
75 73 76 77 79 75 77 83 58 70 69 64 57 53 56 49 50 53 56 43 46 40 40 35 29 20 19 19 18 13 10 10 4 11 23 32 36 39 44 45 46 52 51 49 48 48 51 49 49
75 77 77 76 74 72 78 69 61 62 64 67 56 55 53 52 52 53 54 47 45 42 43 39 30 25 21 20 17 13 12 11 12 10 7 8 21 38 51 51 55 55 54 53 52 51 51 53 53
83 81 76 74 72 70 66 60 62 62 59 58 51 59 51 50 50 54 56 49 44 43 45 41 36 29 23 23 20 18 16 15 17 14 13 12 10 10 15 35 56 54 54 56 56 57 57 58 62
74 70 69 65 62 59 58 59 52 42 39 44 50 53 50 48 50 54 55 49 46 45 44 41 37 32 26 26 24 22 21 20 19 19 19 19 20 20 16 16 15 23 40 58 64 63 61 64 65
64 62 59 55 56 56 49 43 36 34 38 43 50 47 50 52 50 54 54 51 49 46 44 41 39 35 32 28 25 25 24 23 22 22 22 21 23 22 21 20 19 18 18 18 26 39 54 66 71
61 57 50 50 52 42 39 32 33 34 43 47 49 51 52 54 49 51 57 54 50 46 45 43 42 40 36 32 30 29 27 27 27 26 26 24 23 24 24 25 25 25 24 23 22 21 23 25 27
58 51 44 45 41 36 35 34 43 48 47 47 52 55 53 53 49 44 49 57 56 50 48 45 43 42 40 38 35 34 36 33 29 26 28 28 28 28 27 28 29 30 29 30 30 27 28 27 23

GFSSGP_250_spd_090.txt.gz
Wind_Speed
54 52 51 50 49 49 48 36 40 47 50 49 50 53 54 56 62 66 67 65 60 58 55 46 48 51 53 54 54 55 55 53 53 54 57 58 60 62 65 68 72 78 80 81 81 81 81 81 79
51 49 49 50 48 48 43 38 39 44 49 51 54 55 54 55 58 61 67 66 61 56 45 41 43 45 46 50 50 50 52 48 48 49 51 49 50 50 50 48 46 47 53 61 69 72 76 79 80
49 48 49 50 54 51 42 39 40 40 46 49 49 48 50 51 55 52 58 61 59 52 42 40 43 44 46 47 47 47 46 47 47 48 46 46 46 46 47 47 46 41 42 43 44 48 50 53 56
50 48 49 50 52 50 43 41 37 39 44 47 45 44 43 47 48 44 49 53 47 48 41 45 46 45 43 42 43 44 43 44 45 46 47 46 44 41 40 43 35 34 28 31 37 40 40 41 45
54 49 44 46 48 47 43 43 35 41 45 46 43 41 41 45 48 46 46 49 40 43 42 43 43 40 38 35 35 39 40 41 43 42 44 43 38 41 36 42 35 33 30 27 31 32 35 36 34
47 50 46 48 49 49 47 39 33 39 42 46 41 42 44 42 48 45 44 51 45 44 41 38 36 38 34 30 26 29 30 33 39 42 44 42 41 43 41 43 38 37 29 25 23 25 24 25 18
50 47 42 47 52 52 51 37 36 38 40 45 42 44 46 38 45 42 43 49 38 45 41 34 36 35 34 33 31 31 29 33 41 45 46 46 39 40 44 47 41 30 34 22 17 23 23 22 19
48 44 39 47 56 56 50 36 37 39 40 40 44 45 44 39 44 41 46 45 45 45 42 38 37 35 32 36 38 37 30 32 40 44 45 44 43 42 43 44 43 41 32 23 24 23 19 18 15
51 40 43 53 58 59 51 42 37 40 41 45 48 47 48 44 45 44 44 45 45 48 46 40 36 33 33 37 35 34 31 29 37 41 44 43 40 40 34 45 48 39 32 23 27 25 16 15 15
52 40 44 60 57 55 54 47 42 42 47 46 48 49 46 45 46 49 47 47 49 53 47 41 36 32 33 38 38 31 28 29 34 39 44 43 43 39 37 50 48 32 31 28 28 28 23 21 17
56 48 46 57 60 54 51 46 43 46 49 53 52 45 46 46 47 47 47 50 53 45 42 40 35 32 34 39 39 30 23 26 27 32 36 37 40 41 41 53 43 36 28 23 18 25 28 25 23
50 50 52 52 54 53 54 54 49 53 54 51 45 44 46 47 47 49 52 53 48 37 38 38 33 33 33 36 37 29 19 23 19 26 32 32 37 46 44 58 46 38 34 27 28 19 16 17 20
50 51 53 55 55 54 53 51 54 53 53 55 44 42 46 47 49 52 49 50 45 33 37 34 32 34 32 33 31 26 20 19 19 24 25 25 37 49 54 60 50 42 30 32 28 23 16 16 19
53 56 58 60 59 59 58 58 54 51 54 53 48 42 44 49 49 46 51 47 46 32 35 33 32 33 31 29 28 24 19 17 15 23 23 21 39 54 57 52 48 36 33 31 25 26 21 16 18
61 56 55 59 64 62 64 56 57 60 60 52 46 46 47 49 46 53 49 50 48 36 35 36 34 34 31 30 25 20 18 16 15 19 17 13 37 56 43 43 42 39 37 32 34 29 24 13 15
67 64 61 61 65 65 68 54 64 61 56 52 52 53 51 53 54 53 52 54 48 41 35 36 35 33 30 28 24 18 15 15 17 15 7 7 34 52 53 49 43 34 28 32 23 29 28 22 18
73 69 67 67 69 73 69 59 62 63 60 56 55 56 58 55 52 53 54 53 47 42 34 37 33 32 30 27 20 19 16 16 17 18 18 12 24 43 41 41 39 35 35 37 29 38 34 20 27
78 78 74 70 72 73 69 62 65 65 65 62 62 63 64 58 50 55 54 47 47 44 35 36 33 31 30 27 20 20 17 17 19 22 27 24 24 32 35 37 39 38 42 41 32 23 27 27 28
90 85 80 74 74 72 71 62 64 68 70 71 68 65 63 56 55 54 51 48 46 41 36 36 32 30 28 24 22 19 11 20 25 29 30 23 23 32 36 36 42 46 44 43 46 33 35 37 43
87 90 80 70 70 72 64 57 64 62 67 71 70 66 60 56 56 57 54 52 48 39 38 37 31 29 25 21 20 19 15 22 29 31 34 34 29 32 37 38 43 42 46 49 46 44 43 39 37
85 87 82 72 69 68 59 45 57 59 63 64 64 61 59 59 58 53 52 53 48 40 40 38 31 28 24 21 18 20 15 19 27 34 32 37 36 37 42 44 47 46 44 50 52 51 49 49 53
72 76 75 69 64 64 64 48 55 60 59 58 59 60 57 55 54 56 59 59 52 43 41 39 33 27 25 19 18 15 13 5 29 33 33 38 38 42 42 46 48 49 53 57 56 54 54 53 51
73 76 73 70 68 66 62 61 51 62 62 63 60 59 58 58 58 60 60 60 56 41 42 40 35 30 25 19 17 13 7 6 7 33 29 28 30 35 46 44 49 50 50 50 53 57 58 56 51
72 75 73 73 75 65 67 67 46 62 66 65 63 63 63 60 58 62 64 57 49 40 45 43 39 33 30 22 20 13 6 4 6 4 23 34 34 32 32 32 41 47 49 50 49 47 47 41 44
76 80 78 76 72 67 68 62 60 63 67 68 69 68 65 64 59 56 56 54 50 44 48 47 42 38 32 29 23 17 14 7 3 1 6 9 16 30 38 37 37 41 48 49 47 47 46 45 46
78 81 81 76 74 70 70 64 67 65 64 65 68 66 61 59 55 57 53 56 52 48 49 49 45 40 38 31 28 23 19 18 12 8 5 4 8 11 12 16 27 39 46 50 49 50 49 52 55
76 77 76 77 77 76 72 70 68 70 65 60 59 62 63 57 57 58 58 57 54 48 50 52 47 44 41 36 29 27 23 22 18 15 14 11 5 4 5 8 8 8 9 16 30 45 56 59 58
70 69 71 74 75 72 73 73 70 66 61 59 57 58 58 55 63 63 57 55 53 48 51 51 49 46 44 40 37 32 27 26 25 22 18 15 13 12 9 8 8 9 11 13 12 11 12 16 21
61 63 63 64 65 64 65 66 60 57 53 49 43 45 50 49 50 52 57 56 49 48 49 50 49 45 44 43 40 37 34 30 28 27 24 23 21 20 17 17 16 16 17 18 16 15 16 19 20
55 57 54 55 56 56 56 50 52 44 43 33 37 37 36 39 46 54 54 52 50 48 49 49 49 47 45 43 43 40 38 35 33 32 31 30 27 24 25 24 23 24 24 25 24 24 23 22 22

GFSSGP_250_spd_093.txt.gz
Wind_Speed
62 62 61 58 55 55 55 50 48 49 50 50 49 51 53 54 55 56 58 59 59 57 59 56 50 46 44 45 44 44 45 48 50 52 53 55 57 59 60 58 60 63 67 74 82 85 84 83 83
60 59 57 52 50 49 54 47 48 46 46 46 47 52 52 52 54 56 57 56 56 56 53 49 44 38 38 40 40 41 41 41 43 45 47 49 50 50 49 51 51 52 54 57 62 68 74 78 81
61 59 60 55 52 56 53 49 45 46 44 46 49 53 52 51 53 55 53 51 50 47 49 47 39 38 37 36 36 38 40 41 42 41 39 40 40 39 38 35 35 37 39 37 37 45 48 54 60
62 61 54 50 54 55 53 51 47 44 44 47 50 53 53 52 52 50 48 46 45 43 45 46 39 36 33 30 32 35 36 39 42 43 44 45 43 44 38 35 31 31 36 39 35 33 37 39 40
58 58 59 48 55 58 53 49 48 43 42 48 51 52 52 52 50 46 43 42 43 42 38 39 37 35 32 31 32 33 34 32 33 36 39 43 43 45 42 38 30 30 31 32 34 34 30 27 31
54 53 50 54 59 61 56 48 47 41 44 50 53 52 51 49 45 45 46 43 40 39 32 36 35 35 33 35 34 33 34 35 33 35 35 36 39 39 44 43 43 42 36 34 35 36 32 29 25
50 47 42 46 55 57 57 51 42 42 44 46 50 47 47 44 43 44 45 42 41 40 34 39 39 40 37 34 31 34 35 36 33 34 43 43 39 40 42 50 50 47 42 35 37 37 37 27 18
47 43 35 44 54 58 55 52 45 44 48 46 46 45 43 45 44 45 47 46 41 38 40 43 43 38 38 33 33 34 35 33 35 37 40 41 41 39 41 42 50 45 44 35 40 32 31 25 21
49 39 42 50 56 60 56 49 46 44 49 46 46 48 43 45 46 47 49 45 38 37 41 46 44 38 36 35 31 31 32 31 33 36 38 41 40 39 42 42 38 50 42 42 41 38 25 22 25
51 45 45 58 61 61 53 49 45 42 49 43 45 51 46 49 49 51 51 43 41 38 44 50 49 39 33 33 27 29 33 31 31 34 35 37 37 36 39 42 42 45 45 48 44 33 29 26 26
43 44 50 56 63 57 52 51 48 41 50 51 48 51 46 50 54 52 46 41 41 42 45 50 51 37 31 33 25 29 33 32 31 31 32 35 36 35 36 39 43 47 49 50 45 37 29 25 25
49 42 46 56 59 57 55 45 40 43 48 52 51 51 47 54 56 50 42 44 44 44 47 51 51 39 32 32 25 30 33 30 29 29 30 32 32 35 38 41 41 50 50 47 43 38 37 26 23
53 52 45 53 58 60 59 49 43 45 46 51 56 57 54 52 48 45 42 44 48 45 48 50 50 40 35 29 26 29 34 30 27 26 30 28 26 28 40 48 48 52 52 47 39 36 23 17 19
62 61 58 50 53 56 58 52 49 46 52 54 57 56 50 46 49 46 45 48 50 46 51 45 47 40 35 30 27 28 34 30 23 26 31 26 21 26 38 50 52 57 49 48 36 35 26 20 16
69 67 64 57 56 54 60 55 55 56 58 53 52 50 48 45 52 48 48 51 51 49 49 48 49 42 34 33 26 26 31 26 22 25 25 22 21 26 38 52 56 58 45 49 34 34 27 24 24
77 75 70 64 61 60 60 48 61 63 60 60 58 55 54 53 52 52 51 58 51 50 50 50 45 40 35 32 26 26 24 23 18 24 23 21 16 19 42 55 57 55 47 48 31 29 23 26 29
77 74 71 71 69 67 61 54 59 59 56 57 56 57 58 56 53 54 54 56 54 53 51 46 41 40 35 30 26 27 24 22 20 26 20 14 8 14 46 55 56 47 44 43 37 28 32 34 29
84 83 75 74 74 71 67 61 61 64 61 59 60 60 56 54 54 56 59 59 54 54 49 46 41 41 34 30 25 27 21 21 21 26 17 16 8 11 45 52 52 49 40 35 33 28 31 26 26
93 87 82 78 76 76 69 65 65 67 68 67 66 66 64 61 60 59 59 61 56 53 47 43 44 41 32 30 24 25 18 19 22 24 20 21 15 18 44 42 44 44 38 33 35 36 39 30 28
100 93 86 86 81 75 69 62 68 68 71 70 70 69 67 65 60 61 59 57 54 54 49 42 40 38 31 30 25 25 18 18 22 25 26 28 24 19 33 41 45 40 37 32 37 39 39 42 41
103 98 95 91 89 83 75 66 69 73 75 74 71 63 63 62 61 61 62 58 54 52 45 43 40 39 30 32 26 25 17 17 19 29 30 34 32 30 34 38 36 37 38 47 40 42 42 46 45
105 103 99 95 94 87 83 73 72 75 76 73 66 59 54 54 54 58 58 53 52 50 45 40 41 38 31 33 26 25 16 15 13 29 34 36 34 40 41 39 38 35 41 48 49 48 48 49 48
96 97 97 95 91 88 81 72 71 73 81 74 63 55 55 56 52 51 53 53 50 47 44 42 38 38 33 34 28 24 14 9 11 28 35 34 39 35 40 44 44 46 51 51 54 51 51 52 52
99 100 95 93 92 86 78 69 64 70 70 64 59 58 56 55 51 50 54 51 50 47 47 41 40 39 37 36 30 25 16 6 4 10 31 37 42 37 39 42 43 46 50 53 54 56 58 56 54
83 88 90 89 81 67 64 61 62 60 66 64 64 62 60 56 56 53 54 55 54 52 51 43 40 43 42 40 35 30 21 14 10 4 13 31 38 41 46 45 49 50 48 49 48 53 54 48 51
75 72 67 63 59 57 61 60 55 54 59 62 64 65 61 58 58 57 59 60 59 56 54 42 42 47 46 44 38 34 27 21 17 11 9 13 19 29 40 45 45 45 46 46 48 52 54 56 54
63 64 69 64 58 57 58 59 61 61 66 65 66 65 65 66 60 57 58 62 63 57 58 45 45 50 49 48 41 36 33 29 25 19 16 14 14 18 18 22 30 35 40 43 47 48 51 54 54
64 64 61 60 60 62 66 68 68 67 68 67 69 66 65 63 60 61 62 65 64 62 59 45 44 52 52 50 45 42 38 33 29 27 23 20 17 17 17 18 20 21 21 20 18 17 19 22 27
66 64 64 65 65 63 66 70 72 69 68 71 72 66 65 63 67 67 66 68 68 67 58 45 44 53 54 52 49 44 41 40 34 32 30 27 25 24 22 20 20 19 18 20 21 19 21 20 22
64 64 64 64 60 60 59 64 63 63 63 63 63 64 63 60 60 64 64 66 69 66 55 41 48 55 56 53 52 48 47 46 42 39 35 33 33 32 29 26 26 25 25 24 24 25 25 24 24

GFSSGP_250_spd_096.txt.gz
Wind_Speed
66 66 64 63 61 59 61 60 57 57 57 56 54 54 52 55 51 51 50 50 51 53 53 53 50 49 44 44 43 41 43 46 47 45 48 51 54 56 56 57 56 58 60 63 66 71 73 75 79
67 66 65 63 56 55 58 57 53 52 53 51 52 54 54 53 49 49 47 48 48 50 50 50 45 46 44 40 40 40 42 44 44 46 45 47 48 53 53 52 53 51 50 51 53 56 62 65 68
70 70 66 63 56 56 58 53 51 50 50 51 52 53 54 51 48 48 46 47 48 50 48 44 42 43 40 39 39 39 39 36 37 38 39 35 30 33 36 36 37 39 38 39 42 47 50 54 56
72 69 65 60 57 62 61 60 59 55 53 54 53 55 56 53 49 49 48 47 48 47 45 42 43 39 36 38 36 34 36 35 33 31 34 34 41 40 35 31 26 19 18 21 25 28 27 28 30
62 59 57 53 56 62 64 56 49 52 52 54 52 56 56 53 51 50 49 49 47 44 44 39 38 37 31 32 33 35 37 36 34 33 30 32 39 47 45 39 31 25 21 17 27 31 34 29 28
57 56 55 54 63 63 63 57 53 52 53 50 51 54 57 54 51 50 50 50 46 43 41 41 40 37 30 32 34 32 35 35 33 34 37 35 32 34 40 43 39 36 33 24 26 30 33 35 35
51 52 48 47 51 58 62 57 57 57 55 51 53 54 56 54 53 52 52 48 45 42 43 44 41 34 33 36 37 30 32 35 36 33 32 37 42 41 35 34 42 44 46 41 37 29 38 40 39
55 52 48 46 50 56 58 55 52 56 56 55 52 52 55 53 52 52 51 49 45 44 44 46 44 36 34 38 40 32 28 32 36 34 34 34 33 36 38 41 40 47 51 50 42 35 34 40 41
50 49 43 46 52 56 58 51 47 47 50 51 54 53 54 52 52 48 49 48 46 46 47 49 43 38 36 42 39 33 26 29 34 36 32 31 40 41 41 38 41 43 51 52 46 36 39 36 30
48 45 42 51 56 58 53 47 44 44 47 52 55 53 55 51 49 46 48 46 48 49 49 49 44 39 36 41 38 33 26 28 31 32 29 27 30 37 39 42 41 42 43 50 49 41 44 43 32
51 43 48 49 58 58 53 50 49 47 43 54 54 52 57 54 51 46 49 49 48 50 49 50 48 38 39 43 40 35 28 29 30 31 31 28 27 32 37 37 42 43 44 47 51 46 46 40 36
61 58 53 50 55 51 52 53 46 48 47 54 57 53 54 54 55 51 50 47 48 48 50 48 47 41 40 42 43 37 29 28 30 32 32 30 27 24 31 36 36 44 47 45 53 51 48 39 39
67 65 59 57 61 53 48 50 53 48 51 53 54 53 51 50 52 54 55 53 51 45 47 50 45 44 43 46 45 38 29 27 29 31 32 29 26 21 25 33 38 45 46 43 50 53 51 43 40
79 72 63 62 61 60 55 51 55 53 56 54 54 52 53 50 51 55 58 56 48 47 47 49 46 47 45 48 40 37 29 25 29 30 29 27 25 23 26 30 39 45 42 50 52 50 50 50 35
88 79 76 70 68 64 61 56 52 56 57 54 55 57 58 58 55 55 55 52 49 47 46 48 48 47 48 48 38 38 29 25 27 30 25 25 27 22 23 31 34 48 47 49 50 55 49 47 34
94 86 78 76 72 73 71 61 61 58 61 60 58 55 54 56 55 52 52 52 52 51 50 47 50 47 48 47 37 40 30 26 27 28 25 27 26 22 26 29 34 53 57 47 49 49 46 44 39
93 90 84 79 74 80 77 70 67 63 61 60 62 61 57 56 57 57 56 55 55 53 51 49 51 49 50 42 37 41 30 27 26 27 25 25 28 26 28 28 36 55 60 50 53 40 46 38 30
97 93 90 83 79 82 77 73 73 70 63 60 60 57 56 54 53 54 54 54 57 55 52 50 53 54 53 46 41 37 29 27 23 25 25 27 26 23 20 26 38 58 58 52 53 49 39 34 36
104 98 94 90 87 80 77 80 77 73 72 65 63 62 62 59 59 59 57 55 57 55 55 55 56 53 50 44 38 32 29 28 24 23 25 28 24 21 12 23 34 53 51 49 51 54 39 30 33
108 100 97 93 88 86 81 76 75 72 74 72 69 68 67 65 65 64 62 59 61 62 62 60 57 53 49 41 36 31 28 29 26 22 23 27 24 20 16 23 36 50 48 45 42 48 44 32 33
103 100 99 98 91 86 86 78 80 76 72 77 76 74 69 66 63 62 63 63 63 60 58 59 53 52 47 41 38 30 29 30 24 21 24 26 26 18 22 30 40 40 44 42 38 39 38 38 38
100 102 99 98 94 89 85 86 86 82 82 77 74 74 72 71 68 67 65 66 61 56 55 52 49 49 44 43 37 29 30 30 23 20 25 26 28 24 18 33 37 36 36 39 38 37 36 39 41
99 105 101 97 92 89 90 89 87 89 91 86 82 77 73 72 69 66 64 63 58 52 50 47 46 47 44 42 36 29 32 30 20 18 22 32 31 35 35 36 35 37 35 34 40 41 44 43 51
98 102 101 100 97 93 94 93 89 91 94 93 89 83 81 76 78 71 67 67 61 55 49 45 47 47 42 46 36 31 34 31 19 15 17 35 34 37 43 45 45 41 44 48 42 43 48 59 58
80 93 97 95 94 91 94 93 92 94 92 88 88 86 80 75 71 67 65 59 55 55 51 48 49 48 41 45 38 35 37 32 21 14 10 29 41 36 43 44 51 50 49 49 51 54 55 54 57
67 76 85 90 89 86 87 89 89 92 92 90 89 83 78 75 69 66 60 58 56 55 51 51 51 50 45 46 41 40 41 36 28 22 14 15 33 41 43 44 46 50 53 54 55 61 60 59 57
47 52 59 70 77 80 82 83 86 86 85 86 83 77 75 69 66 63 59 56 55 54 54 56 55 55 51 46 43 44 46 41 37 28 22 19 20 32 42 52 47 50 50 51 55 56 57 57 59
52 53 54 45 53 65 77 81 79 75 71 67 68 65 67 69 58 54 56 59 59 61 59 59 60 60 54 47 45 48 51 45 42 35 31 26 26 25 28 37 53 57 55 58 57 57 56 55 55
59 57 54 54 56 55 54 58 59 56 56 57 59 61 60 57 59 64 61 63 64 67 64 64 62 57 54 48 48 52 55 50 47 42 38 34 33 30 28 32 35 42 53 57 57 56 57 57 56
51 51 56 58 60 62 60 58 58 54 54 53 52 57 61 63 66 67 65 66 69 68 70 68 64 59 56 48 50 54 58 55 51 47 42 38 36 34 32 32 33 35 38 40 39 39 38 35 34

GFSSGP_250_spd_099.txt.gz
Wind_Speed
69 69 68 67 67 67 65 65 63 64 61 59 60 60 61 60 60 58 58 57 55 55 54 53 53 52 49 50 48 45 45 44 45 46 47 46 48 49 47 49 50 54 56 57 59 61 62 62 62
70 72 71 68 66 67 67 70 63 63 59 61 57 56 57 58 56 53 54 54 52 51 52 50 49 48 46 44 48 48 47 44 44 43 42 42 44 43 44 42 41 41 43 49 49 50 52 53 56
73 73 70 68 66 67 71 73 65 63 54 55 55 52 53 56 55 52 53 52 50 52 51 48 47 47 44 44 44 45 43 42 41 38 38 35 35 30 26 24 25 24 28 28 29 31 36 41 44
64 64 61 62 61 70 72 74 66 64 54 51 54 53 54 56 57 55 53 52 51 52 49 48 46 45 44 41 40 42 42 41 39 39 37 32 30 29 28 22 14 14 12 10 14 21 24 26 31
62 60 61 57 58 63 68 71 67 62 56 56 58 63 62 62 60 54 52 53 51 50 51 49 46 45 44 42 39 39 42 42 40 37 36 35 30 32 34 33 28 22 18 21 19 19 22 30 32
60 58 54 54 52 58 62 60 57 54 53 56 58 59 60 57 54 53 53 55 53 52 50 50 47 46 43 41 40 39 40 44 43 40 38 35 34 33 30 36 44 34 33 32 28 21 19 24 32
60 56 52 53 53 58 64 65 62 61 60 57 59 57 59 56 53 55 55 56 52 51 50 51 49 48 45 42 40 41 41 45 45 40 32 29 32 30 35 34 33 43 41 41 38 31 26 27 29
60 60 54 53 52 52 59 59 59 54 53 56 59 60 61 54 58 59 58 54 52 51 51 50 51 48 46 43 43 43 41 41 42 38 29 31 32 30 33 40 36 32 47 47 44 41 35 33 33
67 62 52 49 55 60 61 59 56 52 49 47 52 52 53 57 58 62 58 53 50 50 50 50 49 48 46 46 45 41 38 37 36 35 26 26 28 32 34 38 36 35 39 52 52 46 42 37 39
82 72 57 56 59 57 58 59 54 47 44 43 49 48 54 56 58 61 58 53 48 48 46 48 50 50 48 49 44 39 38 39 34 33 33 27 27 28 36 43 45 36 39 48 57 52 50 40 32
79 76 71 65 65 58 62 58 56 49 43 42 44 48 52 56 57 60 58 54 48 43 44 46 49 51 49 49 43 40 40 39 34 32 35 31 26 28 31 38 45 41 38 40 59 54 54 48 43
83 76 79 75 69 61 62 59 55 50 47 45 47 49 53 54 57 61 59 54 49 48 48 47 49 53 53 46 45 39 38 38 36 30 34 35 29 28 27 35 41 40 40 44 43 57 56 44 45
85 80 79 79 79 66 66 59 55 52 49 53 49 52 52 57 57 57 56 49 42 47 48 48 50 54 53 49 48 42 38 38 35 30 34 35 34 28 24 27 27 34 37 46 45 49 51 44 43
91 88 82 78 78 76 72 63 57 52 50 50 50 50 55 56 54 56 58 51 45 47 50 54 57 57 54 50 47 44 38 40 34 30 33 36 35 30 21 20 22 30 38 42 46 45 52 51 48
102 94 86 77 76 81 81 72 65 63 59 54 50 52 52 55 53 51 53 53 53 53 53 55 57 58 55 52 48 49 38 39 35 31 31 35 34 29 20 23 28 27 39 45 51 45 47 47 55
103 99 88 80 82 83 89 68 73 71 64 59 55 51 55 55 56 56 57 55 53 54 56 57 56 52 53 52 53 45 42 42 39 33 31 34 33 33 25 24 25 28 34 45 50 47 49 52 54
105 95 89 86 88 85 88 80 81 81 70 62 59 57 53 56 57 56 56 56 56 58 58 55 56 55 56 57 50 45 47 44 38 33 30 33 33 30 30 26 26 31 31 40 51 49 57 49 50
86 96 92 91 91 89 83 85 88 84 79 71 68 64 59 58 58 60 60 61 62 59 55 55 54 53 53 53 48 47 50 46 36 33 28 31 32 32 32 28 27 26 34 36 53 58 51 47 48
98 103 105 98 95 94 85 89 89 86 80 76 76 69 66 60 61 62 64 63 59 58 58 55 51 50 51 51 54 53 51 48 37 33 28 31 32 31 31 28 25 23 28 34 53 56 50 48 48
93 99 96 95 97 96 91 88 89 87 81 77 77 74 75 71 62 62 62 60 60 59 61 60 56 54 55 56 60 58 54 46 37 33 30 31 31 31 30 26 22 33 37 36 58 49 45 49 45
84 89 95 96 99 96 93 88 85 82 83 78 79 78 77 72 69 69 69 67 62 60 64 61 57 53 57 55 57 54 49 43 39 35 31 29 31 30 26 24 18 28 32 41 62 47 42 44 46
70 81 93 102 101 97 93 90 90 86 83 84 80 74 74 75 73 72 71 71 67 65 63 62 62 58 60 56 55 47 41 42 38 34 31 29 29 29 23 19 23 22 26 46 56 46 50 45 43
68 77 88 93 95 100 96 92 89 88 82 84 82 82 77 75 74 70 69 69 67 66 65 65 63 59 59 54 58 49 40 41 37 34 30 28 25 30 23 15 18 22 21 38 37 40 48 47 49
66 75 79 83 86 90 90 91 93 91 91 83 84 82 80 78 73 72 73 70 68 66 64 67 66 60 59 61 57 48 39 41 36 35 28 30 25 31 27 20 21 27 30 34 35 38 40 40 40
57 64 72 78 82 81 91 92 90 95 89 88 87 86 85 82 84 82 81 80 77 74 71 71 68 60 58 58 53 48 41 41 38 37 29 30 23 35 31 31 29 29 30 31 33 36 41 43 46
48 53 60 65 72 81 87 90 96 92 91 93 90 86 84 80 84 85 84 84 84 81 77 69 64 61 58 57 50 48 44 42 37 40 31 29 23 41 33 41 41 40 42 40 43 44 47 47 48
43 44 54 59 64 78 84 89 91 94 96 95 90 88 87 88 87 88 85 81 79 78 77 73 64 62 57 55 51 49 45 45 39 44 36 33 29 34 43 47 51 51 50 51 51 51 55 59 58
37 41 47 47 51 64 79 87 88 91 92 93 90 89 89 88 88 88 86 82 80 75 75 70 65 61 57 53 49 49 49 49 42 48 43 38 34 32 36 49 50 55 57 58 61 60 61 62 64
39 41 40 42 52 58 67 73 81 89 92 90 90 88 86 87 87 85 83 79 76 75 71 60 62 57 56 55 57 51 52 53 46 52 50 46 39 34 32 33 49 54 54 57 63 62 64 67 65
44 45 44 37 37 43 49 54 68 74 77 79 82 81 80 79 79 73 71 71 69 68 65 64 62 57 61 58 59 56 52 54 50 55 56 50 46 42 37 33 33 35 53 62 59 58 60 60 63

GFSSGP_250_spd_105.txt.gz
Wind_Speed
65 64 63 63 61 58 56 65 67 71 72 65 63 64 72 70 68 61 59 61 61 60 60 62 59 59 55 54 51 47 44 43 45 45 44 42 40 37 35 35 35 33 33 31 24 25 30 35 36
64 62 60 58 54 52 56 64 67 66 64 61 58 64 72 68 64 60 60 59 58 55 55 53 51 51 49 50 48 44 40 40 40 40 41 42 39 35 32 27 27 22 14 9 10 13 11 13 17
62 58 54 49 47 47 51 58 61 64 58 55 57 70 72 67 59 60 57 56 55 50 51 49 47 47 48 49 47 44 40 39 38 38 39 43 40 34 30 24 19 12 19 19 13 17 19 18 14
58 55 58 51 48 49 50 57 58 53 46 44 47 57 62 59 55 55 53 53 53 49 50 47 46 46 49 51 46 40 37 37 37 38 39 43 43 38 33 29 21 21 25 24 20 13 22 21 16
62 62 58 53 52 54 55 60 63 54 46 36 41 52 56 52 48 45 44 51 52 48 47 48 47 48 50 43 42 38 35 37 37 37 40 43 43 39 35 32 25 28 32 32 26 27 23 21 19
64 65 59 56 55 57 57 61 66 61 51 39 37 46 51 38 37 36 37 40 46 50 49 49 52 50 46 41 39 38 37 37 38 38 39 41 42 38 31 28 25 29 32 34 35 35 30 29 20
70 71 61 54 49 49 57 65 64 64 59 51 44 39 49 37 35 37 39 39 44 46 47 48 47 46 46 42 45 41 37 37 39 40 37 39 41 41 34 25 28 30 39 39 41 44 43 42 27
76 75 66 59 57 50 58 62 65 67 62 58 58 40 45 45 36 41 46 47 52 47 45 48 47 47 45 44 43 39 36 37 39 37 39 40 42 44 37 27 31 27 38 43 42 35 44 46 39
90 82 63 56 63 60 67 68 68 66 62 58 61 51 41 46 34 37 43 44 44 49 49 47 49 46 45 45 45 43 37 38 35 37 40 43 43 48 40 31 31 34 33 47 53 47 42 48 44
94 90 75 78 72 70 67 70 71 72 62 58 60 63 52 47 42 42 43 44 42 40 37 37 43 43 44 44 44 39 37 35 38 41 41 44 47 47 41 35 33 33 34 34 47 49 52 51 46
96 91 78 85 84 82 76 74 75 78 62 54 62 63 59 58 50 39 42 43 42 39 41 42 48 49 50 46 40 39 38 37 41 43 45 45 46 45 39 37 33 35 34 40 38 45 51 62 59
103 89 89 89 95 90 85 81 78 77 63 57 56 67 56 57 53 50 44 44 43 36 41 40 39 40 45 46 39 38 41 42 43 42 45 43 41 44 35 35 35 36 35 37 40 38 45 51 54
104 95 96 87 98 99 97 87 84 82 70 63 61 59 55 56 55 53 49 40 43 39 39 40 40 41 47 46 36 38 38 42 42 45 43 44 41 43 38 35 36 34 34 36 39 42 42 45 42
94 98 95 92 90 87 92 90 92 82 87 75 65 60 60 55 54 57 52 46 41 43 41 40 38 41 46 44 38 39 40 45 47 45 45 45 44 38 37 33 36 33 33 35 38 39 41 41 45
93 100 98 91 83 87 90 96 91 83 92 86 69 61 61 58 59 56 55 48 45 39 44 45 43 39 42 43 41 42 43 43 43 47 47 41 38 39 36 34 37 33 34 32 36 38 37 41 42
100 105 101 85 89 89 96 96 84 89 91 85 77 65 62 59 55 57 53 50 49 43 42 42 43 42 39 35 38 40 40 45 48 46 45 43 39 35 39 39 37 34 35 32 35 38 40 40 43
100 102 101 88 87 88 95 94 82 90 89 84 80 74 69 62 58 58 57 55 51 49 40 39 41 42 39 39 41 41 43 44 45 45 41 42 39 40 42 40 36 35 35 32 33 39 39 39 40
96 106 104 100 85 92 96 95 82 94 91 83 83 80 75 67 58 59 61 59 56 50 43 41 43 42 42 37 40 42 41 42 41 43 44 39 40 41 44 40 36 36 35 33 34 35 34 37 39
99 102 102 102 91 102 101 97 87 91 96 91 82 80 78 70 62 60 64 63 64 57 48 44 44 42 46 37 40 41 42 41 43 43 43 41 43 39 43 40 36 37 35 34 32 33 30 35 39
91 89 87 91 95 98 99 92 88 88 92 85 81 82 77 72 68 63 64 67 68 66 53 49 45 45 51 47 41 41 43 44 46 43 44 44 45 43 42 39 35 37 36 34 30 30 29 26 37
76 73 74 78 81 83 88 86 87 87 89 87 86 83 79 75 72 69 63 65 66 61 58 50 49 52 53 54 48 47 48 49 50 48 48 46 45 47 40 38 35 37 35 35 29 31 30 26 26
61 64 67 67 66 70 75 72 79 83 80 83 89 85 79 76 77 66 57 59 59 60 61 59 55 56 57 57 53 49 51 52 53 51 51 49 48 50 39 35 36 34 31 31 28 29 30 25 26
56 55 54 53 56 58 64 63 73 79 77 79 83 87 85 85 77 60 53 49 50 58 64 64 61 61 58 55 59 55 52 55 55 53 53 52 53 49 40 34 36 33 29 27 27 29 26 38 33
42 42 43 50 49 49 52 57 63 69 75 76 90 89 85 82 69 60 60 58 59 60 63 66 66 63 58 54 65 61 52 56 57 52 57 59 56 49 41 33 34 32 29 27 25 28 33 37 38
25 36 36 37 35 41 50 55 60 69 76 80 83 87 85 79 68 64 66 69 66 59 56 59 62 62 55 57 65 66 59 56 58 54 59 59 55 48 40 33 33 31 29 26 23 26 26 31 29
34 33 32 36 37 46 47 51 57 66 73 80 83 80 81 81 77 74 73 73 69 66 61 59 56 57 54 59 69 70 61 55 57 60 63 61 58 49 40 34 32 31 29 29 25 26 20 26 30
24 27 32 36 37 38 40 50 54 59 64 68 71 71 73 75 75 74 73 71 70 68 63 65 61 60 56 60 69 67 61 55 60 62 63 61 59 49 39 35 33 32 31 33 26 27 20 18 31
23 26 32 34 34 29 34 41 46 52 55 49 65 73 77 76 77 78 74 72 71 70 69 68 66 67 61 61 64 61 57 61 63 61 62 63 59 49 43 37 35 35 30 37 30 30 28 26 32
30 32 34 36 33 31 22 34 40 47 45 45 49 58 71 73 75 79 80 73 74 72 73 71 67 67 66 70 68 65 64 65 66 64 65 64 59 49 45 40 38 40 37 39 39 35 37 36 37
32 35 36 36 35 33 30 40 43 33 49 53 58 61 60 64 69 74 78 79 75 75 73 74 71 70 71 71 71 69 67 67 67 69 67 65 60 52 45 44 37 41 42 39 44 44 44 44 45

GFSSGP_250_spd_108.txt.gz
Wind_Speed
67 65 65 63 64 60 59 65 67 74 72 69 68 69 70 71 73 66 64 64 65 67 65 62 63 61 60 56 54 53 51 48 47 45 44 44 42 40 36 35 34 30 25 21 18 6 7 11 14
65 65 64 63 62 59 56 66 66 68 68 69 69 68 66 65 68 65 60 61 62 61 62 61 60 57 54 51 48 48 45 42 41 38 39 38 36 37 34 32 28 26 23 22 22 21 20 15 13
59 60 62 58 53 52 52 59 59 62 63 63 61 62 60 56 61 61 61 59 60 59 58 56 55 50 46 42 43 43 42 41 35 33 34 34 34 36 34 33 32 29 25 27 29 28 28 21 20
54 55 54 48 44 48 49 57 62 58 56 56 55 51 44 48 47 50 50 48 50 51 51 50 50 43 40 41 40 40 43 37 29 28 32 33 32 35 36 33 34 30 29 28 34 34 36 30 25
52 52 55 50 47 49 53 59 64 61 56 54 53 48 40 40 38 40 42 45 46 42 43 43 45 41 40 38 42 42 41 32 25 28 31 33 33 33 35 32 31 30 28 31 39 38 40 33 24
59 57 49 47 45 49 49 56 67 64 64 60 54 49 41 40 31 29 32 37 38 37 39 38 40 40 41 43 43 42 36 30 31 28 30 31 33 33 35 36 35 31 29 30 37 42 43 36 25
64 63 57 50 48 51 56 63 63 68 63 60 56 51 45 42 32 31 33 37 36 36 38 33 32 36 41 42 38 38 36 34 29 28 29 31 30 32 36 37 42 32 31 31 36 39 47 45 34
68 68 60 61 58 56 59 65 67 70 67 65 58 52 48 45 39 30 37 40 40 39 44 40 39 41 37 39 37 38 37 35 31 34 30 29 30 34 36 37 44 36 31 33 36 40 41 45 44
78 73 63 66 70 69 71 73 77 74 65 68 69 57 50 45 43 38 39 44 37 30 40 38 36 41 40 40 41 41 39 35 34 29 29 31 32 35 38 39 43 40 35 36 36 41 40 46 48
86 81 72 80 80 76 77 76 77 81 78 69 69 62 57 47 46 44 45 46 42 33 38 35 33 35 28 25 30 34 32 36 34 30 30 33 35 36 38 39 41 40 38 35 39 41 46 41 45
93 85 79 88 89 85 80 78 80 82 77 75 75 71 61 51 49 42 50 52 50 35 37 35 31 32 36 37 42 42 39 32 33 32 32 35 37 37 36 38 41 40 39 37 37 40 39 44 51
95 87 91 82 92 95 81 81 81 89 78 80 81 80 69 56 54 43 50 56 53 46 37 38 33 34 37 34 34 33 35 33 35 33 32 33 36 38 37 40 42 36 38 39 35 43 44 41 44
100 94 95 87 96 86 87 89 88 89 80 91 90 86 78 62 59 47 48 55 56 53 43 40 35 31 37 37 36 39 37 33 35 32 31 34 38 36 39 39 36 32 33 36 35 33 39 40 39
93 100 97 98 91 90 89 82 90 81 87 97 99 94 84 75 65 54 51 51 54 54 47 37 42 37 35 36 38 39 38 34 36 33 34 36 33 37 35 37 34 33 32 34 33 32 33 36 39
98 105 101 96 87 100 98 91 88 68 85 89 91 88 82 77 66 62 58 56 54 55 52 42 39 40 40 36 36 34 33 34 35 35 34 36 36 34 35 35 34 34 36 34 32 32 31 34 36
103 104 107 95 99 95 99 103 84 78 83 85 87 86 78 72 68 66 62 57 60 54 55 48 40 39 39 42 40 37 32 30 28 31 32 34 32 32 34 34 35 36 36 36 33 32 31 33 36
104 117 115 105 105 106 106 106 83 89 91 86 88 85 80 71 74 71 67 62 62 55 56 56 46 37 38 37 37 35 34 32 31 30 31 31 28 33 33 34 38 38 37 36 32 33 31 31 34
112 118 114 106 106 115 111 105 96 95 96 92 88 87 81 71 69 74 69 63 64 62 54 53 48 44 36 35 34 34 32 31 30 30 30 28 27 32 34 36 39 39 40 36 32 33 32 32 36
101 100 98 93 93 103 111 105 97 97 100 93 89 85 80 74 74 79 74 68 68 64 54 54 51 46 42 40 37 31 32 30 32 34 33 29 30 35 37 41 38 43 39 36 33 33 31 33 35
85 86 85 79 80 96 100 99 95 95 95 90 86 83 79 79 80 81 78 74 69 61 54 55 55 50 45 42 42 37 35 35 37 41 39 38 36 37 36 39 40 43 39 34 33 34 31 33 32
69 68 69 64 77 82 88 88 88 89 86 86 82 82 84 86 89 87 83 73 66 59 57 52 55 54 52 51 47 42 40 40 42 44 41 41 41 41 40 42 44 46 40 33 33 33 30 29 28
51 55 56 54 63 64 73 70 76 79 75 81 84 88 91 88 83 81 77 72 66 61 55 54 58 60 58 54 51 49 46 46 47 44 43 44 45 45 43 44 46 48 41 33 32 29 28 28 31
38 37 41 43 44 49 52 53 60 62 65 74 87 89 88 83 78 70 74 71 67 60 56 53 56 60 61 58 53 52 54 53 47 48 47 47 48 47 46 45 47 49 43 33 31 27 25 29 26
30 31 33 33 37 35 40 45 50 50 58 67 78 84 84 77 70 66 73 68 67 60 57 54 56 61 62 61 60 57 53 51 47 50 52 48 50 50 48 47 49 48 43 33 30 28 27 29 35
28 28 22 23 27 34 38 39 41 42 48 52 64 74 78 74 69 74 71 69 66 62 60 55 56 57 55 59 60 61 59 59 54 53 53 51 55 51 48 48 50 49 43 33 31 27 27 31 32
25 24 25 25 26 29 32 36 34 39 39 43 52 63 69 70 72 73 67 68 66 64 62 61 57 53 55 55 58 63 63 60 54 51 54 57 59 54 48 49 50 46 41 34 32 29 28 33 34
16 19 20 22 27 28 28 30 34 36 42 21 36 58 65 65 67 74 69 71 70 70 70 66 58 59 57 55 53 55 63 58 55 50 52 57 55 52 51 49 48 49 43 36 33 33 29 32 30
16 17 20 22 23 24 27 30 35 30 42 49 53 57 60 64 61 68 67 75 74 69 65 63 58 58 62 57 53 55 59 54 50 53 52 58 54 52 50 49 50 51 44 39 33 35 31 30 30
17 20 22 26 28 29 27 27 36 39 41 47 48 49 51 58 65 67 74 79 75 70 68 68 64 65 64 62 59 60 58 53 49 52 54 56 56 53 53 56 55 54 48 41 36 35 35 35 32
22 26 28 30 30 26 31 31 34 40 42 42 36 36 41 49 55 61 69 68 73 77 73 68 69 69 67 68 65 61 58 56 56 54 57 59 58 55 57 57 60 59 53 45 38 36 38 39 37

GFSSGP_250_spd_111.txt.gz
Wind_Speed
70 70 71 70 70 67 64 68 74 79 76 73 74 72 73 74 74 72 73 73 72 74 75 73 70 71 69 68 68 67 66 64 60 57 55 54 52 52 49 44 39 38 36 33 32 28 31 25 20
69 71 73 71 69 67 65 74 75 79 77 74 74 72 72 74 75 73 72 72 73 75 75 72 71 70 68 67 66 63 62 58 56 51 46 47 45 41 38 34 32 33 32 33 32 30 31 30 28
54 56 54 55 55 59 56 64 68 72 75 76 73 70 66 63 66 71 68 68 70 72 71 68 70 69 66 63 60 58 55 50 46 40 39 39 37 34 32 29 26 26 30 32 33 33 37 39 33
44 41 43 43 40 43 50 60 61 60 62 63 64 63 60 56 54 57 56 57 59 60 60 59 58 56 56 56 55 50 45 40 39 36 36 30 29 29 28 27 24 27 28 31 32 33 37 41 38
47 45 39 31 39 40 48 57 61 61 61 60 57 58 57 53 49 49 47 48 44 46 45 49 51 49 48 47 47 41 38 37 37 35 27 31 27 26 26 25 26 28 31 29 31 31 35 39 41
56 55 48 41 42 46 51 57 59 62 63 60 54 53 54 54 53 52 50 39 39 36 34 38 41 40 42 40 41 40 39 38 38 33 30 26 26 26 25 23 25 28 33 30 29 31 31 36 38
58 58 52 53 54 55 57 64 66 66 64 66 57 46 46 49 52 54 52 42 40 37 34 30 33 32 36 35 34 35 37 31 32 32 30 30 30 27 25 26 28 32 35 35 28 27 29 35 37
60 61 57 59 59 56 59 74 75 74 70 71 64 53 43 47 49 49 50 47 46 42 36 26 32 31 38 39 39 36 33 34 33 32 31 31 29 27 26 29 31 34 37 36 31 27 29 30 41
74 68 58 59 62 63 64 72 77 79 74 76 75 64 56 50 47 47 51 48 49 48 39 32 35 28 34 38 36 36 35 33 35 33 29 30 28 28 28 30 34 35 36 37 35 29 29 34 28
71 67 60 69 74 72 72 74 77 80 77 79 81 79 69 61 54 51 49 52 52 53 45 38 39 31 32 36 33 29 26 25 26 25 29 28 28 29 29 33 35 38 37 40 35 32 29 29 36
71 67 76 73 79 80 80 79 83 83 75 81 88 87 81 73 63 52 47 52 57 53 51 47 42 33 32 34 33 29 31 33 34 27 27 28 28 30 30 33 37 36 38 37 35 34 32 29 32
80 76 80 81 84 87 85 87 86 87 72 85 87 93 90 81 73 63 52 58 59 56 55 52 47 37 35 35 35 36 31 27 27 26 28 29 28 28 29 34 33 37 35 36 36 37 35 30 31
89 84 86 85 81 84 92 86 92 82 75 85 88 93 91 90 83 77 63 60 62 59 61 57 49 45 39 37 37 37 35 30 30 33 28 28 27 28 31 29 32 32 34 36 37 36 37 33 28
93 94 89 82 88 85 91 82 94 75 81 86 89 93 92 90 88 87 74 64 61 61 64 58 52 49 43 41 39 36 37 33 31 32 31 29 29 30 27 29 27 31 30 33 36 34 37 35 27
89 97 94 85 86 97 96 89 82 73 86 88 92 95 99 90 81 74 76 70 66 67 67 57 55 49 47 44 39 39 38 37 29 26 27 30 31 31 28 28 25 30 28 32 34 36 36 34 29
101 104 94 83 98 97 111 104 84 81 85 85 86 91 98 96 87 74 72 69 69 72 68 66 59 55 48 46 40 39 42 41 34 28 28 28 28 26 27 24 26 31 32 32 34 36 35 31 29
95 104 110 101 102 106 107 110 94 98 100 95 92 90 96 97 87 79 68 69 74 73 73 69 62 58 53 47 43 40 42 45 44 37 29 26 24 21 22 22 27 31 33 34 36 35 35 32 28
116 114 114 114 100 112 108 112 104 99 108 100 99 96 98 99 91 81 73 73 72 79 75 74 60 59 57 50 48 45 40 40 38 34 31 28 23 18 18 22 26 27 29 34 37 35 34 33 29
110 115 112 109 109 101 102 105 97 103 110 108 104 102 95 98 90 87 83 79 73 78 75 74 61 58 57 53 50 48 45 36 34 33 32 30 29 25 24 25 27 29 32 35 38 38 35 31 29
100 103 97 91 88 82 78 83 87 91 97 109 105 105 101 101 100 93 84 78 76 71 70 73 68 59 56 55 52 46 46 42 35 35 34 31 30 31 30 28 29 31 33 34 37 39 34 32 30
82 82 79 72 74 65 61 59 72 76 87 95 104 103 104 99 100 97 87 80 71 66 69 71 70 61 56 56 53 51 47 44 40 40 37 36 34 34 35 32 32 34 36 35 37 41 35 32 31
66 63 63 61 58 57 46 47 59 66 76 81 93 101 102 102 100 97 91 74 66 69 71 69 73 65 59 56 57 57 56 49 48 43 42 39 40 40 39 35 35 36 36 36 38 43 37 32 29
48 48 47 46 47 43 40 44 52 54 62 73 77 88 93 98 98 91 84 72 66 67 68 72 76 68 60 59 60 62 60 54 52 46 45 46 46 43 42 40 38 39 40 39 40 42 37 32 27
41 35 35 36 36 34 35 41 40 45 48 57 67 76 81 84 82 79 78 72 66 65 69 73 76 69 64 59 58 62 64 60 57 52 43 47 47 47 43 42 40 44 42 40 41 41 37 33 29
29 24 22 25 24 25 28 26 31 35 38 45 52 60 68 72 75 78 78 73 67 64 68 70 74 70 67 63 61 62 63 62 62 59 53 44 44 45 45 44 42 44 45 40 42 40 38 34 30
19 18 17 18 21 21 19 21 26 27 31 36 42 48 53 59 68 72 76 74 67 63 68 70 76 75 70 67 63 62 61 63 63 63 61 57 54 52 52 48 45 43 43 41 42 40 38 34 33
17 15 13 17 17 18 19 19 18 19 24 29 35 39 44 51 58 63 70 71 67 64 68 73 75 73 73 69 64 62 62 63 63 62 59 58 56 54 52 48 47 42 41 42 44 43 41 34 34
13 10 9 11 15 22 25 30 29 23 19 26 29 17 35 40 48 54 61 68 63 60 66 72 73 73 75 74 66 61 62 61 65 62 60 62 57 53 51 50 47 46 45 44 44 46 43 38 36
12 11 12 14 17 22 24 29 34 40 38 31 28 9 23 30 42 48 53 59 59 60 63 69 71 74 73 70 64 60 56 56 60 65 64 60 54 50 53 54 51 53 49 45 47 47 48 41 38
14 12 16 19 23 25 27 28 38 42 42 43 37 35 34 27 41 41 42 58 60 61 61 67 73 72 72 69 67 64 60 61 61 56 52 48 48 49 53 52 51 55 52 48 45 49 52 49 43

GFSSGP_250_spd_114.txt.gz
Wind_Speed
72 72 69 67 69 68 66 71 79 81 79 77 77 78 76 75 73 72 74 77 76 76 78 78 77 76 73 72 71 71 70 69 69 69 68 66 65 61 60 60 55 52 50 48 46 47 46 45 42
63 60 64 66 63 63 61 71 77 76 78 77 76 75 74 74 72 67 71 73 76 76 78 78 78 77 75 72 71 70 70 67 66 64 62 61 57 54 53 53 46 43 38 35 37 40 42 41 40
54 53 53 52 47 43 48 59 66 65 67 66 66 66 64 65 63 61 64 69 69 71 74 75 75 74 71 67 64 64 62 63 63 62 58 54 52 47 43 46 40 36 31 29 31 33 37 39 39
46 46 49 49 44 36 44 53 55 56 57 54 52 53 53 57 53 58 58 61 60 62 65 65 66 65 61 60 57 55 53 53 52 51 49 44 42 36 38 35 34 30 27 24 27 29 34 35 38
46 46 42 36 36 40 48 54 55 54 55 52 49 51 47 49 52 52 51 52 54 54 53 55 57 57 55 49 46 46 47 45 44 42 39 41 36 37 35 33 29 27 25 21 26 27 30 33 34
53 51 45 43 47 49 52 58 59 60 60 59 54 50 50 52 51 51 48 49 51 50 49 49 51 47 45 41 41 41 41 42 41 40 38 43 39 34 34 29 28 25 23 21 24 28 27 29 28
58 55 48 49 53 56 56 67 69 69 66 66 59 50 52 52 50 48 48 45 44 45 46 49 43 37 35 38 40 36 35 33 34 39 37 37 32 31 34 32 29 25 21 22 26 29 28 26 27
65 64 60 59 59 61 64 69 72 70 70 72 67 60 60 54 51 53 51 48 46 46 46 48 46 34 36 31 37 41 37 36 32 34 38 40 37 32 33 31 30 25 23 24 26 29 33 28 25
59 53 57 58 63 65 66 72 77 76 72 72 72 65 65 62 58 54 54 50 46 49 49 51 48 39 39 31 33 36 34 33 32 33 34 36 36 32 31 29 28 27 25 26 26 30 31 28 24
58 61 62 68 67 72 73 70 70 70 69 72 77 77 69 68 65 63 60 55 55 56 54 53 52 46 41 39 32 34 35 34 30 25 25 26 25 28 29 27 27 27 26 30 27 29 31 29 26
68 56 57 64 70 68 69 70 71 73 71 79 78 82 75 73 71 69 70 66 59 58 59 61 53 50 47 45 35 36 31 32 28 29 28 28 28 27 25 27 27 26 28 28 28 27 31 32 29
65 65 65 65 70 73 76 75 75 75 74 85 86 85 84 79 79 74 72 74 69 64 60 66 59 55 51 47 41 37 35 30 37 34 29 25 24 26 28 27 24 26 26 28 28 27 30 31 30
76 69 70 73 74 79 79 80 81 72 77 76 80 87 88 87 82 80 79 80 74 69 67 70 65 60 56 50 45 42 41 33 33 38 31 27 29 27 27 26 26 25 26 26 25 24 28 31 32
84 84 83 86 92 92 90 86 85 78 85 85 82 83 88 85 82 82 79 80 77 70 66 73 70 66 63 56 52 44 45 38 35 36 34 31 29 29 27 26 28 23 24 23 23 26 25 30 31
92 87 82 82 95 97 102 97 91 86 91 93 93 86 85 85 84 80 80 81 81 73 64 69 70 69 65 57 54 47 45 43 39 34 36 34 30 30 30 27 26 25 23 22 22 24 24 29 29
90 87 89 86 92 94 102 94 85 97 93 96 89 94 94 86 84 83 82 81 81 79 69 65 71 72 67 62 55 51 47 43 41 38 37 37 32 29 30 31 27 25 23 22 25 25 25 27 27
97 101 100 81 92 95 103 111 93 103 102 105 97 92 95 91 88 86 86 85 85 80 74 65 68 72 68 62 57 54 48 45 43 39 43 38 37 34 32 29 25 22 20 21 22 25 24 28 28
99 100 94 93 95 107 114 119 114 104 113 107 107 101 97 96 92 86 92 90 86 82 72 69 67 73 68 65 60 58 53 50 46 40 40 43 42 38 33 29 23 21 21 20 21 23 25 28 30
94 98 100 97 100 111 107 119 117 113 114 112 111 103 104 100 96 99 99 95 90 82 72 66 65 67 70 69 64 61 56 52 48 44 37 41 40 41 38 28 25 24 23 23 24 26 27 28 31
106 99 98 98 101 104 89 84 90 92 90 90 98 107 102 103 103 106 108 102 92 83 76 69 64 70 67 72 66 62 59 52 51 48 42 40 41 40 35 34 30 25 25 27 28 28 29 30 33
88 94 91 94 85 88 70 66 68 74 70 73 80 92 105 114 108 107 108 103 97 88 81 71 65 72 67 71 68 63 60 53 51 51 48 41 38 38 38 37 33 30 30 29 30 30 33 33 35
75 76 74 72 67 67 60 59 51 57 57 61 68 77 87 104 108 110 106 100 95 91 82 75 67 73 68 67 70 68 64 58 55 53 48 43 40 39 37 38 34 31 31 34 33 33 34 35 36
63 60 58 56 53 53 52 49 46 45 46 54 60 68 78 87 94 102 101 100 94 92 85 77 73 73 74 71 69 70 68 65 60 57 52 47 44 43 37 39 38 36 34 36 37 38 36 37 36
53 48 44 43 43 44 41 36 35 36 38 44 52 60 65 75 78 83 92 94 92 90 86 77 76 74 78 73 73 71 72 68 65 61 57 54 52 48 43 42 41 40 39 38 38 38 38 35 35
44 36 33 31 28 27 26 25 25 27 29 32 40 49 54 61 66 72 80 82 82 84 80 75 78 77 77 76 75 72 72 70 67 63 60 58 56 51 52 46 43 42 41 38 38 41 36 34 35
32 27 26 24 22 20 21 19 17 18 21 26 31 37 41 47 55 62 66 69 68 80 78 76 78 76 78 77 77 74 73 72 68 64 64 61 61 54 50 51 49 41 45 44 44 41 35 34 38
26 24 23 22 22 22 22 22 21 18 19 24 27 29 33 40 47 51 55 59 62 69 71 76 77 75 74 73 75 76 77 75 69 67 64 64 63 60 57 53 54 54 50 49 44 38 37 36 39
21 20 22 19 19 18 21 23 23 25 23 21 24 26 27 33 40 45 46 48 52 56 60 66 72 71 72 75 76 77 73 74 70 69 65 64 63 58 54 51 54 54 50 49 45 41 40 41 43
20 20 20 19 16 15 16 20 26 27 28 27 21 24 27 27 33 39 42 46 50 54 58 62 66 70 71 74 78 77 74 76 75 69 65 64 62 61 59 58 56 56 52 48 50 46 43 47 46
19 19 19 17 15 12 15 19 26 29 30 25 21 18 18 15 21 34 36 40 44 47 51 58 63 67 69 70 75 80 77 74 74 70 65 63 63 66 65 61 57 59 55 53 52 48 45 49 49

GFSSGP_250_spd_117.txt.gz
Wind_Speed
64 65 65 68 64 64 62 70 75 77 76 75 76 74 73 72 71 72 72 72 75 76 76 77 75 74 74 71 69 68 67 66 65 66 66 66 63 62 61 62 63 64 62 59 58 59 59 59 59
48 51 52 52 54 57 58 67 72 73 73 70 71 71 71 69 65 67 70 69 71 72 72 73 71 72 72 72 70 68 65 63 61 59 60 59 59 58 58 57 58 57 56 51 49 51 49 49 54
48 47 47 46 45 47 49 55 60 61 62 64 63 62 60 61 61 58 62 60 64 66 67 65 68 66 63 67 66 62 56 53 51 52 52 53 51 50 48 49 49 50 49 46 42 40 40 40 43
49 48 46 39 36 43 50 54 57 61 56 54 54 52 46 48 49 50 50 54 57 60 62 58 59 59 52 56 55 53 49 47 47 45 47 47 45 44 44 41 41 43 42 36 36 36 34 32 35
48 48 46 41 44 44 50 53 56 56 55 55 53 53 50 52 51 50 52 53 53 52 54 55 54 51 47 44 46 49 47 44 41 42 43 41 38 38 38 38 40 39 35 33 32 33 29 30 27
46 47 42 45 47 50 54 59 59 59 58 56 51 51 50 49 51 50 48 48 48 48 48 49 50 48 44 40 41 38 38 40 41 41 40 38 38 35 39 41 39 37 35 32 31 30 23 24 26
51 51 48 51 53 50 58 62 62 64 63 64 58 53 57 57 54 54 53 52 49 47 48 49 50 49 42 37 38 35 36 36 36 37 34 37 37 36 37 36 33 34 36 33 31 29 22 22 27
57 53 47 55 63 64 68 68 68 64 67 70 66 59 58 61 62 62 60 57 53 53 50 51 50 48 43 36 36 35 35 33 35 38 37 37 36 36 34 31 36 34 34 34 30 29 22 22 26
63 59 61 65 64 67 66 62 68 73 71 73 73 65 63 66 66 65 64 60 57 53 53 52 51 46 44 37 35 36 35 34 32 35 36 37 36 37 39 37 33 35 31 30 29 28 25 23 28
64 65 69 68 67 61 63 57 64 69 68 69 73 74 72 71 66 65 64 63 60 58 56 54 57 53 51 45 40 38 37 38 33 33 35 33 32 33 35 31 29 28 29 28 27 28 26 25 28
65 67 71 70 70 68 65 67 68 74 73 72 71 73 73 70 70 68 68 68 68 64 62 60 60 62 57 51 46 42 36 39 39 31 32 30 31 29 27 29 26 28 27 28 28 26 26 24 28
68 71 74 73 74 74 73 72 68 71 70 77 78 77 79 75 74 75 72 71 72 70 70 66 62 62 65 61 51 46 41 37 40 37 29 35 35 36 32 27 25 25 24 25 27 24 25 24 25
73 77 77 77 77 74 73 73 73 73 78 78 82 79 77 79 77 77 78 78 76 73 73 72 66 65 68 63 59 54 47 43 43 40 37 33 39 39 30 30 27 25 24 26 26 22 22 24 25
75 76 77 77 79 80 84 81 80 79 86 86 86 85 82 82 82 80 79 78 76 78 76 78 73 68 70 63 59 56 55 49 47 45 41 35 36 40 38 29 28 27 26 26 24 21 20 23 23
81 80 81 85 85 91 99 84 90 92 98 93 90 92 94 91 91 85 83 83 79 78 76 76 75 66 67 64 61 55 55 53 49 47 44 40 36 38 39 33 33 30 29 27 23 23 21 25 26
84 85 85 88 90 100 108 94 100 100 101 102 99 96 97 97 97 93 89 85 89 78 78 72 72 69 68 65 63 51 53 54 54 48 47 42 37 36 41 34 34 30 34 30 26 22 21 20 23
87 85 86 86 94 103 108 104 92 105 105 106 105 104 99 102 100 99 97 93 88 81 81 74 73 73 68 67 65 53 51 56 57 51 49 45 40 37 40 37 35 37 36 32 28 23 19 16 21
89 90 89 89 90 101 102 108 103 98 113 112 113 111 109 101 102 105 104 99 94 84 79 75 71 73 72 67 61 54 50 59 63 55 51 48 42 40 40 39 38 41 36 31 26 22 18 22 22
87 87 84 81 89 94 102 115 114 115 112 116 113 105 105 110 101 111 111 104 101 91 85 76 71 69 74 71 66 58 53 54 61 57 55 48 47 43 40 40 41 38 34 32 26 24 22 24 24
82 81 85 75 84 90 89 87 98 106 101 102 107 109 113 110 117 118 112 109 104 97 90 82 71 67 69 75 69 60 52 54 57 59 58 53 50 45 43 41 43 42 40 33 26 25 25 24 22
81 81 81 78 73 84 77 76 73 78 76 75 77 87 94 103 117 117 121 120 110 102 93 89 76 66 65 67 65 56 53 55 59 63 65 60 52 48 45 41 40 42 43 37 32 30 30 26 24
82 80 76 74 67 71 70 64 59 58 63 60 59 63 71 79 88 110 123 117 119 112 100 89 83 71 68 67 62 60 56 59 61 66 65 63 55 51 46 42 41 42 43 41 33 30 32 33 31
77 72 67 64 61 59 57 51 51 49 46 44 47 51 59 67 73 86 101 121 115 110 101 94 83 75 68 72 61 64 61 61 62 65 66 64 58 53 48 44 42 43 42 38 35 31 31 35 35
66 60 57 52 51 50 48 44 42 40 37 37 36 41 48 56 60 70 82 99 116 105 102 94 85 79 73 71 70 70 68 68 65 66 67 65 60 54 50 49 43 42 41 39 39 35 35 36 35
56 52 46 46 44 39 37 37 35 32 31 28 28 33 39 43 49 58 70 81 90 94 101 94 88 83 79 76 75 74 73 71 68 69 68 64 62 57 57 54 49 49 47 45 43 40 37 36 35
49 43 39 38 33 32 32 34 34 30 28 24 22 26 31 34 39 49 59 69 73 77 93 96 91 87 84 82 78 74 72 75 71 69 69 67 62 60 59 59 55 54 53 48 46 41 40 37 38
42 36 32 26 26 29 28 31 33 31 25 22 20 22 26 28 33 40 49 57 63 70 85 91 92 91 92 91 86 83 78 76 74 71 68 68 64 65 64 63 59 57 52 51 49 47 45 44 44
35 33 27 20 22 24 27 27 29 29 25 16 18 20 25 26 30 36 41 49 57 65 73 82 92 93 93 91 90 87 79 78 75 72 67 67 65 67 65 65 63 60 57 57 53 51 52 50 48
30 27 20 18 19 21 20 20 18 18 14 16 15 16 20 20 24 32 39 44 49 54 60 70 80 86 89 87 87 83 79 76 72 72 73 70 69 69 66 64 65 57 54 56 55 55 54 53 49
23 20 15 15 17 15 15 15 14 15 14 15 17 15 14 19 18 22 29 36 41 42 49 58 67 75 77 79 78 81 80 77 80 76 77 75 74 67 67 63 66 58 58 56 54 53 53 55 56

GFSSGP_250_spd_120.txt.gz
Wind_Speed
45 52 56 60 59 60 62 67 76 77 74 73 75 76 74 72 70 73 75 74 77 77 76 76 75 74 74 74 72 71 71 69 67 64 65 64 63 61 58 56 56 56 58 58 58 58 56 54 56
45 44 43 42 45 45 53 63 68 68 67 67 68 70 71 68 68 72 70 71 72 74 72 71 73 71 70 70 71 72 72 69 66 63 59 57 55 53 52 50 49 52 51 53 53 52 50 47 47
44 47 48 45 42 44 47 53 56 58 58 55 56 56 54 55 56 59 60 62 65 62 62 66 67 63 61 58 60 65 65 64 61 54 50 51 48 46 45 46 47 46 46 47 48 45 41 41 42
44 43 45 46 44 47 50 52 53 53 52 51 50 52 52 51 50 54 55 55 57 55 59 57 58 56 55 55 52 52 57 57 52 48 45 42 40 40 43 41 41 41 41 42 41 41 38 39 40
45 41 40 39 43 47 51 54 54 55 53 52 48 51 51 51 51 52 50 50 51 53 55 54 54 53 51 47 44 46 50 52 48 45 39 38 38 39 39 38 39 40 40 40 38 36 36 36 37
51 49 43 43 43 47 52 55 54 57 53 53 50 52 55 52 50 50 50 51 51 51 53 52 50 50 48 46 40 38 41 45 44 42 38 37 35 36 35 37 38 37 40 41 40 36 33 32 36
59 56 52 51 52 51 56 58 57 58 55 54 52 52 57 59 56 56 56 55 55 53 51 53 52 50 48 43 40 36 38 38 41 37 35 35 33 34 35 36 38 40 36 38 36 35 33 33 33
63 59 58 58 60 57 58 59 61 64 65 66 66 64 64 63 64 62 64 63 61 59 58 57 57 53 50 46 42 38 39 37 37 36 35 34 33 32 35 39 38 40 43 35 38 36 32 34 30
66 63 59 61 64 64 62 63 67 66 67 66 69 70 66 64 69 71 67 68 66 64 63 62 60 58 54 47 45 41 37 39 35 34 35 34 32 31 36 38 41 37 37 41 37 35 30 31 27
68 68 67 69 67 65 66 66 72 73 73 72 70 69 64 61 65 66 66 66 66 66 66 68 62 57 50 50 45 41 41 41 39 36 36 36 36 33 34 35 38 41 39 38 35 31 30 28 28
61 66 70 71 69 67 69 71 73 77 75 76 74 74 69 66 72 72 71 70 69 67 66 67 61 58 56 54 54 48 45 44 40 39 33 35 37 35 32 27 28 32 32 33 35 33 30 28 27
60 64 65 69 73 74 76 74 74 74 73 79 74 76 77 74 72 77 77 71 71 69 69 67 66 63 62 59 59 52 45 48 48 43 40 33 34 38 32 34 31 34 35 32 30 29 29 28 28
63 66 69 70 72 74 74 74 76 75 78 78 79 79 82 80 74 73 74 78 76 74 74 74 72 68 66 63 63 59 51 45 44 47 46 41 34 36 37 37 33 34 31 33 31 29 29 30 28
67 70 73 76 78 79 77 76 79 81 80 78 81 83 84 84 80 78 81 82 81 78 79 78 74 71 66 62 63 63 61 55 52 49 47 47 42 37 39 36 39 35 35 30 30 32 31 30 26
70 72 77 79 86 88 84 79 87 89 89 91 89 87 87 86 87 86 86 83 84 82 78 76 76 72 67 65 61 64 63 57 49 48 49 51 49 43 38 39 37 39 35 31 31 34 33 29 27
75 77 81 84 93 95 94 85 95 99 102 101 100 98 97 94 92 92 93 93 92 90 87 83 81 75 71 67 63 65 64 56 48 47 50 53 53 47 41 39 40 39 37 35 32 35 34 30 27
74 80 83 88 94 95 99 96 95 107 112 110 109 110 108 103 98 102 101 98 100 94 93 91 88 80 74 74 68 64 68 65 53 51 50 52 56 51 47 40 40 40 40 37 34 34 37 33 29
80 81 86 89 97 95 99 99 99 102 110 113 116 115 113 110 108 107 109 109 107 105 97 94 93 88 79 75 71 63 65 66 58 53 51 51 54 55 49 45 40 40 42 37 37 39 41 34 31
80 85 82 85 84 87 93 97 101 95 100 110 109 112 115 110 115 118 115 115 111 113 104 99 96 93 86 79 71 65 65 66 64 54 49 52 53 56 54 50 43 41 40 40 40 41 40 34 31
83 78 78 74 75 80 83 93 94 92 92 95 103 106 108 105 108 116 120 127 119 115 110 106 98 94 91 80 76 70 67 67 62 53 51 53 53 53 56 53 47 43 41 43 40 38 38 36 33
78 74 71 69 74 82 80 82 78 82 85 82 80 91 98 101 104 102 100 110 122 123 118 111 108 102 96 88 80 71 67 71 64 59 62 57 55 52 53 54 50 45 44 40 44 45 40 37 35
73 74 74 74 72 77 76 67 66 63 66 67 63 64 74 79 79 82 89 96 108 125 126 117 111 104 101 94 84 72 71 67 69 65 56 54 56 54 53 53 51 48 46 42 42 45 43 40 37
73 73 72 73 72 66 64 59 57 53 51 53 53 53 56 62 61 65 73 80 95 105 121 120 117 109 102 97 84 75 76 73 73 70 55 56 56 54 53 53 53 52 49 43 43 43 44 44 40
74 70 71 67 62 58 55 50 49 44 42 39 38 42 44 50 52 55 57 66 77 91 108 112 114 113 103 93 83 81 57 80 73 66 51 59 55 54 53 53 55 56 53 44 43 43 46 46 41
73 72 64 58 54 49 45 41 36 31 32 31 33 35 36 40 39 44 47 53 64 77 93 101 111 112 103 92 77 75 83 61 63 64 54 63 58 52 55 54 54 55 54 46 45 44 46 45 44
74 65 55 51 47 41 38 30 27 33 33 33 33 31 32 33 34 36 39 44 54 64 75 92 104 108 103 92 76 71 77 84 85 69 69 67 62 56 57 52 54 55 54 50 49 47 49 47 48
65 59 51 45 37 32 30 23 30 35 37 34 30 29 27 26 26 30 31 36 46 56 70 91 99 103 103 94 87 87 82 82 78 78 76 74 64 64 56 53 56 56 56 57 53 52 53 52 51
59 51 47 37 31 21 17 24 32 39 34 29 26 23 22 21 19 20 26 31 39 51 64 79 101 105 99 92 87 87 89 87 86 85 79 75 71 64 59 55 59 61 61 59 54 56 54 52 54
55 46 40 30 19 13 13 21 32 31 25 20 18 22 17 13 13 16 20 27 34 45 60 75 80 98 101 94 87 83 84 84 84 81 80 76 71 67 63 54 54 63 63 59 58 59 56 56 56
48 40 33 25 13 13 14 24 23 23 13 11 12 17 13 6 8 13 18 21 28 36 47 61 62 80 93 98 91 90 85 83 87 83 83 78 75 68 63 55 55 64 68 67 69 62 58 58 57

GFSSGP_250_spd_123.txt.gz
Wind_Speed
41 43 45 46 51 58 66 75 75 79 79 76 78 79 77 75 74 76 72 71 74 77 77 75 76 74 76 74 75 76 75 74 72 69 67 65 66 65 63 62 61 61 59 58 58 56 55 53 53
41 41 41 41 46 45 49 60 61 68 70 72 69 68 68 70 70 70 69 69 68 72 72 70 71 71 68 66 68 69 70 71 70 68 64 61 60 59 53 53 54 54 53 50 50 50 51 46 46
46 44 42 41 41 43 49 55 52 57 55 54 54 53 59 61 57 55 54 53 55 58 58 58 59 60 58 58 57 60 59 59 62 61 55 51 51 46 44 44 44 45 44 44 45 45 45 40 39
49 48 47 44 45 44 49 55 56 56 55 52 50 49 49 49 43 45 47 47 47 49 50 51 51 51 48 51 49 51 52 54 54 51 46 43 40 38 37 37 39 40 41 43 41 39 42 37 39
53 52 51 48 48 49 48 53 52 52 55 50 48 49 48 49 44 45 47 48 48 47 48 48 49 51 50 48 46 45 45 44 43 44 41 36 35 34 33 36 39 38 39 40 38 37 38 35 37
60 58 55 54 55 56 53 58 54 52 51 48 48 47 52 55 42 50 52 51 51 51 50 49 51 52 49 46 44 41 41 40 39 38 38 35 32 31 30 31 35 35 37 36 39 38 39 37 35
53 53 59 61 61 63 61 61 59 58 58 54 49 54 55 55 38 57 53 55 55 56 55 54 53 57 55 50 46 45 44 41 39 36 39 35 33 29 32 31 33 31 37 39 38 39 36 33 31
54 52 56 57 65 68 67 62 65 64 64 64 60 56 58 51 52 66 60 62 61 61 62 60 59 61 60 56 52 48 46 46 43 37 36 36 34 31 32 32 33 34 36 41 40 40 40 33 34
54 54 56 60 61 63 68 65 72 67 65 67 68 66 62 59 64 66 65 62 64 65 64 65 66 65 61 58 56 55 49 49 48 40 34 30 32 32 31 32 34 35 37 38 41 40 34 36 30
53 54 55 57 59 61 64 70 71 72 71 74 73 72 67 68 72 68 70 69 64 63 60 62 64 64 63 62 59 54 54 49 43 41 38 37 34 34 34 33 34 36 35 37 37 40 37 31 28
52 53 56 58 58 60 66 71 73 75 75 76 75 76 75 73 73 75 75 72 70 67 66 64 64 64 62 63 60 59 54 48 43 43 42 41 36 34 32 34 34 35 30 30 30 29 32 31 29
47 51 52 55 57 59 65 65 64 69 72 77 78 77 75 76 76 77 75 74 73 72 69 69 71 72 68 65 61 59 55 51 48 46 46 43 43 38 36 35 36 34 32 33 31 30 31 33 27
49 56 57 61 62 66 67 70 71 74 76 76 77 79 80 80 79 77 79 80 80 78 76 74 71 70 69 67 66 60 59 58 55 50 45 43 42 41 41 38 37 36 37 38 37 31 30 31 28
56 57 61 64 65 71 72 73 79 81 79 79 80 82 84 84 86 82 80 80 83 85 82 81 76 74 73 72 69 67 67 64 59 53 51 47 45 45 44 43 40 39 37 38 38 34 31 31 32
63 63 68 67 68 72 74 78 85 87 88 89 89 90 90 91 91 91 88 84 88 88 90 87 81 78 77 76 72 68 66 66 63 55 52 50 47 47 45 46 45 40 42 39 38 36 30 31 33
66 70 74 76 76 81 81 81 93 95 95 95 96 97 97 98 97 99 96 91 89 93 91 90 88 84 80 79 74 69 64 66 66 60 55 55 49 41 46 46 47 45 43 43 39 40 36 33 34
66 71 75 84 85 86 88 85 98 100 101 99 101 105 106 107 108 107 104 103 100 98 99 93 90 87 86 83 81 73 67 67 65 63 61 61 52 50 47 48 47 48 45 44 42 39 40 37 35
71 70 76 79 80 82 89 91 91 102 101 99 103 106 108 109 111 115 112 110 111 109 106 102 96 93 89 87 84 79 73 71 71 65 63 64 66 55 48 49 47 47 49 45 43 42 41 36 38
74 71 72 75 78 80 89 91 91 96 97 94 96 99 99 96 102 107 108 113 117 118 113 113 106 103 95 92 90 85 74 74 71 70 69 69 65 56 49 48 48 45 51 48 45 45 44 36 39
76 72 71 74 77 81 85 84 89 91 91 86 87 88 90 90 95 97 99 104 109 121 117 116 114 106 103 98 95 87 80 78 78 75 75 69 63 56 50 46 47 46 48 51 47 47 44 42 40
79 74 73 73 78 82 79 80 87 82 80 76 73 72 81 85 88 92 92 93 96 100 110 114 119 113 112 104 102 95 90 84 77 75 73 67 66 67 55 47 43 50 47 50 51 49 45 42 42
79 76 76 78 80 78 83 78 89 74 75 72 68 59 66 72 77 79 81 81 86 90 95 102 118 113 116 110 105 99 91 82 74 74 78 76 69 71 57 42 45 49 50 49 55 48 47 42 45
83 80 81 83 83 77 80 74 77 68 64 62 60 55 54 59 63 63 61 64 70 77 83 88 106 115 109 110 105 99 92 84 81 86 84 77 73 69 64 45 44 50 48 48 53 50 46 43 44
83 81 85 83 78 77 74 72 61 60 55 53 52 49 47 50 53 53 51 54 59 63 67 72 88 109 100 102 100 99 93 83 86 86 84 77 72 66 68 50 47 47 53 49 52 50 46 45 44
85 83 81 76 73 75 75 63 57 50 47 45 42 44 39 35 38 36 35 36 41 46 53 58 69 87 92 92 97 87 86 79 82 77 75 82 62 65 60 53 52 49 51 53 51 50 50 48 46
83 82 74 70 73 72 63 52 48 43 41 37 34 34 33 30 27 26 24 25 26 33 41 49 59 66 78 87 90 83 85 77 66 47 35 90 86 75 66 56 60 54 49 54 52 50 52 52 48
80 76 72 71 74 59 52 47 39 36 32 32 31 33 36 30 27 24 19 19 18 27 37 44 51 53 73 91 86 77 84 79 54 68 61 45 50 62 65 63 66 60 48 49 52 51 50 49 49
77 69 70 70 62 49 45 39 31 27 27 31 36 31 32 32 24 19 15 17 19 29 33 38 43 53 72 90 80 67 81 77 64 56 84 62 79 85 73 68 66 69 59 60 51 53 50 36 59
66 65 68 64 51 40 37 33 24 23 24 31 32 32 31 25 25 23 12 13 18 24 29 33 37 51 71 88 71 66 70 71 65 73 87 85 86 83 81 76 74 76 77 64 55 55 53 55 52
61 66 63 55 43 35 33 27 22 22 23 22 23 29 25 22 17 13 10 10 17 22 25 32 38 47 68 81 69 68 81 72 76 77 81 85 92 84 74 77 80 83 76 62 56 57 64 57 53